GFSSW_925_rhum_000.txt.gz
RH
96 95 93 91 88 89 94 95 96 94 92 95 92 93 91 87 85 89 97 66 75 54 49 49 45 40 44 40 33 36 51 48 34 30 27 27 30 25 23 20 19 34 31 35 37
93 92 91 90 88 91 94 94 94 93 94 95 94 94 93 83 88 98 77 66 82 74 53 48 53 48 50 42 38 45 59 49 34 27 35 30 30 28 28 30 22 36 52 53 47
88 89 88 90 89 92 93 93 92 91 92 92 92 92 91 86 86 72 62 73 66 80 68 57 46 44 50 45 44 45 53 42 37 36 35 30 30 25 26 28 23 23 47 59 59
89 89 89 87 89 91 93 92 95 93 91 92 90 91 87 90 86 47 55 46 73 85 84 72 50 52 57 55 47 50 43 40 38 35 32 29 26 29 27 26 23 24 30 63 63
90 90 88 89 88 84 90 94 92 92 91 92 91 91 91 87 70 46 67 63 44 92 88 59 50 54 60 54 48 50 46 41 39 38 32 28 31 31 27 24 24 25 48 62 64
92 92 94 89 92 91 92 91 93 96 90 90 88 84 90 94 54 48 61 64 73 89 84 57 49 45 52 52 51 42 37 35 32 31 31 31 31 26 25 23 23 24 40 56 63
88 85 72 84 93 92 91 88 88 94 92 90 90 94 89 69 55 44 53 72 83 84 71 56 46 44 50 50 40 36 43 40 34 32 31 25 30 27 24 23 24 24 28 32 46
90 76 80 94 92 94 92 90 86 85 89 90 89 97 82 63 57 61 60 59 80 83 65 57 50 51 48 38 35 34 36 45 35 34 32 28 43 30 25 28 27 25 27 24 27
86 93 94 87 80 84 94 93 92 91 89 88 88 85 82 60 74 44 61 65 64 84 72 62 53 53 46 51 47 46 51 47 41 32 29 30 35 28 24 23 24 25 24 29 33
92 93 99 97 91 88 81 84 85 86 83 86 88 85 74 79 64 60 45 60 80 80 80 82 85 70 49 48 72 53 50 45 41 26 36 34 34 29 26 20 23 28 32 36 37
85 89 92 98 99 92 91 88 98 93 98 80 84 74 65 60 60 61 63 66 80 89 92 85 92 91 78 46 44 42 39 40 36 30 32 36 33 31 26 28 31 34 37 38 37
82 86 90 99 97 96 84 97 79 70 91 73 70 72 73 57 64 67 70 81 88 90 78 98 91 75 59 51 41 41 42 43 36 29 26 28 30 30 21 28 35 38 39 39 40
79 85 92 96 97 100 99 91 87 66 79 78 75 62 64 61 75 81 81 81 79 76 82 81 70 65 50 45 46 45 46 41 41 36 32 32 40 23 26 30 34 35 38 39 43
83 89 96 95 94 98 100 97 87 88 87 90 82 67 75 74 93 88 92 78 70 73 70 70 51 58 56 45 40 48 37 36 35 39 45 35 52 30 33 35 36 40 41 40 43
83 88 99 98 99 94 99 90 89 96 97 85 83 84 88 78 88 92 98 80 71 70 72 67 51 54 46 42 38 39 34 33 33 40 40 39 44 40 36 39 41 44 42 40 45
90 88 98 100 96 91 96 100 94 100 98 95 94 97 87 91 85 89 93 70 60 58 52 46 36 41 40 34 34 36 33 44 47 48 57 46 44 41 43 36 40 42 43 42 47
83 96 85 98 95 97 100 98 100 100 90 97 93 82 80 88 85 87 92 88 80 75 73 58 29 23 29 32 26 35 46 60 59 63 62 39 43 38 31 37 33 43 46 44 48
76 98 92 88 88 98 100 100 100 95 90 78 78 79 89 75 80 81 88 81 59 48 59 68 47 30 23 32 36 39 44 64 64 70 55 34 42 32 30 33 38 42 45 45 50
70 74 84 65 89 100 99 99 96 86 77 80 73 93 96 80 68 72 75 55 49 48 45 49 48 32 29 24 31 35 47 40 50 50 55 49 40 26 44 49 47 50 47 46 50
84 76 73 79 88 98 99 94 92 76 68 70 89 86 91 71 66 61 73 55 66 50 47 47 53 39 32 28 26 34 34 46 55 54 53 49 40 41 41 50 50 52 49 47 46
74 76 88 85 86 99 96 93 92 64 72 89 75 83 69 68 58 62 69 61 57 56 50 50 52 54 38 42 46 39 38 34 46 52 55 54 46 36 36 43 47 49 49 49 51
85 63 92 80 82 87 91 89 86 89 86 83 51 55 67 70 61 74 75 67 58 51 57 55 64 71 54 40 37 38 40 38 47 45 53 52 45 30 34 33 38 45 47 48 52
81 69 88 77 81 85 66 76 86 90 79 70 77 65 57 65 72 68 70 60 59 55 58 54 68 79 60 52 48 50 42 39 47 52 56 54 48 34 39 36 40 47 47 49 56
79 60 63 71 73 70 67 67 74 73 70 61 61 60 66 66 63 70 69 62 54 54 61 48 54 58 62 54 55 58 55 46 44 58 48 56 39 34 34 36 38 43 48 56 60
72 62 63 55 59 56 52 56 62 61 57 59 56 53 58 66 62 70 64 56 50 49 48 44 48 45 42 39 38 45 50 56 56 49 45 39 43 34 36 34 36 38 54 62 55
67 63 67 66 53 56 61 52 56 57 55 60 65 54 53 61 59 64 61 55 53 47 50 47 51 36 34 34 36 35 34 36 42 48 52 47 42 32 35 36 48 50 59 59 51
73 67 54 65 57 54 58 53 51 55 48 50 54 48 50 44 41 43 49 50 49 49 50 46 41 38 34 47 44 46 45 43 36 35 32 34 30 35 37 46 52 55 58 54 54

GFSSW_925_rhum_003.txt.gz
RH
93 96 96 94 94 93 92 93 95 88 89 94 95 88 94 92 89 90 98 71 68 64 65 60 57 49 47 50 37 40 52 55 41 32 28 28 34 27 25 25 23 33 36 44 41
92 93 91 92 92 92 91 94 95 96 96 89 95 94 94 90 91 96 72 76 72 78 79 57 61 52 58 49 41 47 61 53 39 27 32 36 34 30 29 30 25 26 51 54 53
88 88 90 89 90 92 93 93 95 97 93 96 96 87 90 88 84 70 52 74 69 78 96 59 49 53 58 48 45 50 55 44 39 33 38 38 35 28 28 29 26 25 26 57 62
91 91 92 91 89 91 93 95 96 96 96 96 86 91 85 88 87 58 60 55 44 71 83 81 68 58 61 61 50 51 47 42 40 36 38 39 30 32 29 28 24 26 27 58 65
91 92 92 91 88 80 91 94 93 92 94 94 95 88 90 90 75 56 62 70 60 75 81 84 60 59 64 60 52 54 49 45 44 46 44 39 37 34 31 27 26 26 30 55 66
90 90 85 93 87 93 88 84 87 92 95 92 84 87 92 89 61 54 58 64 72 76 89 86 55 51 55 56 57 50 50 46 37 37 34 34 35 31 28 26 26 24 26 44 66
91 88 86 80 94 94 92 91 92 94 74 80 91 83 91 71 57 56 50 54 70 73 88 82 56 46 53 53 49 41 44 42 40 38 37 30 36 34 27 26 28 27 27 30 39
81 91 89 87 95 93 95 92 90 86 77 77 91 87 83 64 59 57 66 56 71 79 91 70 53 46 52 43 36 37 41 47 37 33 34 32 43 34 29 26 28 30 27 32 37
95 93 89 95 98 82 76 83 91 91 81 75 86 85 81 62 67 54 60 69 67 78 91 68 50 55 52 61 56 43 54 50 42 33 31 33 40 32 26 25 26 27 34 38 40
66 84 92 96 97 95 94 91 89 91 79 77 80 90 78 73 66 61 49 64 81 74 91 88 76 80 65 68 82 57 50 49 48 33 36 35 40 31 27 21 26 33 39 42 45
85 83 86 90 99 99 97 91 94 96 84 87 82 79 64 61 60 57 54 62 75 77 92 86 94 87 79 69 56 49 44 42 40 33 34 41 39 33 30 24 32 40 42 44 44
85 79 86 96 100 96 100 88 71 70 96 76 70 70 67 64 78 62 54 70 90 85 75 96 92 67 67 53 46 43 44 49 40 35 35 34 38 34 26 27 34 41 44 44 45
83 86 93 99 99 100 90 81 83 89 88 80 75 76 73 65 70 76 61 70 83 78 84 79 71 69 66 71 58 48 48 50 43 41 35 38 44 36 26 31 36 36 40 44 49
82 87 96 99 99 92 97 85 78 91 96 86 86 70 63 68 75 68 63 69 77 78 75 80 61 79 72 67 62 75 43 42 44 45 52 38 58 39 31 37 39 42 46 47 52
82 92 98 100 100 94 99 88 93 93 100 78 79 72 67 73 85 92 98 94 73 70 82 78 71 76 85 65 45 61 36 41 43 43 44 42 51 45 34 41 42 45 44 49 54
73 86 97 100 100 92 96 89 80 100 100 92 83 85 87 78 78 95 88 93 50 67 53 53 54 60 59 50 40 37 37 44 50 52 62 50 47 46 43 34 41 42 44 50 57
74 80 96 99 96 96 88 94 100 100 82 97 87 81 80 84 94 92 93 97 77 83 80 50 49 37 33 34 37 38 47 66 64 67 68 46 52 37 30 33 34 43 46 49 56
78 94 94 100 99 94 95 99 100 91 95 76 82 80 90 78 87 94 95 88 62 58 66 67 67 33 27 36 42 46 48 65 66 73 60 48 51 36 37 38 35 40 44 48 55
86 99 99 98 98 99 97 100 95 84 76 85 89 93 95 80 83 91 94 76 55 50 57 61 52 34 29 27 33 38 50 44 54 56 64 54 44 32 46 49 47 47 48 50 54
100 95 86 81 94 99 98 95 89 70 66 71 84 87 91 78 88 91 86 69 53 43 39 44 52 42 33 29 28 36 38 50 61 63 60 53 47 45 42 49 52 52 49 49 53
95 86 99 100 95 100 99 94 78 61 65 66 72 89 69 72 75 85 81 67 57 54 52 48 47 54 38 42 44 37 38 44 50 57 58 59 49 36 34 50 50 50 47 49 54
93 76 100 100 97 93 95 93 61 67 90 88 67 61 65 59 62 73 81 66 57 56 65 54 60 66 50 44 40 38 39 40 53 48 56 56 48 36 36 45 48 47 47 50 54
87 91 96 97 90 88 96 94 87 90 86 76 59 53 59 59 72 74 74 61 59 56 60 58 70 81 63 56 51 50 44 40 49 53 59 55 45 34 39 36 36 42 48 51 59
90 70 96 97 82 73 80 94 95 88 70 65 66 62 61 65 63 76 73 61 54 55 61 51 62 60 59 60 61 59 53 47 45 59 52 54 39 32 38 37 36 39 44 57 65
82 63 65 77 68 58 56 70 87 80 67 66 67 66 62 68 66 76 66 59 51 49 48 42 50 46 46 44 50 54 58 54 49 44 45 39 47 32 32 35 34 36 49 62 62
75 69 69 70 56 54 57 53 61 58 66 72 74 71 60 58 58 68 62 58 55 49 48 46 54 37 35 38 35 34 36 58 52 49 48 48 44 35 34 37 47 50 59 64 59
79 76 59 68 58 54 57 55 54 52 48 55 56 59 64 50 43 50 51 51 52 51 51 40 43 37 36 45 42 42 44 41 35 35 34 33 29 38 47 54 50 52 60 62 56

GFSSW_925_rhum_006.txt.gz
RH
92 94 93 96 95 95 96 96 96 89 82 86 88 87 93 93 94 91 97 74 66 71 90 77 64 58 51 53 39 41 54 59 45 37 31 28 38 31 26 30 28 27 33 38 47
91 90 90 90 92 94 94 93 94 94 91 84 81 85 86 94 96 98 71 71 75 70 88 80 74 57 58 56 45 49 63 55 42 31 29 35 39 35 32 32 27 25 37 47 47
91 89 88 90 89 91 96 95 95 96 93 88 86 84 83 95 86 75 54 60 73 72 87 93 64 59 61 49 48 51 58 48 41 36 33 42 44 34 30 34 28 26 26 39 56
88 89 90 92 92 90 92 95 96 96 94 91 88 88 85 89 90 69 72 67 69 72 78 90 81 63 69 65 52 51 48 44 41 37 40 45 38 39 34 32 27 28 28 34 57
88 91 92 94 94 92 91 91 94 96 95 78 79 81 92 89 74 59 60 63 70 74 75 85 72 65 70 64 56 58 52 47 46 48 50 45 44 40 35 30 29 30 29 31 52
92 92 92 92 96 96 96 91 81 86 79 80 90 84 90 96 58 49 52 56 68 74 76 83 73 56 60 59 59 55 53 52 48 44 39 37 40 34 32 28 28 28 29 28 41
93 93 93 93 92 94 95 91 91 96 91 78 75 86 89 76 57 61 62 52 50 74 72 84 83 50 54 57 53 47 52 49 42 41 42 40 40 39 31 27 30 31 34 29 32
94 87 85 89 87 91 94 94 91 91 79 79 78 88 89 62 53 64 59 64 49 71 76 79 66 54 53 45 40 48 43 56 42 34 34 34 36 32 32 31 31 30 36 41 49
92 81 94 92 92 94 94 79 89 83 93 78 84 81 80 58 65 63 53 67 70 74 81 79 74 64 56 59 52 45 55 54 47 34 36 38 46 30 27 27 27 27 38 44 50
94 92 89 89 94 93 98 86 80 85 79 82 82 88 77 75 65 61 48 56 73 80 78 92 81 79 79 77 87 64 53 50 52 36 37 39 44 33 31 24 27 29 40 49 54
84 84 80 90 88 96 99 100 92 92 83 88 80 77 68 59 64 64 59 58 71 84 94 86 92 95 82 69 60 59 50 59 43 35 36 41 44 36 32 29 28 38 44 50 53
80 90 90 94 97 99 99 89 70 67 89 76 76 72 63 68 81 68 53 76 87 78 79 96 92 69 72 69 62 47 49 51 49 38 37 42 42 37 36 29 29 42 48 49 53
79 82 91 98 98 100 97 73 70 69 87 85 74 77 71 67 79 78 58 69 85 64 82 81 78 62 68 66 63 53 57 57 58 46 41 45 47 41 30 32 40 43 45 49 54
63 79 92 99 100 98 97 91 81 70 100 94 82 77 74 78 83 62 52 63 76 64 73 86 76 73 69 81 69 87 52 46 46 50 59 42 63 48 34 37 43 49 54 56 58
72 76 90 100 92 98 92 87 84 98 96 77 79 59 74 79 74 80 51 61 86 73 75 85 91 89 79 70 69 72 47 49 45 51 48 46 55 49 36 42 45 51 52 56 60
72 67 85 96 99 98 100 94 96 100 95 92 84 82 84 74 75 75 73 78 63 66 64 65 61 74 78 66 58 51 49 45 52 53 67 52 50 53 42 40 42 46 49 56 63
74 83 89 90 96 98 99 94 99 99 85 95 84 78 76 85 81 80 83 92 81 91 85 58 81 54 58 55 44 51 50 77 65 71 72 50 57 49 35 34 38 45 49 57 64
83 94 95 91 99 84 93 95 100 98 85 72 81 74 82 74 80 75 87 96 83 58 71 82 93 53 38 60 68 61 57 70 71 75 64 54 59 41 35 48 40 42 46 58 66
93 99 100 98 100 92 92 100 99 77 78 83 76 80 86 75 91 86 87 89 74 54 67 85 73 36 32 34 54 51 56 46 61 60 70 62 47 39 43 50 50 49 51 60 65
97 99 96 95 100 94 96 99 95 69 73 68 79 77 96 83 93 90 94 73 70 54 44 53 54 42 33 29 30 44 43 54 62 65 68 61 50 49 34 41 51 54 54 59 63
97 92 98 100 100 97 99 95 85 64 66 67 80 83 74 83 90 91 88 75 58 53 43 45 50 53 39 44 42 40 45 51 55 62 62 63 50 40 36 39 53 52 50 59 64
93 88 100 100 99 93 94 94 65 73 83 78 66 64 69 75 76 87 87 68 56 62 62 49 60 60 49 46 40 36 41 45 61 56 62 60 53 36 44 43 53 52 53 54 58
88 98 100 100 100 99 94 84 73 80 85 83 67 60 54 66 82 80 87 64 65 60 62 58 66 83 66 55 54 47 44 42 52 55 63 59 51 36 43 48 50 52 52 53 57
88 89 100 99 96 89 93 87 92 93 91 70 64 61 60 68 70 85 86 63 58 57 67 53 63 60 70 53 60 63 54 48 46 61 59 58 41 34 40 41 41 43 45 54 65
90 66 71 92 90 78 75 87 94 92 78 63 66 58 64 74 75 82 69 65 53 63 52 49 56 50 47 55 56 56 56 55 51 47 51 45 49 34 36 35 34 38 45 59 69
81 74 71 72 59 61 62 72 70 64 68 69 77 68 59 64 62 79 68 64 62 52 49 49 55 41 39 40 36 44 50 58 51 51 42 50 47 37 41 41 48 50 51 59 66
81 79 57 66 59 56 60 57 60 55 60 62 64 66 60 56 48 56 55 56 56 51 51 44 46 47 49 44 40 38 42 66 55 49 52 58 44 40 52 53 47 48 52 56 64

GFSSW_925_rhum_009.txt.gz
RH
91 90 90 91 94 96 96 94 96 97 88 89 88 85 82 92 95 97 98 66 59 65 82 83 78 68 55 55 41 42 51 56 46 41 36 26 36 33 28 29 28 25 31 33 43
94 92 89 88 89 93 95 97 94 92 88 89 78 83 85 94 97 97 76 64 77 53 80 92 78 63 60 58 47 47 60 54 42 36 32 30 39 36 34 33 29 25 27 36 41
91 92 91 91 90 91 92 96 96 95 95 87 83 77 85 94 84 76 60 52 68 76 77 88 94 66 65 55 51 52 56 49 42 37 32 38 43 38 34 38 29 26 24 26 42
89 88 89 91 92 93 92 93 95 92 93 90 84 82 92 87 87 68 75 77 77 79 74 81 89 76 73 66 51 54 48 45 42 39 42 44 42 42 36 32 28 28 29 29 27
91 90 91 91 94 94 94 93 94 95 96 96 91 82 92 93 76 66 62 58 69 78 78 80 86 70 75 65 58 56 51 48 44 46 50 48 48 44 37 31 27 29 30 28 27
93 93 94 90 89 95 95 92 93 95 96 87 85 85 88 95 59 53 54 53 54 74 79 76 77 58 66 62 59 56 52 47 50 47 45 43 42 38 34 31 29 28 28 28 29
93 96 95 85 95 93 92 95 93 94 95 96 74 87 87 77 57 60 57 58 51 63 78 77 82 54 57 63 56 55 58 53 49 44 43 44 44 43 31 30 29 29 28 36 44
95 95 87 85 92 96 96 95 95 94 93 93 79 90 84 65 59 60 55 61 58 47 65 74 76 72 55 46 50 59 52 70 51 37 35 35 45 31 30 34 31 27 37 46 50
94 93 85 80 90 90 93 96 90 92 89 89 87 89 84 59 70 54 53 62 68 64 71 73 75 82 60 58 56 53 76 64 57 42 42 39 41 34 29 29 28 26 38 44 47
91 89 91 74 88 90 96 99 83 88 88 85 85 90 81 75 66 61 56 49 72 86 82 80 92 93 76 74 90 64 63 53 52 39 40 41 42 34 32 33 30 27 42 47 50
85 85 82 79 86 92 98 100 93 94 86 81 78 76 68 63 65 66 63 62 62 87 87 80 94 96 79 70 61 54 52 51 53 37 38 41 41 34 32 33 34 35 45 47 49
83 81 86 83 92 97 100 92 68 60 87 77 74 69 66 68 81 71 59 64 82 92 72 81 93 70 68 70 59 56 55 55 50 40 39 44 42 34 36 35 30 36 47 48 50
84 80 81 80 97 100 99 86 66 72 85 82 70 77 76 68 75 79 61 63 84 74 75 78 77 61 69 79 74 63 64 60 60 50 44 46 44 40 32 33 41 43 47 48 50
79 78 77 89 97 100 99 95 82 78 100 95 87 74 74 75 83 63 59 61 78 73 63 84 72 71 77 76 70 82 52 52 52 60 68 42 56 46 36 34 44 49 51 52 55
80 77 78 88 98 97 93 96 91 88 98 82 81 61 73 69 72 82 59 61 80 63 65 90 96 76 83 74 67 75 61 60 53 55 50 49 50 42 38 38 45 50 54 56 57
83 73 80 86 99 92 100 100 93 100 96 96 81 92 88 80 74 75 68 65 74 58 57 89 76 71 66 66 64 49 58 62 54 50 63 52 46 47 39 34 45 48 52 57 59
88 82 88 81 93 92 100 94 100 99 84 96 91 86 72 90 89 77 79 82 95 91 73 90 87 84 84 64 54 52 72 98 96 74 67 54 55 42 38 34 38 42 48 57 59
98 94 92 89 81 97 91 98 99 90 90 73 82 80 82 77 89 80 76 93 90 76 65 97 99 69 80 73 71 75 72 80 76 71 60 57 58 37 35 42 42 42 45 58 62
98 93 96 88 94 99 94 99 90 89 84 82 79 85 97 75 87 83 83 75 83 74 60 83 82 54 50 50 60 78 85 49 62 62 67 60 48 38 39 46 48 49 52 60 62
93 94 95 87 100 90 99 100 90 89 80 68 73 74 88 79 99 71 88 72 83 68 57 68 61 46 34 40 35 56 48 77 61 67 70 62 53 48 36 39 53 53 53 61 63
100 100 96 100 94 92 100 98 87 85 69 61 74 77 65 82 95 90 88 78 72 64 51 49 53 56 39 44 48 53 74 57 54 61 62 58 46 40 37 37 48 51 53 58 62
95 96 99 97 97 94 97 86 82 79 67 72 70 73 77 80 88 86 87 75 67 60 54 46 57 62 48 48 40 42 50 49 59 60 61 56 50 36 44 47 49 50 52 56 59
91 98 100 96 98 97 87 92 87 83 79 82 71 61 66 82 94 81 76 66 62 59 61 53 65 76 62 55 58 47 42 44 51 53 61 56 49 38 47 53 54 51 50 52 58
93 99 100 98 97 99 95 88 90 85 85 80 62 58 65 76 73 93 86 67 68 56 60 50 63 67 70 59 61 64 52 49 44 56 56 53 41 34 40 47 51 51 51 51 56
96 89 85 97 97 97 96 88 91 90 90 78 73 60 61 83 84 88 87 68 59 71 54 48 57 52 48 52 53 56 56 51 49 43 46 44 48 38 41 44 45 40 44 56 64
95 84 79 71 66 97 96 97 88 91 88 77 70 58 61 72 75 87 74 66 65 55 56 53 58 44 43 48 50 58 58 49 46 50 48 45 48 39 41 46 51 53 55 60 67
84 84 69 64 61 74 81 88 90 85 85 65 62 59 64 57 53 61 56 58 55 56 55 59 50 52 55 44 40 48 49 61 51 54 42 50 38 45 54 55 54 56 55 58 64

GFSSW_925_rhum_012.txt.gz
RH
91 92 91 90 91 90 83 84 86 96 90 90 93 88 85 88 94 92 74 60 60 51 77 71 71 64 59 46 37 32 38 37 34 34 28 20 26 25 24 25 19 18 19 21 34
91 94 92 90 90 91 91 92 94 90 90 90 87 87 89 87 89 82 74 69 64 72 62 68 60 58 55 48 43 39 41 35 28 26 27 26 29 30 30 24 21 17 18 19 22
90 92 91 92 92 93 93 93 90 95 93 84 80 76 83 90 80 65 65 79 81 80 64 66 82 65 60 46 43 40 42 31 31 28 27 30 31 29 33 32 22 21 17 18 19
90 90 89 92 92 93 90 94 94 88 94 94 84 84 91 83 76 68 77 80 80 78 68 57 75 79 70 60 41 46 37 32 31 32 34 34 30 34 32 32 25 22 22 21 19
93 92 90 91 76 82 84 90 92 95 91 94 91 90 92 84 60 65 60 59 61 72 69 54 74 68 73 54 44 48 36 35 33 34 34 34 38 35 34 28 24 23 23 21 19
94 94 90 92 90 66 67 80 94 92 88 86 92 88 78 83 55 55 58 57 53 63 71 55 63 48 52 50 51 40 41 39 34 36 35 40 35 36 29 23 24 23 23 21 22
96 94 94 85 81 88 71 85 94 94 88 90 93 88 76 64 56 56 59 51 51 52 62 58 57 70 47 56 44 42 50 43 40 38 38 36 41 36 26 20 21 20 20 26 32
95 96 95 85 83 80 86 94 92 90 85 89 90 88 77 64 61 62 58 57 57 48 58 56 61 84 79 44 50 54 53 56 36 37 37 37 42 26 22 21 22 20 22 30 34
94 92 92 83 75 75 79 93 92 88 83 92 88 76 70 65 64 60 56 52 59 54 48 57 66 85 74 70 63 57 62 57 42 36 36 36 36 23 21 22 21 18 23 28 32
93 88 87 90 80 76 79 92 100 88 89 85 82 80 62 61 57 56 57 53 47 59 59 71 78 96 93 80 81 60 58 45 48 35 34 36 36 26 22 24 22 20 24 29 31
84 83 84 83 83 81 88 98 97 96 84 64 61 53 56 56 64 59 60 56 53 65 87 67 91 92 82 70 44 36 41 47 39 33 36 37 35 28 25 25 24 22 25 29 32
82 84 83 82 88 84 98 96 76 69 95 68 64 56 62 60 68 55 59 56 65 73 80 67 95 72 74 58 45 45 48 48 34 35 36 38 40 32 26 24 23 23 26 30 35
87 84 83 82 82 95 100 98 88 77 91 80 68 69 63 58 65 62 57 51 59 58 84 77 70 55 88 71 54 51 49 40 42 43 42 39 37 30 25 24 26 23 26 30 32
83 80 79 80 98 96 99 100 92 80 100 90 88 68 66 63 76 48 52 47 59 60 86 60 52 70 90 69 53 66 43 46 52 61 57 41 49 32 24 26 29 30 32 32 34
83 81 81 79 98 94 97 99 89 84 95 70 80 54 55 61 54 62 53 48 60 76 92 76 54 82 80 78 48 50 47 49 54 60 58 49 48 30 28 26 30 32 33 35 36
88 81 76 93 99 94 100 99 84 98 90 92 79 86 82 68 50 66 66 47 60 68 80 48 66 64 67 60 52 50 51 53 49 54 62 41 42 31 26 22 26 32 35 37 38
99 86 87 91 75 98 100 96 100 97 78 99 98 93 71 73 64 83 74 77 97 99 100 71 92 78 59 81 63 51 65 98 91 89 60 39 42 29 24 24 25 32 36 37 40
100 99 91 91 92 97 96 97 99 84 96 85 86 80 78 68 69 90 65 68 82 89 66 99 99 96 63 66 81 69 53 53 62 58 46 44 44 28 26 28 25 25 32 37 41
100 99 99 96 98 98 94 100 86 91 86 94 75 84 74 65 86 80 58 56 89 78 68 99 99 81 63 59 56 84 87 40 45 46 45 36 33 27 29 31 31 30 36 42 42
97 89 83 81 95 98 98 98 88 82 88 78 63 58 69 66 98 62 55 44 66 64 56 67 97 68 63 68 58 67 50 68 51 58 54 39 39 29 26 26 34 33 38 41 42
91 97 88 93 98 95 100 99 87 70 80 64 48 57 49 59 85 58 56 57 52 53 58 52 54 72 53 81 77 66 78 69 46 44 43 39 32 24 26 26 29 31 33 40 44
85 99 100 99 97 96 99 92 81 84 79 56 47 43 44 52 87 87 56 68 42 49 65 48 38 77 62 45 43 47 53 53 59 55 43 39 32 25 28 31 31 31 34 38 41
72 96 100 82 99 97 90 89 84 92 81 56 58 44 42 57 82 78 62 47 48 54 52 40 43 59 80 58 43 58 48 48 39 38 43 44 35 27 33 35 36 33 36 40 42
73 99 99 99 92 92 95 93 92 73 62 63 54 54 54 56 53 60 67 60 58 54 57 43 44 39 49 45 41 52 48 47 48 52 42 38 31 28 32 35 37 34 34 37 43
77 81 77 97 96 94 93 89 87 84 77 79 66 55 50 62 69 74 69 69 62 61 54 46 46 43 43 42 39 41 46 42 46 44 44 36 36 28 24 32 32 33 33 34 40
68 76 68 71 76 92 94 92 89 89 88 87 88 54 49 56 56 70 72 60 65 56 53 46 52 40 42 48 42 42 39 41 43 41 37 33 34 24 25 29 32 31 34 38 40
86 79 67 54 61 93 95 89 89 90 92 84 65 56 58 53 45 49 48 46 47 50 50 47 46 45 48 41 43 52 42 40 36 33 32 38 30 28 35 33 32 36 39 40 41

GFSSW_925_rhum_015.txt.gz
RH
92 93 92 90 89 87 83 80 78 88 91 91 94 94 90 91 92 86 65 53 52 57 73 55 49 54 50 46 36 31 38 37 31 28 24 20 22 18 20 22 18 15 16 18 21
93 92 93 92 91 91 88 83 85 84 87 90 82 87 90 88 84 77 66 70 71 80 57 48 42 39 52 46 39 40 39 33 23 22 24 21 24 24 26 23 20 18 14 16 16
92 90 92 90 92 91 90 89 84 84 90 85 86 89 88 87 72 61 58 70 77 84 62 49 54 60 56 46 41 39 41 28 24 22 24 25 26 23 28 30 23 20 17 16 17
91 91 90 90 93 93 88 87 83 84 87 89 87 81 77 74 62 60 78 76 74 77 63 46 45 66 63 63 40 43 33 30 26 24 28 30 25 27 27 26 22 22 21 20 20
92 93 93 92 94 94 92 79 74 82 95 92 88 87 87 77 58 65 59 57 57 69 60 48 44 49 61 48 50 45 34 29 28 27 28 28 31 30 29 24 22 21 21 22 21
92 95 95 93 93 88 80 80 80 67 75 90 87 86 76 76 46 46 52 52 47 51 54 48 42 37 42 46 47 42 36 33 28 30 29 32 31 28 27 23 21 20 20 19 19
91 96 88 90 93 96 94 93 90 71 60 75 89 87 69 57 44 45 45 43 44 43 46 50 42 42 43 50 36 40 44 37 34 31 32 28 37 33 24 22 22 16 15 16 21
91 94 92 88 85 88 95 96 86 87 74 78 85 78 82 53 53 50 48 45 44 42 42 46 47 45 73 58 49 47 55 66 39 32 30 34 45 25 19 21 18 16 16 21 26
96 93 89 86 76 78 84 84 93 89 96 93 76 71 67 54 56 49 47 43 41 44 42 42 49 63 73 96 79 60 68 60 52 29 30 35 40 24 20 19 19 16 16 20 25
97 88 77 87 82 81 80 82 95 99 90 80 64 72 52 54 46 50 47 46 41 41 42 46 64 81 83 96 90 67 65 46 53 31 35 36 36 27 23 20 20 17 15 20 24
90 86 74 75 83 89 84 99 92 92 91 67 57 51 44 42 49 53 45 48 45 44 67 50 84 87 70 74 55 42 47 44 35 28 32 36 34 28 22 22 21 20 17 21 24
88 86 78 78 79 89 93 97 71 69 91 68 51 51 43 52 57 51 46 54 54 60 50 63 93 59 47 61 76 73 49 38 31 30 34 32 33 26 24 24 23 19 18 21 27
82 84 76 79 85 93 96 93 85 74 96 84 73 65 53 57 54 51 47 49 47 54 56 70 66 57 46 71 82 65 53 35 37 34 34 36 41 36 28 24 21 20 18 21 27
85 83 77 86 90 80 94 93 100 93 100 89 91 78 65 75 83 46 45 46 47 53 51 68 51 79 54 74 80 89 42 35 38 46 53 37 42 25 23 24 24 21 20 24 26
94 81 79 82 82 93 97 100 100 90 96 68 88 60 66 86 50 48 38 50 55 50 85 87 72 85 69 81 71 80 39 38 45 49 61 53 52 31 23 24 24 22 23 26 28
99 85 83 93 88 82 95 100 90 99 93 88 76 86 81 90 58 48 47 43 41 54 76 64 45 60 62 70 70 70 43 49 48 50 64 43 42 30 26 23 20 23 26 29 30
98 96 88 71 65 94 98 92 99 97 71 97 98 92 94 91 76 62 65 74 86 97 99 80 81 70 64 94 90 91 71 92 84 89 51 32 37 29 21 21 19 25 28 30 32
99 100 94 80 78 100 94 98 98 70 83 91 94 95 99 71 60 50 67 80 63 79 100 92 96 95 66 90 86 89 65 52 58 55 42 35 43 28 22 22 19 23 27 30 34
99 100 99 94 90 98 94 99 90 78 88 95 95 100 96 62 53 60 70 76 57 64 100 92 88 65 74 84 69 83 68 39 42 35 36 38 31 24 22 25 24 24 29 33 35
100 99 92 93 96 99 98 96 93 82 87 91 90 58 65 61 68 74 90 57 49 49 71 90 99 90 92 77 85 68 46 56 42 51 46 34 31 29 27 25 26 25 31 34 35
94 96 69 79 100 98 98 97 90 74 82 94 75 52 45 66 65 71 54 40 38 42 69 89 99 94 88 87 85 86 79 54 38 37 40 36 31 21 22 23 26 25 29 34 36
89 93 100 99 98 97 100 95 81 77 79 87 71 36 38 42 61 56 50 36 30 40 87 82 93 100 79 51 49 55 72 47 49 49 38 36 32 21 22 26 25 25 28 32 35
90 82 100 88 99 100 95 94 88 89 90 81 47 37 32 46 54 63 50 32 43 40 65 61 59 100 95 65 62 72 52 46 42 37 40 38 33 21 25 28 26 26 28 33 36
78 98 100 99 88 94 96 96 96 76 79 61 50 35 35 45 40 54 64 41 44 38 59 53 48 46 52 44 62 79 65 46 45 49 40 36 30 26 27 30 30 28 30 33 36
87 77 72 96 96 93 91 90 93 93 80 62 69 44 42 46 46 54 52 48 46 46 46 51 49 37 32 32 41 48 51 52 51 44 42 33 32 25 22 25 27 28 30 34 37
85 56 72 83 74 88 93 94 94 86 61 87 86 49 43 41 39 57 48 54 55 54 55 48 53 40 44 39 35 38 38 40 43 42 40 34 33 22 21 20 25 27 29 32 36
90 70 59 54 57 79 89 89 85 79 72 72 74 55 49 38 32 38 42 40 44 52 57 57 55 46 46 38 43 50 38 36 37 34 34 38 31 25 26 26 27 27 29 30 31

GFSSW_925_rhum_018.txt.gz
RH
92 90 91 92 91 90 91 95 90 87 91 94 96 94 94 91 96 94 76 56 61 54 42 54 47 44 52 55 46 36 56 52 42 38 32 21 22 20 19 24 22 20 18 22 23
93 92 90 92 92 92 93 92 95 92 86 87 86 87 92 90 90 82 70 66 71 59 62 45 42 36 50 54 52 51 60 49 31 28 27 23 23 23 27 28 26 23 18 16 17
94 93 91 91 90 92 93 96 93 89 93 85 86 89 85 85 80 66 64 70 73 79 72 55 44 48 61 52 52 51 61 40 30 25 24 25 28 24 28 34 28 27 27 25 22
93 92 92 90 92 93 93 93 94 93 88 94 89 78 80 82 81 63 60 58 69 73 72 59 45 56 69 63 46 54 43 39 36 29 27 31 28 31 29 30 27 26 25 26 25
91 94 94 93 93 94 88 89 92 91 96 91 88 83 83 74 60 54 53 50 59 70 68 58 54 48 63 50 52 56 49 37 31 31 30 28 34 35 33 27 25 25 25 27 26
92 94 96 91 95 94 88 89 92 94 88 86 91 85 85 80 45 48 52 51 47 48 59 56 51 40 44 46 50 47 49 47 38 31 30 33 34 33 32 26 27 26 27 24 24
94 92 92 84 89 95 90 92 92 93 94 91 92 89 72 61 42 42 43 44 45 42 39 44 44 49 41 47 42 40 55 47 46 36 35 32 39 38 30 28 28 27 25 20 23
94 92 85 93 82 89 82 81 89 89 92 94 92 80 77 56 55 52 44 44 43 41 40 38 44 50 54 61 63 66 54 73 49 40 36 37 51 36 28 28 28 26 18 25 28
87 91 85 86 86 83 76 66 68 86 94 91 83 72 66 51 56 51 48 43 39 38 39 39 40 62 57 75 84 71 78 66 62 41 38 38 46 34 29 27 26 23 20 26 31
77 91 91 81 86 81 81 72 77 84 97 80 67 69 57 51 48 50 48 46 42 39 44 47 54 80 80 82 88 78 80 64 68 50 44 46 40 36 30 26 25 24 21 27 32
75 74 91 78 82 88 92 81 90 93 94 72 64 54 42 43 45 45 46 44 44 49 64 53 74 87 79 71 67 58 58 66 49 39 45 43 38 36 31 30 31 29 24 28 34
75 74 87 77 79 85 94 89 75 77 91 78 66 57 47 46 52 46 44 54 60 73 57 64 83 58 51 56 66 69 73 69 53 40 39 41 41 35 31 29 28 28 27 28 38
84 73 86 77 86 90 97 88 83 80 98 86 76 66 58 50 61 51 46 51 57 66 60 72 61 53 49 55 64 60 83 74 79 49 36 41 46 39 31 27 27 27 26 29 36
90 80 82 85 89 81 78 81 88 90 100 92 92 78 66 72 89 54 43 50 56 61 55 58 47 48 59 60 56 72 55 68 67 85 78 42 66 42 35 34 31 32 26 34 35
90 89 84 78 79 80 97 97 98 88 97 78 86 63 65 88 70 66 51 63 66 57 50 76 62 62 72 74 68 72 61 75 77 87 75 62 62 47 32 38 34 29 28 35 36
93 95 85 89 81 95 89 97 81 99 94 88 82 92 92 89 80 69 61 56 54 63 53 59 54 60 58 64 68 63 70 91 89 78 92 62 62 49 37 32 30 28 32 36 36
94 98 87 89 79 96 94 89 99 99 66 96 95 85 77 95 93 89 84 73 78 95 93 73 93 68 68 83 67 72 84 100 100 99 79 44 53 45 24 24 25 28 35 37 40
95 99 96 86 87 89 85 96 99 58 76 89 93 93 99 92 93 94 93 83 63 73 86 84 80 87 72 85 85 80 97 100 96 92 61 39 54 42 27 24 28 30 35 38 42
96 100 100 98 98 95 92 99 86 84 90 96 97 100 100 83 67 73 72 86 79 63 97 98 95 70 55 68 81 87 99 83 70 38 52 50 35 28 29 29 31 35 37 41 43
100 100 100 100 100 98 99 96 88 77 86 92 99 90 82 73 79 62 59 52 54 52 59 87 99 80 77 74 82 97 75 95 69 59 65 54 47 43 37 37 30 38 41 43 44
98 99 82 100 100 98 98 93 93 79 83 95 95 91 59 58 80 58 59 49 48 50 70 91 99 96 96 92 92 95 96 86 57 49 60 59 46 33 32 32 34 35 38 42 44
97 99 97 100 98 97 97 94 88 86 83 86 90 84 68 48 62 56 57 46 43 43 86 88 100 100 96 79 67 81 75 65 58 58 56 50 45 28 31 29 32 32 37 41 43
97 96 100 94 98 98 93 96 91 91 88 91 92 71 43 40 63 57 55 42 38 56 73 91 99 100 100 95 89 90 75 68 66 53 58 49 47 31 36 33 27 35 40 42 45
96 95 100 100 90 88 97 99 97 86 88 80 73 52 42 39 41 59 53 45 46 46 81 80 78 99 100 72 81 85 81 72 66 66 52 45 40 37 39 38 34 36 41 44 45
97 91 79 98 96 96 94 94 98 98 82 71 68 59 51 46 47 50 52 51 51 46 64 82 94 92 89 62 61 65 68 64 59 54 54 40 37 33 37 41 38 37 42 45 46
97 85 83 83 72 87 94 95 96 90 84 79 80 62 57 43 42 49 47 57 60 52 50 68 82 62 48 48 55 65 60 60 55 49 48 49 47 26 28 34 37 40 41 43 45
97 83 79 65 75 89 92 91 90 88 82 76 67 67 67 43 37 41 39 46 58 51 59 64 66 61 55 41 46 54 53 52 50 48 47 56 43 31 30 32 36 38 40 43 46

GFSSW_925_rhum_021.txt.gz
RH
93 93 92 94 92 92 93 93 96 92 86 89 99 97 97 96 96 98 87 61 63 59 52 43 43 45 45 64 61 54 75 74 62 51 41 32 24 20 20 24 24 22 21 25 31
94 94 93 93 93 93 92 96 95 94 88 85 89 90 97 95 92 95 65 62 71 72 61 57 56 48 57 64 71 74 84 67 45 41 38 32 28 24 26 30 29 28 25 24 33
94 95 94 93 91 93 94 93 95 95 89 89 82 89 88 89 83 78 61 76 77 76 71 70 64 54 68 57 72 68 79 56 44 38 34 32 30 26 30 33 31 31 29 26 24
93 94 94 94 91 94 92 93 94 94 92 87 84 80 85 85 87 63 57 60 65 73 79 72 66 61 73 83 60 82 62 56 50 44 42 38 30 32 32 34 29 31 30 28 29
95 92 94 94 95 93 83 81 90 92 87 90 90 83 83 87 83 56 50 48 55 67 78 75 76 64 69 67 63 68 59 52 46 44 40 37 39 37 35 32 29 29 28 31 32
97 95 94 90 90 90 87 80 79 87 83 76 89 89 89 93 53 48 54 51 50 67 73 71 72 59 59 56 56 50 52 51 51 50 43 40 39 37 36 32 32 31 32 32 31
93 96 86 85 83 85 89 95 90 90 82 72 84 92 88 76 49 47 48 50 49 46 45 51 59 65 55 61 53 65 66 53 51 52 53 44 45 42 35 33 35 32 34 30 27
85 93 82 75 91 78 90 89 93 90 81 81 72 90 92 57 53 52 50 44 44 44 42 42 40 55 60 55 62 73 71 77 53 50 47 46 63 43 36 37 39 35 36 30 32
79 87 85 69 81 84 83 77 74 72 93 86 78 86 88 50 64 56 50 49 44 42 41 40 41 61 64 74 86 85 90 83 67 50 52 49 57 42 37 37 35 37 36 34 37
82 84 89 87 72 88 83 75 72 80 88 92 80 79 68 57 53 56 52 52 48 46 48 52 60 79 89 84 88 69 88 83 82 56 54 60 56 46 39 38 37 39 30 36 39
86 84 84 92 73 88 89 84 89 92 95 84 76 61 44 47 46 51 52 51 51 58 69 62 84 88 82 77 67 72 79 82 66 53 59 57 56 49 42 35 41 36 33 39 44
81 87 80 92 73 85 94 88 77 78 93 80 76 64 49 46 58 51 47 65 67 78 72 76 87 65 63 68 79 77 87 86 67 58 61 56 58 45 40 38 37 37 38 46 50
82 88 82 88 81 90 92 85 83 80 94 81 79 82 69 57 66 62 52 58 69 80 78 83 65 55 60 66 75 79 87 80 73 62 60 68 67 52 41 35 34 35 33 41 46
83 88 85 89 91 88 97 78 89 87 100 85 88 79 70 66 81 51 46 53 65 79 74 76 59 59 69 72 64 80 58 60 61 75 86 69 87 64 46 40 37 36 41 43 48
82 90 87 73 72 86 86 76 88 95 95 78 84 63 66 82 72 71 54 60 83 69 76 81 66 68 67 64 60 68 56 64 62 77 84 85 96 69 45 42 36 34 45 45 46
84 92 90 72 85 91 83 89 77 95 94 91 82 87 86 86 75 68 66 62 74 91 83 73 54 58 58 51 57 61 69 69 78 81 97 84 95 68 53 40 36 34 44 45 46
93 96 95 90 86 91 83 81 93 99 59 94 90 83 81 82 88 81 91 95 99 99 100 93 81 72 73 85 72 81 85 92 93 95 89 65 85 75 37 34 36 36 44 44 50
94 99 97 94 82 83 74 96 98 66 78 83 84 75 93 75 90 88 96 100 90 98 88 96 93 81 74 76 79 89 78 80 90 78 68 77 97 63 38 32 31 37 41 46 58
99 100 100 96 92 80 90 99 84 72 80 95 96 100 98 91 81 83 87 99 80 80 90 97 93 68 60 59 60 86 95 59 95 96 83 90 52 32 34 41 43 46 46 52 60
100 100 100 95 94 92 98 97 84 77 87 93 100 95 93 83 95 98 92 69 73 62 60 83 94 60 68 78 69 72 59 90 100 98 98 75 53 50 41 45 46 48 49 54 58
99 99 99 98 100 98 98 100 79 66 79 95 97 97 97 87 79 78 66 55 54 60 59 76 99 83 76 98 82 94 99 75 83 86 85 78 59 38 38 38 46 48 48 53 57
98 95 100 100 98 97 100 84 77 84 85 90 91 94 95 82 84 77 64 56 46 46 76 85 100 98 86 85 62 63 84 72 86 94 74 60 51 36 38 37 41 46 48 52 53
96 98 100 84 98 99 91 91 84 93 93 95 93 86 76 73 90 71 58 51 58 60 81 91 99 96 100 95 81 88 83 87 95 90 67 61 52 40 40 39 39 48 50 52 55
97 98 99 99 93 90 95 98 98 88 92 87 83 75 78 74 61 68 62 52 53 54 71 78 98 99 98 92 86 89 85 90 98 89 66 62 52 45 40 40 45 49 49 53 54
95 94 83 98 98 92 88 92 99 99 91 85 92 82 80 68 55 61 63 54 53 62 80 88 100 99 95 90 85 76 79 82 84 72 69 48 45 47 44 42 45 49 52 54 55
98 96 87 89 81 96 96 97 97 93 92 90 89 68 73 79 55 60 62 59 63 71 83 86 99 91 77 71 79 83 77 65 68 55 53 51 51 31 41 44 46 53 51 52 54
97 91 82 91 85 93 88 88 92 89 84 77 79 74 77 70 54 56 61 45 60 63 64 76 87 91 70 73 73 88 70 68 62 53 50 57 47 38 43 42 44 54 49 52 54

GFSSW_925_rhum_024.txt.gz
RH
90 92 92 93 94 95 95 96 93 87 84 92 93 94 98 98 99 97 94 64 62 64 56 53 43 47 47 57 61 60 86 87 67 59 47 36 32 25 21 26 25 23 25 24 29
90 93 92 93 95 94 96 94 97 90 79 83 91 93 100 100 97 98 69 66 74 76 68 58 64 63 62 64 70 87 94 80 57 50 47 39 34 32 28 31 30 28 26 33 37
91 94 94 95 94 94 96 92 91 89 81 82 84 89 91 89 88 81 59 66 81 77 72 63 70 63 66 60 75 82 89 64 54 46 44 44 38 30 31 35 32 30 29 27 35
87 96 94 95 95 95 89 85 87 83 87 88 84 79 85 91 86 66 64 69 80 82 80 73 72 70 72 86 69 84 72 65 61 53 54 53 37 43 34 33 28 30 31 29 32
81 95 95 96 96 87 86 78 82 92 79 86 88 79 83 96 84 54 55 52 61 74 82 82 83 74 73 69 67 76 70 60 60 59 55 50 53 47 41 34 33 32 31 32 33
78 89 92 95 93 84 81 80 76 79 81 74 85 86 87 95 54 54 58 54 59 70 80 80 81 70 69 67 68 60 62 61 55 55 56 59 56 44 40 36 37 34 33 34 34
76 80 90 83 89 81 85 86 88 85 82 82 86 83 95 80 50 51 53 56 52 56 61 76 72 78 69 66 57 62 77 69 58 52 58 54 64 61 43 38 38 37 35 36 34
80 82 88 82 80 85 91 88 90 88 81 82 86 90 90 55 49 46 46 52 48 50 46 44 44 53 65 59 66 75 75 83 52 53 53 57 75 53 42 43 42 41 41 42 38
80 82 82 83 76 87 83 85 71 70 80 88 84 88 86 53 65 53 53 57 46 43 43 43 43 57 65 77 84 84 97 84 72 52 56 61 62 51 44 45 44 42 43 41 38
75 82 82 84 75 79 87 85 73 74 80 99 83 89 73 61 55 56 52 54 55 49 52 53 62 80 89 86 88 70 86 83 81 64 58 62 63 54 50 46 44 39 35 41 41
75 80 87 84 86 77 97 86 87 91 97 86 77 70 50 52 50 55 56 53 54 60 78 66 85 85 74 84 78 73 77 87 77 62 72 68 61 51 48 50 51 49 47 40 44
72 76 87 81 93 84 91 86 76 70 93 81 78 70 57 53 63 56 54 68 72 89 77 80 88 69 66 71 84 85 88 84 70 56 62 68 72 60 50 45 44 43 44 40 50
75 73 84 79 96 96 92 80 80 76 95 80 82 84 76 64 71 65 57 65 75 84 80 88 64 58 68 75 84 87 91 79 77 67 56 57 61 60 52 50 43 39 38 43 48
80 77 87 89 95 97 90 84 86 78 97 85 88 77 74 72 83 54 50 56 72 81 74 74 65 64 72 77 74 90 69 73 74 75 90 70 80 62 55 52 48 42 44 46 48
81 83 90 87 70 93 74 81 87 89 87 68 84 64 69 77 71 71 51 59 91 81 83 92 80 77 76 72 60 74 56 63 71 82 80 72 86 68 57 57 50 43 39 43 50
94 92 95 87 79 76 74 77 90 90 94 92 78 90 88 86 75 70 66 61 80 88 75 74 60 62 63 54 59 65 69 70 73 84 92 65 78 68 66 59 46 42 43 44 51
96 100 100 89 93 80 86 86 97 95 61 94 89 87 83 85 81 81 90 95 99 99 98 99 96 73 67 68 63 63 79 92 100 96 80 51 72 60 58 54 42 38 46 52 51
89 100 100 86 79 83 79 87 93 66 81 73 73 79 86 71 81 81 88 97 93 99 100 98 97 96 75 67 76 79 77 91 91 97 62 67 81 63 50 40 36 39 41 52 60
86 100 100 92 83 86 86 99 86 71 75 76 79 90 88 82 82 86 89 86 77 93 95 96 94 66 64 62 60 88 94 61 79 76 96 86 77 57 54 44 45 46 53 58 65
100 99 98 89 89 85 95 97 79 78 81 81 90 93 91 86 98 89 84 69 69 75 71 76 97 75 69 70 69 70 64 93 94 98 83 78 91 62 50 48 56 56 58 64 70
99 98 100 96 93 96 99 96 80 77 76 86 95 98 96 90 86 87 86 67 72 72 75 77 88 89 85 97 75 94 98 85 66 78 95 78 76 43 38 42 57 60 63 68 73
99 100 100 100 98 98 100 82 66 79 78 87 91 95 95 91 92 89 84 60 56 60 84 67 96 95 76 58 71 94 83 79 78 71 96 98 71 39 42 45 48 55 58 64 68
98 98 100 82 98 100 90 77 80 85 87 94 95 88 84 93 96 83 71 51 55 58 77 92 100 97 86 86 83 100 78 92 64 74 71 99 72 45 50 51 52 56 62 64 70
97 98 100 99 93 92 96 95 96 84 86 89 92 83 84 82 78 78 69 53 56 54 77 86 99 92 94 99 87 88 81 70 84 96 73 89 74 46 48 48 60 61 62 64 69
98 95 83 89 98 85 83 93 96 97 91 88 94 85 86 83 82 85 68 59 65 65 81 92 100 99 95 90 97 83 76 80 98 84 98 74 63 58 45 46 57 58 62 64 69
98 97 86 87 86 90 93 97 96 95 94 96 98 80 80 94 66 64 58 61 75 82 91 89 100 100 98 90 95 98 90 81 93 92 97 93 59 37 46 53 65 63 61 63 66
94 88 80 89 87 96 96 93 92 82 83 84 87 88 85 82 66 61 58 53 59 78 80 93 100 100 100 85 90 100 90 96 92 88 91 76 44 44 45 46 63 65 56 59 62

GFSSW_925_rhum_027.txt.gz
RH
78 91 92 92 93 92 95 96 97 96 91 93 97 97 95 95 95 100 97 68 61 59 61 56 49 53 51 58 64 64 87 89 70 64 50 37 36 31 25 25 26 25 32 27 33
71 86 92 92 93 90 95 96 93 93 88 88 88 86 99 99 100 100 73 70 77 80 76 61 61 63 64 65 70 88 95 76 61 55 50 40 38 36 33 35 31 29 30 41 46
82 77 92 92 94 95 95 96 93 90 88 89 78 82 92 95 86 78 60 87 80 82 77 64 69 65 67 63 79 87 87 64 61 53 48 50 44 37 36 39 35 32 31 36 43
87 80 94 93 95 94 96 94 90 86 90 88 81 73 93 90 88 64 71 78 81 86 81 76 75 74 74 88 72 82 73 72 65 57 60 61 46 46 41 37 32 33 32 30 35
82 80 88 96 94 95 96 82 84 94 81 87 83 80 89 87 81 54 62 61 78 87 88 83 84 75 76 72 70 81 74 66 63 67 66 62 66 62 53 43 37 36 36 37 36
74 77 79 91 95 88 94 88 81 89 83 74 82 88 87 89 50 54 61 57 63 81 88 84 85 76 78 71 70 63 64 66 59 61 61 64 63 58 52 41 41 40 38 37 36
79 82 80 86 90 83 90 92 91 90 82 75 79 90 93 79 52 55 53 54 56 69 80 83 79 81 76 78 60 64 78 70 68 58 59 53 61 63 54 54 50 44 41 38 37
74 80 84 83 86 83 93 94 92 93 84 83 84 89 88 54 56 52 56 49 50 53 54 48 70 54 62 59 68 76 78 88 56 62 57 55 67 54 49 52 52 47 46 43 42
77 74 79 82 81 72 80 95 85 75 81 90 86 84 80 51 65 47 52 51 49 48 46 45 45 57 62 80 78 84 96 88 71 57 55 67 63 50 50 54 54 51 48 45 44
83 76 77 81 78 67 86 93 82 74 82 97 81 90 75 61 58 56 58 54 55 51 51 53 64 77 88 88 86 76 98 84 82 62 66 70 66 54 53 55 59 54 51 46 46
93 77 80 82 76 70 96 85 87 90 99 85 76 74 54 55 54 59 59 58 57 62 78 68 84 88 80 85 82 88 86 84 79 64 72 75 72 65 58 55 51 59 54 48 49
100 84 82 83 81 83 96 88 74 68 94 82 84 70 61 62 68 56 56 66 74 91 80 82 89 75 66 70 79 89 96 86 75 64 64 69 69 56 50 49 55 51 51 47 45
92 90 84 86 90 99 95 78 76 74 91 77 83 84 77 69 73 69 59 69 80 93 91 88 65 61 69 76 84 86 87 69 71 60 63 72 64 45 38 42 49 51 45 43 47
93 97 89 84 98 99 93 78 80 74 94 78 90 82 78 72 84 56 55 63 72 88 85 86 70 70 72 78 79 88 72 76 80 86 88 70 81 51 46 46 45 47 49 47 50
84 94 92 100 95 96 80 81 83 68 85 70 85 68 71 78 69 72 55 58 78 86 85 88 94 82 78 72 67 73 61 77 78 85 87 75 95 67 51 48 47 59 51 51 50
96 86 97 99 84 82 76 86 82 88 94 88 82 87 90 83 76 69 69 60 74 86 77 76 68 73 75 60 62 62 69 74 76 88 97 67 80 56 40 42 55 54 53 51 48
88 89 100 88 90 75 84 88 98 93 62 90 82 87 72 80 81 80 89 94 96 98 98 98 96 80 69 75 62 68 91 97 97 96 83 56 71 55 41 49 53 51 49 50 55
91 95 99 88 79 80 79 91 97 70 89 67 75 90 89 82 83 81 85 87 85 98 100 98 99 95 86 71 78 86 87 95 90 92 84 49 71 49 39 32 29 28 37 49 60
92 99 97 100 81 84 79 98 83 71 77 72 72 84 85 67 74 88 91 79 76 74 98 98 95 84 83 66 74 99 98 72 87 68 89 80 67 56 36 55 56 50 51 60 65
98 95 91 99 86 82 94 88 77 72 71 67 91 78 80 76 91 91 84 69 76 71 67 80 96 76 79 68 76 83 65 95 98 96 91 60 68 73 52 40 30 42 55 61 67
98 96 97 98 90 94 98 93 78 80 72 85 84 97 84 89 87 82 80 72 68 72 71 71 87 84 88 92 87 93 96 90 75 84 90 75 48 29 42 37 39 58 68 71 75
92 98 100 100 97 98 100 84 68 87 76 82 78 82 90 83 96 84 94 74 65 72 93 72 92 97 74 70 59 63 71 77 81 88 76 71 65 45 52 49 49 66 73 79 79
94 94 100 88 98 99 93 80 76 89 83 89 94 85 78 91 100 93 80 59 66 70 84 80 99 97 95 84 82 100 95 86 71 70 80 83 54 52 40 60 56 74 75 83 82
96 100 99 95 90 82 89 87 92 80 82 84 93 88 94 94 90 86 84 58 58 59 66 74 100 96 89 84 99 99 94 93 96 95 76 69 51 37 32 49 68 72 79 85 82
98 96 91 98 98 87 77 92 91 96 82 85 95 95 95 97 76 86 82 74 64 63 81 91 100 99 93 81 80 100 98 91 97 78 86 56 54 45 46 64 65 69 76 81 81
97 96 89 84 84 86 86 95 93 81 92 97 99 84 90 96 70 79 74 70 67 77 90 94 100 100 96 85 94 96 96 87 80 76 78 76 75 45 61 58 68 70 72 77 79
96 91 79 84 88 92 94 90 86 82 84 79 89 96 92 80 68 64 67 62 63 79 94 98 100 100 93 96 95 100 94 95 83 73 80 97 78 63 55 54 64 68 66 71 74

GFSSW_925_rhum_030.txt.gz
RH
97 73 76 90 90 93 96 96 96 96 95 92 94 96 90 92 95 100 96 70 62 60 63 62 52 53 53 61 68 67 87 93 74 66 54 39 38 34 30 27 30 27 33 28 35
95 97 67 85 90 93 96 96 96 96 94 88 80 95 92 91 100 100 75 75 89 83 75 65 61 61 65 65 74 88 97 79 65 58 50 44 43 39 38 42 35 32 30 43 47
92 93 92 74 90 94 95 96 97 95 91 83 71 84 91 97 82 77 64 81 88 87 83 66 67 64 66 65 79 88 89 69 65 58 54 55 50 41 42 47 39 34 37 37 52
81 90 98 77 89 94 95 96 97 90 81 83 86 80 88 89 76 65 75 79 84 87 81 75 74 72 76 83 74 84 78 77 71 63 68 66 59 64 47 43 34 39 35 35 34
76 82 94 89 84 95 93 96 96 96 80 84 90 83 90 87 87 60 66 59 79 87 83 74 81 74 77 76 74 86 80 69 64 64 70 68 73 73 67 52 47 47 42 40 39
83 72 83 83 80 92 84 96 95 95 85 76 88 87 86 83 49 56 60 59 78 83 94 85 83 78 80 75 72 66 67 68 63 60 61 67 64 64 60 56 55 48 46 44 43
91 78 80 81 81 85 80 93 94 94 80 82 88 90 92 77 55 58 52 56 56 81 94 86 81 77 80 82 65 68 82 75 71 65 62 58 68 69 50 56 58 56 54 47 43
94 89 74 81 81 86 88 93 90 91 82 85 93 90 81 53 55 57 57 52 51 56 55 51 80 75 59 57 65 75 80 93 62 65 59 60 71 51 46 53 61 61 60 53 45
96 95 88 84 85 79 78 83 92 82 83 90 92 81 77 51 63 51 53 49 49 52 52 48 51 58 61 75 78 78 83 86 75 57 61 73 69 56 52 56 65 65 61 54 48
88 98 97 83 87 80 75 88 96 74 81 93 83 82 70 61 58 62 59 49 53 52 54 54 64 78 81 84 91 74 72 62 74 65 69 75 74 60 57 56 55 60 60 59 54
89 87 91 89 89 82 93 91 87 89 98 79 82 75 58 57 57 62 63 58 58 62 78 70 85 94 86 79 67 77 93 90 75 66 76 75 69 58 51 59 64 60 55 60 56
92 86 87 93 94 85 94 84 73 64 93 80 80 79 64 65 68 62 59 69 74 88 80 84 94 76 68 73 83 85 87 77 70 65 71 71 68 56 52 52 52 58 56 56 54
98 96 93 97 100 100 89 77 67 68 86 77 85 84 80 70 75 72 62 70 80 93 93 90 67 65 73 80 85 88 91 84 78 62 63 70 66 44 35 38 40 39 41 46 53
88 94 99 98 100 100 91 76 72 57 92 77 93 86 82 74 80 60 59 67 79 92 90 93 72 72 78 83 82 89 74 76 80 88 92 72 82 51 41 41 41 39 44 53 53
92 92 95 93 100 95 88 81 71 52 98 74 92 71 74 74 69 75 58 62 79 87 84 83 90 92 90 76 74 76 69 79 83 95 98 85 92 66 48 48 44 50 58 53 50
97 94 98 86 100 90 84 73 68 86 98 91 84 89 90 83 74 70 71 61 72 77 78 74 73 75 77 65 62 64 74 76 92 97 95 69 82 58 44 36 33 48 49 51 54
98 94 98 86 98 90 78 83 95 96 66 87 87 79 76 82 75 78 87 95 97 99 98 92 92 77 72 82 69 82 100 97 98 97 86 64 79 55 38 34 41 43 51 59 59
87 92 86 82 100 97 86 87 94 70 88 69 78 76 79 68 74 84 85 93 85 89 100 97 90 87 79 73 79 82 88 95 92 86 85 59 76 49 39 35 31 32 38 47 55
89 82 92 86 100 89 87 97 82 73 77 81 81 82 93 78 74 83 87 88 64 81 98 99 93 82 83 73 64 98 98 72 97 96 96 80 67 52 46 44 48 51 38 35 52
97 92 90 95 95 86 90 85 73 64 70 70 85 78 77 76 85 90 84 76 74 74 63 80 95 78 80 82 75 81 79 97 98 96 94 76 68 56 45 30 30 38 33 53 65
100 94 96 95 90 96 97 85 76 77 66 78 82 86 75 82 78 82 81 71 72 76 68 76 92 84 86 97 84 97 96 100 89 95 92 72 51 32 29 26 43 50 38 50 75
91 98 99 97 99 98 97 84 73 85 78 84 73 86 84 80 90 88 87 75 65 77 86 70 95 96 76 63 62 68 77 78 84 88 86 82 55 32 43 55 58 61 64 73 79
94 94 100 79 99 100 90 86 80 91 87 85 82 78 77 86 99 91 84 66 70 78 87 77 98 98 88 84 68 99 86 72 69 63 82 88 54 31 31 35 61 74 86 91 88
94 99 99 95 93 87 88 89 97 79 81 79 80 77 88 96 91 96 90 68 69 70 66 69 95 88 84 70 99 100 88 96 98 96 80 87 59 44 40 39 50 72 89 93 90
94 98 91 99 99 78 75 82 85 94 80 81 83 82 93 100 96 97 87 78 67 64 77 83 100 97 92 80 91 100 99 96 98 89 97 64 61 49 40 49 64 74 92 94 88
96 96 96 82 86 78 85 92 94 81 86 91 97 87 93 98 74 76 69 78 76 78 88 90 99 100 97 86 99 97 94 98 96 92 96 78 77 59 61 68 67 85 91 92 88
88 96 87 87 85 89 93 87 85 81 84 74 86 96 97 92 79 73 61 68 71 78 95 98 100 100 89 90 100 100 98 96 95 94 88 97 68 55 76 78 66 82 81 84 81

GFSSW_925_rhum_033.txt.gz
RH
89 90 97 81 73 90 93 92 96 96 96 93 84 88 95 88 98 100 96 68 64 70 72 63 52 52 54 61 70 65 79 79 66 61 48 40 39 34 32 30 33 28 29 36 44
87 83 98 95 75 79 94 96 93 96 96 91 87 88 90 88 99 99 79 73 66 84 72 65 62 58 62 67 74 80 91 75 63 54 49 45 45 43 38 40 37 32 30 40 53
94 96 86 96 96 74 93 96 91 86 94 94 87 82 90 92 81 76 77 93 79 80 87 71 65 60 65 67 76 85 90 69 64 57 58 60 56 44 44 50 40 35 33 34 48
99 93 94 93 92 82 87 95 96 92 93 89 88 71 82 82 94 71 81 78 81 85 83 72 70 69 74 76 71 83 78 79 71 64 67 68 62 66 56 47 36 37 39 38 36
97 96 91 86 90 95 75 87 93 94 93 83 88 78 83 84 86 66 64 61 80 88 79 74 76 71 73 75 76 86 78 69 65 60 60 64 68 65 66 55 48 47 48 44 40
91 98 97 86 91 83 91 74 91 94 89 78 85 86 80 80 52 54 61 62 84 82 84 74 73 71 74 75 70 68 68 67 64 60 58 62 57 64 54 53 54 54 49 44 41
84 95 96 89 88 88 90 75 82 89 83 83 85 87 90 75 55 58 55 58 73 80 89 83 73 75 77 84 69 70 79 71 68 64 63 56 64 68 48 47 46 48 50 49 46
73 88 97 93 90 90 88 93 73 89 88 88 86 86 73 55 59 53 57 53 54 59 69 77 83 80 70 59 64 74 74 82 63 61 61 56 60 50 42 50 52 48 44 43 41
79 84 88 94 97 94 87 90 86 91 87 89 88 75 77 53 60 54 54 51 52 54 54 62 59 65 67 76 78 79 87 88 68 57 63 67 69 53 53 52 52 53 55 53 50
87 87 93 94 90 95 90 86 97 82 85 88 87 87 67 62 60 64 56 51 53 56 55 58 66 77 76 84 87 82 90 72 64 55 66 68 67 54 48 50 48 48 51 51 51
90 90 94 96 86 99 100 100 87 87 98 78 78 72 60 60 61 66 60 57 58 61 82 70 83 92 81 79 70 78 86 79 67 59 70 65 64 56 48 48 49 46 45 44 50
90 94 92 96 86 98 91 90 73 61 92 84 85 83 69 66 68 69 61 69 71 85 78 86 90 72 71 80 83 79 84 69 56 53 65 66 66 51 48 46 42 41 41 43 39
88 89 95 92 99 94 94 75 59 50 75 75 82 77 80 68 77 74 64 72 81 92 89 88 69 67 71 79 83 85 88 82 79 63 59 63 59 37 32 34 36 38 38 37 39
93 87 90 92 92 95 94 73 61 46 87 73 92 86 81 71 78 61 60 66 79 90 90 91 73 73 83 85 78 90 73 73 77 82 86 69 67 38 34 33 32 34 37 37 37
91 93 95 96 96 98 94 79 62 53 86 72 95 73 79 75 68 77 61 62 84 86 86 78 88 93 84 74 75 75 67 74 77 89 87 76 84 49 47 47 40 34 34 39 38
100 98 98 95 97 81 92 78 60 86 94 92 86 92 93 78 74 74 70 60 67 78 83 76 70 75 78 71 67 64 76 78 83 88 96 65 81 55 42 37 34 32 30 39 43
97 90 98 95 81 84 98 90 97 90 68 97 88 87 77 82 79 78 87 91 92 98 98 84 84 74 70 80 73 72 100 95 96 98 83 58 80 57 39 34 36 33 32 31 40
100 93 96 96 85 97 88 98 91 74 82 67 75 79 79 73 72 78 87 92 79 89 98 96 87 87 76 75 82 86 87 91 92 82 70 62 78 50 40 34 30 29 31 35 45
94 84 90 87 80 100 94 98 80 74 75 80 75 82 84 74 76 79 83 79 71 83 96 96 85 78 81 76 66 97 97 72 89 79 95 69 55 44 40 43 39 38 41 42 36
100 95 88 84 79 99 96 94 69 67 73 74 86 79 88 87 92 92 89 76 77 75 72 81 97 74 79 79 77 87 72 96 98 96 86 72 72 53 43 31 24 31 51 48 40
97 95 95 88 87 98 100 89 82 72 64 72 84 87 71 84 82 84 83 70 75 79 72 72 87 79 90 94 79 91 95 99 89 88 81 66 48 36 31 28 32 55 58 62 56
98 97 91 100 99 100 100 80 79 86 79 81 78 78 78 78 79 77 83 73 68 77 87 75 85 97 85 66 66 63 72 76 96 80 92 87 63 29 35 42 54 44 66 78 77
96 97 99 80 99 100 88 87 88 86 86 83 81 77 77 75 90 85 84 66 74 76 85 76 96 97 79 79 71 87 72 70 89 85 94 91 53 31 35 39 39 55 68 84 87
94 100 98 94 94 93 86 91 96 80 84 79 78 73 76 85 80 87 83 74 73 72 67 65 88 86 80 61 83 99 89 83 98 96 78 88 61 42 39 42 40 49 69 88 86
95 98 92 99 99 84 76 78 95 93 83 81 90 78 78 94 85 87 81 76 72 68 69 81 100 88 84 76 75 96 96 97 98 88 96 67 88 64 51 47 53 64 70 93 88
97 96 93 91 86 80 79 83 83 92 79 88 94 78 77 92 81 90 85 85 75 78 84 81 100 100 96 85 82 99 95 96 97 94 97 90 88 54 49 62 66 69 75 90 90
81 91 90 84 88 93 86 75 82 79 79 71 82 82 87 89 77 77 68 64 70 82 85 98 100 100 90 73 89 100 99 97 98 96 84 97 68 56 56 57 72 67 82 87 89

GFSSW_925_rhum_036.txt.gz
RH
98 96 95 93 85 92 86 92 92 96 95 95 96 96 95 94 95 100 82 66 69 72 66 59 50 46 47 41 52 48 39 35 32 31 27 29 28 20 24 25 24 20 21 28 36
98 99 96 95 97 92 86 88 91 97 91 92 94 92 95 92 97 98 75 71 77 82 63 50 46 43 42 44 48 46 44 34 29 30 31 29 30 30 30 26 24 24 24 29 40
93 99 99 97 91 91 93 89 84 90 87 86 83 79 88 97 80 72 83 90 78 87 68 58 52 44 46 48 49 48 48 35 44 39 43 41 41 35 32 32 26 24 22 27 30
84 93 98 98 96 93 91 96 84 83 87 78 80 71 81 82 74 70 83 81 86 88 73 63 51 52 52 51 46 57 47 47 44 47 51 50 41 44 37 30 23 29 29 32 30
80 84 96 97 95 92 88 97 94 76 88 76 78 75 84 68 55 72 61 62 78 82 73 62 57 52 54 50 54 54 43 45 43 49 44 40 43 41 38 33 32 33 34 33 31
77 74 89 96 95 84 97 90 96 83 84 78 77 81 67 62 60 64 61 66 76 80 67 62 57 53 55 53 56 50 53 50 48 47 44 48 42 38 35 29 29 29 30 30 29
79 83 76 90 98 91 92 82 96 88 76 75 75 87 75 50 57 61 57 60 73 75 78 77 66 62 55 61 53 53 61 47 43 42 45 42 47 43 32 29 30 28 26 26 25
88 90 87 87 92 97 92 92 94 89 81 76 79 81 57 56 65 58 58 55 67 73 72 80 77 65 53 50 50 53 52 52 43 46 43 46 41 28 28 31 35 31 27 25 25
81 86 91 90 95 91 98 100 88 88 94 94 82 64 63 57 58 52 54 52 55 55 53 68 58 59 57 65 60 53 53 55 50 40 45 49 47 37 38 34 37 33 32 32 31
86 89 93 94 95 96 95 100 94 92 96 95 79 79 62 55 55 62 58 50 50 49 54 57 53 57 52 58 55 45 54 48 49 40 44 45 46 39 35 34 36 34 32 31 32
90 90 93 87 94 93 92 100 94 90 77 58 65 60 55 58 62 60 53 49 47 53 65 59 69 70 54 51 45 53 54 55 46 42 45 46 44 38 33 33 33 30 29 28 27
85 84 89 89 93 94 98 98 69 57 82 64 67 62 64 60 62 59 54 52 53 64 60 69 76 49 48 52 59 59 61 58 46 40 44 43 41 32 29 29 27 26 23 21 20
86 86 89 92 90 93 95 88 65 50 59 74 67 64 65 60 60 64 50 54 55 66 64 63 54 52 60 62 68 64 64 55 54 45 42 43 41 27 20 20 21 23 23 22 20
92 91 92 97 88 81 85 72 86 58 89 78 81 65 64 58 64 52 49 51 63 61 65 63 48 57 63 63 58 62 45 54 54 59 62 50 52 33 26 24 21 20 20 21 22
89 99 98 98 76 85 81 73 90 65 94 69 85 65 57 57 62 74 54 52 64 65 66 65 69 74 67 60 54 60 51 54 56 61 63 58 85 37 30 31 26 22 20 18 20
99 96 99 95 92 85 98 96 90 96 85 90 83 92 88 62 63 70 67 56 50 62 67 52 55 58 54 52 52 54 62 62 60 73 90 52 66 41 26 24 23 20 19 17 18
97 99 99 85 77 86 87 90 98 96 63 92 82 87 73 75 77 70 85 85 83 97 94 65 63 57 58 66 60 64 89 75 85 93 67 34 42 43 24 24 24 20 18 19 18
89 98 93 82 88 86 98 98 95 69 68 63 69 74 79 70 71 73 81 89 64 64 77 79 75 65 67 68 62 79 74 69 68 44 40 43 54 31 22 22 21 20 21 22 21
91 97 94 92 87 76 97 98 84 59 63 68 70 78 79 67 65 72 75 70 62 65 87 84 78 59 61 58 56 82 96 58 80 66 76 47 31 24 21 23 23 22 21 25 27
100 92 83 80 94 91 98 99 62 60 58 56 72 63 76 73 76 70 68 55 56 54 52 67 88 57 65 65 63 66 53 88 92 78 61 39 36 33 25 25 23 22 24 29 30
99 90 85 80 87 94 100 94 75 56 53 60 65 70 63 72 68 69 63 57 56 59 56 63 70 68 74 83 68 82 92 94 63 61 70 52 34 20 22 20 21 19 28 29 36
96 100 86 86 98 99 100 75 64 68 65 67 60 58 60 64 68 65 62 58 52 59 71 55 71 83 63 43 44 43 55 61 89 70 79 73 58 27 23 21 28 29 25 31 42
94 98 99 88 96 98 96 85 74 69 71 66 70 63 59 61 73 61 67 58 57 60 59 58 85 84 51 69 56 74 58 52 67 76 93 93 58 35 28 28 27 27 26 30 46
94 100 97 89 89 81 96 92 86 74 72 66 66 59 64 71 64 75 73 63 59 55 56 56 67 68 58 53 63 99 78 76 96 96 74 77 59 40 42 38 31 30 30 40 54
94 95 82 100 97 74 65 73 78 80 71 63 71 66 65 75 78 92 72 64 65 64 62 64 97 72 67 60 63 80 87 93 99 93 94 62 63 62 49 55 42 37 45 53 65
99 92 87 80 74 77 75 72 71 79 70 77 70 69 66 76 69 75 69 70 71 66 72 71 95 100 96 71 76 99 92 96 97 96 97 91 86 49 43 42 42 39 44 60 73
84 88 89 91 75 75 68 66 65 65 67 60 63 68 72 67 61 63 68 62 59 64 69 79 98 98 94 76 78 94 97 96 95 93 86 97 64 45 48 50 52 64 66 65 71

GFSSW_925_rhum_039.txt.gz
RH
95 97 99 98 97 96 93 94 90 96 94 95 96 95 89 94 94 95 82 63 59 63 60 52 45 40 38 35 35 37 42 35 27 20 20 16 20 17 16 18 17 15 15 24 28
87 90 96 100 97 95 96 94 93 96 96 95 94 93 80 97 91 84 71 70 70 75 65 47 41 38 38 36 38 45 41 29 17 16 19 19 22 19 20 22 18 19 18 24 30
83 84 88 98 100 96 94 96 96 95 96 89 83 78 78 93 79 67 73 79 85 80 58 44 37 37 40 36 38 40 44 24 21 29 28 27 23 23 25 27 17 17 18 20 25
78 80 76 87 99 99 95 99 96 95 95 78 78 76 74 80 79 69 82 85 88 84 63 49 42 44 42 45 36 44 34 30 28 32 39 41 30 29 26 26 18 18 22 24 25
75 81 80 79 90 99 97 100 97 95 96 75 76 75 76 61 54 73 65 62 75 82 70 51 49 43 47 38 36 44 38 30 32 35 37 37 37 34 32 26 23 23 23 27 26
68 77 86 87 82 94 98 92 98 96 96 76 70 72 64 62 52 56 55 57 55 65 72 59 54 41 44 40 44 37 38 36 35 36 36 40 36 32 28 23 23 24 25 24 25
69 70 87 92 87 89 97 95 97 97 96 82 67 77 59 43 44 52 54 54 61 61 56 61 55 50 50 53 42 45 52 42 38 36 37 35 42 39 28 25 25 23 21 20 20
64 75 82 90 92 91 94 99 99 94 95 93 67 64 55 55 51 54 50 55 60 63 64 69 64 56 59 46 45 48 45 51 30 34 32 36 44 22 20 24 25 23 22 21 19
70 77 86 90 92 94 96 99 99 88 95 93 74 58 54 54 48 44 46 48 50 55 61 70 68 67 61 58 50 44 48 41 33 31 34 41 43 25 30 29 25 24 24 22 20
77 84 86 84 80 91 95 98 97 97 93 81 66 68 54 51 47 46 47 48 46 46 56 56 54 59 56 56 56 42 42 38 37 30 37 39 37 29 25 27 29 28 26 25 23
83 84 81 84 90 89 94 94 99 99 88 64 63 49 51 49 50 46 48 48 45 48 55 50 57 58 44 40 38 36 43 40 32 30 37 37 34 29 25 25 27 26 26 24 23
71 87 90 86 89 90 90 92 89 87 88 56 53 52 49 47 56 46 44 49 55 69 52 67 74 43 37 39 43 47 49 45 36 32 36 36 35 27 24 23 22 22 22 22 20
71 90 97 93 95 92 75 82 80 99 86 69 54 54 58 52 49 56 44 42 49 54 55 62 46 42 44 50 55 51 51 45 44 37 34 36 36 25 20 19 19 19 19 19 18
78 93 94 78 97 82 68 73 87 100 100 86 77 59 59 50 60 43 42 42 48 48 49 51 39 47 48 54 48 55 37 40 44 51 52 40 51 30 21 20 18 18 17 17 18
78 89 95 100 99 66 69 74 92 94 97 72 70 48 51 52 54 58 42 48 50 48 52 59 55 53 56 49 42 49 45 48 49 54 59 51 60 36 19 22 22 19 18 16 16
79 88 98 96 90 74 76 96 87 99 97 87 84 76 69 50 58 58 57 49 42 48 52 47 43 48 47 44 43 47 51 57 56 65 86 46 44 34 21 15 14 15 16 16 15
83 92 98 99 70 81 84 86 98 97 61 93 80 75 68 64 66 70 76 78 73 93 85 61 53 48 45 56 50 53 73 72 83 88 65 27 32 32 20 18 18 18 16 16 15
92 81 90 83 73 92 91 96 98 77 65 52 68 69 76 65 66 62 68 80 56 54 64 74 76 53 55 61 58 60 65 66 61 37 34 29 42 28 17 16 17 17 16 16 17
86 94 88 83 90 66 96 96 94 56 58 63 70 91 83 59 60 66 66 65 55 53 76 69 71 47 52 49 49 64 86 54 70 55 63 39 26 21 18 17 16 16 17 19 17
99 93 75 78 90 88 98 100 60 48 51 54 69 57 74 71 69 65 71 49 54 45 42 63 79 49 52 50 51 55 47 80 90 82 59 33 29 26 21 19 17 18 17 18 22
100 97 86 90 83 94 99 94 63 46 44 50 55 57 55 64 58 63 61 51 44 45 46 57 62 64 60 72 62 68 76 67 54 60 62 52 35 23 28 27 23 18 16 20 22
92 99 99 72 98 99 100 84 54 54 55 53 44 45 51 52 60 56 54 48 42 44 59 52 67 80 56 39 38 42 58 58 86 59 62 78 61 29 29 27 26 27 24 21 22
96 96 98 97 99 100 94 80 58 62 58 55 59 47 45 52 63 53 51 50 46 50 51 52 77 78 63 57 42 56 50 47 56 80 95 93 58 30 28 30 35 35 31 22 24
95 100 87 75 77 75 96 82 72 63 59 51 54 46 50 54 51 57 58 58 50 48 62 48 61 67 59 62 52 89 60 57 96 97 71 70 58 44 39 42 54 40 36 34 29
90 94 80 94 73 58 63 69 72 64 57 52 58 52 52 62 62 66 56 61 60 57 55 56 80 60 56 51 54 65 71 73 97 96 98 80 80 63 53 46 51 52 45 39 35
98 96 82 65 59 55 64 67 80 66 53 59 55 55 52 55 54 63 63 64 64 63 66 68 87 96 89 63 61 83 66 73 96 96 97 95 94 60 44 42 44 44 40 37 47
86 84 94 78 59 67 60 55 55 53 57 52 52 56 61 56 51 52 59 54 51 70 71 73 96 94 84 62 62 86 89 91 90 81 89 93 62 45 48 52 64 71 72 64 61

GFSSW_925_rhum_042.txt.gz
RH
85 88 90 92 98 99 93 98 90 93 94 96 95 97 92 88 94 93 81 71 71 64 50 62 50 43 37 42 36 36 56 53 43 34 27 17 19 17 16 20 17 16 17 28 36
69 81 84 86 90 99 99 95 98 96 95 96 96 95 80 88 99 77 70 66 70 72 56 48 46 41 45 43 41 53 64 52 30 25 25 19 19 20 21 22 23 21 20 27 29
65 69 79 83 78 89 100 99 99 96 96 96 95 83 70 86 82 63 67 70 79 72 70 52 40 38 50 42 41 47 58 34 28 22 33 35 32 21 27 29 23 22 20 25 30
68 62 69 77 82 84 91 99 99 88 97 96 91 71 68 88 84 74 65 72 80 82 68 55 42 46 52 51 38 47 38 36 34 29 36 40 34 36 29 30 25 24 22 25 27
68 66 70 74 88 87 87 95 100 95 97 96 74 75 72 76 65 71 68 79 85 77 73 59 50 47 50 40 38 42 39 33 31 34 35 37 43 43 39 30 26 26 26 26 28
73 71 64 76 84 90 87 92 100 99 94 96 68 77 80 70 50 58 54 54 61 72 76 65 47 42 49 44 40 36 38 38 34 33 36 38 39 40 33 27 28 28 29 28 29
74 72 73 73 79 89 90 89 99 98 96 96 72 82 60 55 40 52 51 50 52 54 73 68 55 53 47 53 47 41 55 47 43 40 41 36 46 44 34 31 30 28 26 25 26
75 72 74 75 84 88 91 90 95 100 97 96 87 75 67 52 48 49 50 51 56 58 59 68 63 56 61 47 46 55 56 71 40 39 36 40 54 35 28 31 32 30 27 25 24
77 79 80 84 82 76 92 93 90 97 99 90 84 70 61 50 49 46 46 48 50 54 66 63 58 65 60 66 65 53 63 56 44 35 34 41 50 35 28 30 33 30 27 25 24
83 84 83 71 88 84 79 89 87 93 98 88 68 72 54 54 42 42 43 45 46 55 69 73 73 78 70 75 80 57 58 51 46 37 37 44 46 36 30 29 31 34 33 31 28
84 77 82 86 91 90 92 82 89 91 95 81 69 52 49 44 45 43 44 45 42 56 67 60 75 84 71 62 56 45 45 46 39 30 37 42 39 34 30 28 29 29 29 28 28
83 73 82 87 94 93 95 78 85 95 98 82 55 47 46 47 54 46 45 54 56 68 52 64 74 48 41 39 44 46 51 53 43 34 36 40 41 34 29 28 26 26 27 27 27
80 74 84 91 82 92 82 74 72 92 96 82 57 52 53 44 53 55 45 47 58 65 65 66 49 42 49 47 52 54 58 54 50 41 39 42 45 36 25 26 25 23 22 22 23
75 77 83 91 99 94 76 66 73 85 100 98 75 58 56 50 56 43 40 42 50 61 58 61 46 42 50 53 50 62 43 44 45 54 67 46 76 41 30 27 23 24 25 24 24
77 78 82 92 98 88 71 69 82 90 96 94 75 49 53 54 57 55 42 44 51 50 51 60 50 54 56 48 43 51 47 51 52 62 69 60 74 49 24 27 23 22 21 23 22
78 83 89 91 87 81 75 79 80 97 95 99 77 72 74 57 57 52 52 48 44 45 45 50 42 46 49 42 42 47 50 56 59 68 93 66 64 59 29 23 19 20 19 21 18
85 90 96 97 81 81 83 83 95 97 94 98 83 68 66 68 70 64 73 71 77 89 91 62 58 46 46 53 47 49 62 94 98 93 91 34 56 44 23 20 21 19 17 18 19
93 97 92 88 90 78 87 95 92 66 100 56 72 67 72 62 71 69 76 78 61 59 78 76 76 56 51 58 59 60 68 94 86 77 70 43 55 38 23 20 18 17 18 20 21
94 92 87 86 92 65 95 97 79 71 58 77 73 86 79 63 65 72 74 69 59 55 75 67 73 45 53 49 54 64 86 58 78 64 86 56 30 24 20 20 20 20 19 22 23
99 92 85 85 79 75 99 98 97 51 52 60 78 60 85 70 72 71 70 52 52 46 46 66 78 51 52 46 49 54 49 85 94 96 85 50 44 37 30 36 33 28 25 23 22
94 95 88 80 73 93 100 100 84 46 49 52 57 55 56 66 62 63 60 49 44 46 45 53 66 66 63 75 73 68 72 64 64 73 91 80 51 32 37 36 38 35 28 27 27
87 98 86 76 97 100 97 98 64 60 49 45 44 45 52 52 62 56 60 50 41 44 57 49 70 87 71 48 51 53 62 64 82 74 77 91 68 33 32 33 35 36 31 29 24
97 93 83 96 96 99 96 87 58 61 55 52 48 42 43 55 66 52 55 50 45 47 55 55 80 92 66 60 46 61 55 56 63 77 90 92 65 33 34 36 35 42 41 37 34
92 99 94 96 86 99 96 81 79 64 54 49 49 44 46 55 49 57 61 55 49 49 55 50 66 80 90 73 70 84 65 56 74 98 78 76 65 51 51 58 58 56 49 49 41
94 83 75 90 83 91 76 74 69 66 55 48 53 48 48 58 58 56 56 67 56 59 52 56 85 70 67 58 59 67 69 67 99 96 98 85 88 78 78 71 62 48 53 55 51
96 99 86 64 55 69 75 68 64 57 54 55 57 51 50 55 58 59 58 62 70 64 62 59 97 96 90 65 69 80 70 70 71 76 91 96 95 64 55 48 64 82 69 67 62
88 87 98 71 62 64 61 64 64 56 59 50 52 58 60 64 53 54 56 51 54 68 67 74 93 95 85 71 77 89 75 75 86 84 84 98 78 60 62 66 82 89 86 83 74

GFSSW_925_rhum_045.txt.gz
RH
69 68 69 84 88 86 91 100 98 99 97 95 96 96 95 96 90 88 94 74 70 78 55 64 56 51 47 46 42 40 67 73 59 50 40 28 24 18 17 20 20 19 28 37 43
70 67 66 66 82 85 84 94 98 99 99 96 95 96 96 91 96 95 73 70 76 74 76 59 62 52 58 50 50 59 74 67 44 40 36 31 35 28 21 21 22 21 32 34 42
66 67 71 61 78 79 83 89 92 99 99 98 91 96 93 89 94 73 54 74 77 74 69 54 54 49 60 52 53 53 77 53 49 38 34 41 38 35 30 30 25 23 26 36 41
75 69 70 70 71 79 86 85 91 94 100 96 84 96 88 94 88 72 74 73 74 81 68 69 65 57 62 64 50 59 49 47 44 39 38 43 43 45 39 32 33 28 25 27 38
76 73 73 75 71 69 79 88 88 95 98 93 89 96 90 85 77 63 69 72 82 78 79 74 75 56 60 55 50 53 48 41 40 40 35 36 44 45 46 39 34 32 32 28 31
78 77 74 73 74 72 78 86 88 95 96 98 88 94 97 93 56 57 65 76 80 76 80 76 60 50 53 54 51 40 43 45 43 45 41 41 42 39 39 34 35 32 31 32 33
81 81 77 80 74 77 82 84 89 90 95 100 83 95 78 72 44 54 52 54 58 70 80 70 66 54 56 56 51 48 55 54 51 47 48 40 51 51 41 40 40 38 35 30 31
80 87 82 84 84 84 88 87 88 91 96 99 88 90 87 52 47 50 51 50 57 58 63 69 70 59 60 50 49 56 58 78 55 46 45 46 59 43 39 42 41 38 35 35 30
83 86 84 81 84 86 84 82 89 85 85 100 96 90 71 53 52 44 50 52 57 65 68 75 86 78 64 65 71 62 78 76 64 42 45 51 56 41 36 37 41 39 36 34 30
86 86 84 83 79 95 94 88 58 88 88 99 76 88 70 58 49 46 48 49 55 71 82 80 79 88 86 82 95 75 76 64 60 43 43 50 56 46 39 38 38 38 42 40 34
84 82 83 87 91 79 92 77 88 94 92 82 78 65 56 48 45 45 43 47 60 73 90 87 90 97 88 80 68 64 61 57 48 39 40 48 51 46 39 39 36 34 38 33 32
76 80 79 81 86 96 89 90 74 94 91 75 73 63 48 44 55 49 44 54 65 87 62 68 78 65 64 66 71 67 58 61 51 39 42 46 44 37 35 34 32 31 34 33 29
82 83 80 83 87 87 97 80 81 72 96 88 86 64 55 50 59 59 52 53 62 71 65 78 53 50 57 58 53 56 62 62 61 51 45 52 51 44 37 33 30 28 27 27 29
85 83 82 85 84 90 89 74 84 78 100 98 90 69 55 54 65 46 48 51 59 63 64 63 52 47 57 60 54 67 51 52 54 62 74 57 87 64 40 33 28 35 32 28 28
75 82 86 89 96 92 78 84 74 77 96 98 91 54 59 68 60 59 44 47 65 61 65 72 59 58 55 55 49 59 52 57 60 71 76 72 79 67 50 32 29 26 30 32 29
77 84 93 92 85 82 87 74 73 92 95 99 86 79 82 62 60 58 55 48 47 53 56 55 45 49 54 45 46 50 56 58 63 78 96 76 72 60 40 27 23 20 22 24 26
91 98 98 98 85 76 83 88 88 96 99 100 94 76 74 74 68 66 71 75 78 81 87 65 61 48 47 59 50 60 70 94 89 95 93 58 74 63 36 28 24 24 22 22 23
98 92 86 94 82 81 80 99 86 59 93 84 75 73 93 71 72 72 78 83 66 64 89 87 88 64 54 61 67 64 70 92 93 92 83 57 77 50 32 27 26 22 21 21 22
94 78 81 100 79 80 92 99 87 100 94 95 84 79 91 70 81 73 76 76 64 64 79 84 77 53 52 50 57 68 85 65 79 77 94 72 47 33 28 38 34 28 28 31 27
94 84 88 89 77 72 98 98 98 93 70 67 96 73 90 76 84 78 79 61 62 56 52 67 80 60 57 49 54 59 59 86 92 94 94 74 58 43 35 38 39 40 38 34 32
79 90 90 78 69 92 99 100 98 70 59 58 69 71 65 80 73 74 76 57 48 52 50 55 69 77 63 72 75 72 80 64 72 87 96 96 70 37 39 36 37 39 37 38 33
87 97 91 81 96 98 100 100 88 73 62 50 46 57 61 65 74 60 67 54 39 43 58 53 76 90 81 59 59 63 68 65 92 75 89 92 74 36 38 40 39 42 46 43 40
91 95 76 86 99 100 96 94 77 73 57 54 50 46 49 59 67 57 64 53 49 48 56 57 82 95 74 69 61 76 67 64 68 82 91 93 68 38 41 40 45 61 63 55 47
89 96 93 97 91 97 96 92 91 64 60 53 50 44 51 57 57 67 72 57 52 57 58 51 74 80 87 77 76 86 68 66 77 98 80 80 63 50 47 55 63 68 63 57 53
96 86 82 99 97 93 85 82 75 71 59 53 52 50 53 63 59 58 67 67 58 59 55 64 85 74 76 73 69 75 77 76 83 78 97 67 71 65 63 72 70 74 72 81 74
97 93 90 94 85 80 87 88 74 69 65 63 65 61 60 63 64 58 63 66 70 66 64 66 85 97 92 71 73 84 76 76 77 76 89 88 93 63 62 65 65 86 85 78 77
85 88 98 81 73 70 67 67 65 59 63 60 59 71 81 79 65 66 66 60 67 75 64 75 85 98 93 70 83 92 80 75 73 79 84 97 75 72 76 78 94 94 87 88 83

GFSSW_925_rhum_048.txt.gz
RH
76 68 68 73 65 74 85 88 94 98 96 99 96 96 96 91 88 87 94 75 66 75 59 65 59 55 56 51 44 49 73 82 62 53 42 33 31 25 19 21 20 22 43 47 44
73 72 70 73 76 74 79 81 86 96 96 98 98 96 95 88 89 89 69 76 75 76 88 64 72 60 64 56 53 60 81 71 52 46 43 35 36 35 29 23 23 37 38 48 49
81 76 70 68 68 76 77 73 84 90 94 98 99 94 91 85 88 83 47 75 71 77 81 77 59 57 66 56 57 61 79 56 52 48 41 42 43 41 36 30 28 30 41 40 53
87 81 76 77 74 73 65 66 71 86 89 98 100 95 85 89 91 69 75 76 75 79 78 68 71 70 70 69 56 60 56 51 48 45 42 43 42 47 42 36 38 36 31 30 39
92 90 86 82 75 75 71 70 73 85 87 90 99 92 90 89 78 55 70 75 78 81 75 74 84 68 70 65 59 60 53 46 45 47 41 40 44 48 48 43 40 34 33 32 34
80 81 85 86 81 81 80 76 81 87 88 95 95 91 93 92 54 53 68 75 80 82 82 79 76 66 56 55 61 49 50 47 45 46 45 46 46 43 41 38 39 38 38 35 33
79 86 88 85 85 89 81 84 86 84 86 90 91 92 90 71 50 58 64 71 74 78 79 77 71 57 58 58 52 49 56 54 51 48 49 42 51 55 41 40 43 42 42 38 35
85 87 86 86 88 89 88 89 85 88 90 90 92 97 79 56 48 56 55 60 58 71 69 66 70 61 60 52 53 58 62 69 51 46 45 47 56 44 43 47 47 45 41 41 37
85 89 84 86 92 90 92 89 91 87 86 85 95 85 72 51 60 46 52 52 65 71 72 79 76 79 61 72 74 65 78 76 66 51 50 57 61 46 36 41 47 44 45 41 40
85 81 81 82 87 92 78 86 57 86 87 90 98 88 71 64 55 48 46 54 71 80 83 86 96 95 87 78 88 82 78 69 66 47 49 58 65 51 44 45 45 45 42 41 40
79 81 82 84 83 90 92 79 81 91 83 84 84 75 60 52 52 50 48 52 75 78 93 86 93 95 90 74 64 59 66 63 52 42 45 49 52 47 41 44 45 39 40 40 36
81 85 85 86 85 90 82 95 76 84 85 78 83 77 60 49 63 54 45 68 84 90 83 90 89 74 77 76 79 74 71 69 55 45 44 50 50 40 36 36 34 33 31 31 34
76 76 85 88 87 88 92 88 78 68 96 81 78 79 54 48 60 61 52 59 76 81 72 80 57 56 61 68 73 63 64 62 63 54 46 57 42 38 38 36 33 30 30 30 31
75 77 80 87 78 90 86 81 83 72 98 94 93 79 64 57 67 49 51 52 64 74 63 64 52 55 64 63 56 66 52 55 59 62 76 58 74 66 48 43 35 33 38 36 33
89 89 90 94 90 92 78 80 81 79 96 92 93 66 59 70 66 61 47 48 67 65 64 69 64 56 60 59 52 61 53 57 61 74 74 72 78 62 48 41 30 28 26 31 36
93 96 99 96 94 80 81 86 84 94 95 100 95 91 80 65 63 61 56 47 48 58 58 57 47 52 53 50 49 53 57 68 73 80 93 73 76 63 43 32 24 22 26 24 26
99 99 99 95 84 82 92 85 88 96 98 100 97 79 75 74 75 68 71 70 75 91 95 64 62 49 49 62 53 58 73 93 91 95 85 65 83 68 47 38 30 32 31 29 29
82 78 87 88 82 85 84 92 90 87 88 89 76 75 91 72 75 74 75 81 66 72 88 87 86 62 52 60 69 67 71 88 79 96 88 64 76 50 38 35 27 29 33 36 35
70 75 92 100 91 81 89 98 97 98 99 85 74 87 98 86 81 72 73 78 68 64 79 85 75 56 56 52 57 69 83 65 84 82 96 75 57 33 37 39 40 41 43 44 41
70 81 97 80 86 77 100 98 99 94 79 71 97 83 99 91 91 76 74 64 61 58 57 68 86 60 57 53 53 57 62 89 93 83 88 71 68 47 33 39 40 45 45 45 44
71 91 82 78 67 91 99 100 99 72 70 65 83 72 79 81 78 76 71 62 54 57 52 56 74 83 62 70 78 75 82 70 77 81 93 95 64 46 36 40 48 50 50 55 59
84 96 77 80 95 98 100 100 90 84 66 68 54 58 70 73 75 66 76 60 50 52 66 56 77 95 85 60 59 64 71 69 90 72 92 93 78 42 42 38 44 37 53 62 62
90 93 83 84 99 100 99 95 89 85 80 56 55 50 56 66 71 66 62 57 48 50 61 59 79 90 76 70 67 78 70 67 71 84 96 91 74 41 45 40 38 50 60 72 66
91 94 93 95 88 97 98 94 87 66 59 51 53 50 54 59 60 78 70 62 55 57 58 56 76 75 87 72 79 84 76 74 79 99 89 86 64 49 47 46 54 60 59 81 70
95 93 91 98 96 90 85 93 75 75 63 54 54 49 55 67 67 77 72 66 63 58 58 62 83 80 80 76 73 74 75 76 88 74 92 65 69 60 58 57 63 73 78 83 80
96 97 83 94 76 83 86 82 76 72 68 65 71 66 62 70 67 73 74 72 70 65 66 68 91 97 95 73 79 86 78 78 77 73 75 69 76 55 53 66 84 84 81 75 74
88 90 96 83 79 77 74 66 70 61 64 64 70 77 84 80 70 71 58 62 66 73 72 71 84 98 88 74 84 93 82 76 76 77 70 86 67 63 71 85 92 84 70 71 64

GFSSW_925_rhum_054.txt.gz
RH
89 89 93 92 87 87 77 71 69 69 72 79 88 95 95 99 85 90 95 73 75 69 94 76 76 84 64 60 52 58 79 84 60 56 43 35 35 31 30 28 25 24 37 48 67
84 82 84 90 86 88 85 82 76 73 70 72 73 87 94 99 94 99 71 79 75 72 77 88 90 71 77 66 61 66 86 76 53 46 42 42 41 41 38 42 28 34 47 74 97
80 78 78 82 85 89 82 80 80 76 69 63 66 79 88 98 91 78 60 78 75 75 73 75 72 66 77 66 64 68 77 57 54 47 47 47 45 42 43 40 32 35 41 45 84
84 84 85 82 84 87 86 89 91 78 76 70 64 82 89 100 90 51 71 70 76 72 78 80 68 76 83 78 63 68 62 55 48 47 46 47 43 46 45 41 36 40 39 35 39
85 87 82 82 84 84 86 88 82 80 84 82 82 89 97 98 78 62 67 75 78 76 80 86 76 72 75 74 64 66 58 57 52 51 49 44 48 49 51 46 44 44 40 37 35
84 78 82 82 84 87 85 87 85 82 81 83 86 88 99 98 60 58 46 60 76 79 81 84 78 64 68 69 67 61 58 55 51 49 47 50 51 48 45 43 43 45 43 42 40
77 84 82 82 82 82 82 88 84 85 85 83 84 85 96 78 60 62 58 66 73 82 82 85 67 68 63 63 59 56 60 56 58 52 53 52 58 63 49 44 46 46 47 44 42
84 79 78 78 81 81 86 88 88 82 88 88 82 88 91 71 65 62 75 82 76 85 77 77 64 66 60 55 61 67 61 77 55 57 51 47 58 44 44 51 52 52 53 50 46
84 88 87 88 84 82 88 93 92 89 84 84 80 79 87 73 80 65 57 86 80 86 72 66 68 74 62 74 80 72 89 82 65 54 50 59 66 47 44 47 54 52 50 48 48
87 91 80 76 81 87 89 84 72 85 82 77 66 90 79 74 75 54 54 74 80 85 82 79 86 90 88 76 83 72 74 76 75 50 58 64 69 51 46 54 55 54 54 53 51
81 77 78 76 80 90 90 69 80 73 77 78 80 82 74 77 73 58 52 74 88 84 98 90 92 95 84 75 65 71 74 72 62 48 48 58 57 50 42 45 46 46 44 40 39
70 74 83 92 83 88 86 88 80 76 80 76 76 80 81 89 72 69 51 77 88 96 97 99 96 81 69 68 72 72 78 76 63 51 49 57 60 46 38 43 42 39 38 38 38
89 93 96 98 91 93 85 80 72 75 82 79 83 83 86 88 67 68 57 77 82 92 92 92 92 89 85 88 85 82 78 70 67 56 53 62 54 45 34 37 36 36 38 37 38
94 99 96 96 93 91 82 81 77 79 93 94 93 86 87 84 74 54 58 77 86 85 74 71 77 90 88 88 88 98 61 57 59 63 79 61 76 56 44 40 38 37 37 36 36
99 97 92 87 86 90 81 81 80 78 91 83 92 84 86 78 70 63 55 55 73 87 74 86 82 80 89 83 86 66 56 61 64 74 68 67 72 48 40 33 34 42 45 46 45
88 93 85 80 89 88 84 80 80 91 96 99 93 93 88 71 77 68 72 54 57 60 59 62 51 51 55 61 52 60 62 69 78 74 85 66 67 45 38 39 38 39 46 50 55
85 92 83 94 93 84 79 82 89 94 98 100 99 84 78 82 81 77 80 75 93 96 89 70 66 52 54 66 56 59 69 85 74 87 74 72 74 56 43 41 42 39 49 52 61
84 91 94 91 81 86 75 93 95 92 97 96 81 79 96 79 86 89 80 84 64 74 91 93 93 60 54 60 69 68 66 82 59 80 80 70 84 48 44 34 39 43 49 52 61
65 75 80 85 85 77 92 96 98 99 100 92 74 92 92 95 87 95 84 77 65 61 79 85 83 58 55 57 56 71 85 64 87 80 94 73 57 29 45 44 43 48 48 49 58
68 77 74 73 73 76 92 98 100 96 74 72 90 86 92 99 91 92 86 63 65 60 55 63 90 64 60 56 62 60 65 80 91 64 64 50 60 41 36 38 41 49 50 50 56
72 89 65 75 74 91 98 100 96 75 76 72 88 86 87 86 80 76 72 65 54 60 58 63 75 81 62 67 78 74 88 80 77 75 78 64 38 48 38 40 45 49 50 53 65
84 93 63 76 94 100 100 100 85 83 78 59 62 69 74 72 73 69 72 62 54 55 63 60 78 80 74 63 61 63 72 72 84 79 93 93 69 42 48 44 43 50 54 66 75
93 93 69 79 99 99 96 90 89 84 85 57 57 57 61 67 72 68 64 58 58 55 63 60 78 93 80 68 67 77 73 69 74 82 98 91 58 44 52 49 49 58 82 82 72
92 96 90 90 86 95 90 91 88 76 68 55 59 54 58 69 72 76 70 71 59 53 59 57 72 70 82 67 82 92 82 73 77 90 85 88 71 51 46 54 52 62 75 69 64
94 94 96 97 87 91 86 82 80 82 62 59 56 56 62 75 73 80 71 66 65 67 62 62 86 90 78 70 75 78 75 86 82 79 85 68 78 57 51 53 53 78 73 70 68
86 97 86 92 79 83 82 81 81 78 76 69 82 79 72 74 68 80 73 67 64 62 67 67 98 90 92 72 83 93 82 82 84 78 80 70 74 48 46 51 74 83 71 65 62
88 87 96 84 90 81 83 78 76 68 75 79 71 82 84 85 75 61 59 63 62 70 75 72 90 94 88 78 83 88 84 79 81 78 68 84 60 49 60 73 86 81 69 60 56

GFSSW_925_rhum_057.txt.gz
RH
81 79 79 77 79 86 92 92 82 78 75 66 70 73 78 93 94 100 91 82 71 78 93 71 88 87 64 60 54 58 70 70 57 50 40 36 34 32 32 30 26 26 41 56 70
90 84 85 83 82 82 83 88 90 90 85 75 65 68 72 86 97 97 86 87 76 71 77 90 84 82 78 66 61 63 74 68 50 45 42 40 39 40 35 40 30 42 38 92 97
88 85 86 86 80 77 80 81 88 91 89 80 73 70 68 87 94 79 69 82 80 76 76 82 79 76 77 68 65 67 68 57 53 44 46 48 45 43 42 39 34 36 40 74 91
80 83 85 83 78 79 81 82 83 83 82 80 78 81 75 91 89 64 69 76 81 76 79 80 79 83 79 78 64 69 62 54 48 51 49 50 44 45 45 38 35 41 39 35 76
82 84 86 79 80 81 83 83 82 84 87 88 84 86 84 87 83 68 71 66 79 77 79 81 84 78 78 72 66 66 60 56 51 53 49 47 49 46 47 43 42 42 42 38 34
79 84 83 81 81 83 82 79 84 84 83 86 85 81 84 98 66 74 64 55 77 79 78 81 72 64 68 71 63 61 56 54 52 50 48 51 50 49 45 42 42 42 40 39 38
82 84 87 84 82 77 77 80 83 84 83 86 86 81 86 83 73 59 67 70 78 80 79 81 63 60 64 68 60 60 66 60 54 54 51 52 54 61 43 42 42 40 41 41 39
83 86 87 83 89 88 82 82 85 89 83 78 74 78 84 68 75 68 69 70 79 80 78 78 66 64 60 58 62 67 62 74 56 56 52 46 56 43 43 49 47 45 45 46 40
85 85 89 81 77 77 85 86 88 88 85 84 78 80 80 75 72 69 77 81 79 78 81 72 76 79 62 73 80 75 86 78 63 57 56 50 61 47 46 45 45 44 44 44 41
76 73 73 76 86 81 91 81 66 81 89 84 72 81 71 78 81 75 60 75 81 88 75 75 78 90 86 76 83 88 80 78 62 53 60 66 68 55 41 45 47 45 42 44 45
80 85 87 88 90 87 88 69 76 72 76 74 73 79 78 84 78 70 58 80 77 76 85 81 92 90 85 71 62 64 73 73 66 50 51 58 59 50 43 44 43 40 38 35 34
93 95 96 97 95 84 90 86 77 74 69 75 70 70 79 86 89 73 67 77 87 90 86 97 93 72 71 66 66 68 76 76 63 52 51 56 56 45 41 42 41 40 39 39 36
98 90 94 87 99 90 88 76 73 70 71 81 79 81 89 74 82 73 75 83 85 88 90 96 82 74 72 76 76 77 78 74 68 56 54 60 54 45 36 35 36 36 36 35 37
95 96 90 81 82 92 84 83 81 80 90 95 93 85 87 79 87 57 72 79 90 93 88 93 88 84 89 82 75 93 68 60 59 63 71 60 67 52 41 40 45 45 47 48 49
98 99 81 78 85 86 84 82 81 74 92 91 90 90 88 86 74 67 60 59 86 88 89 96 96 92 95 93 77 90 57 61 63 70 63 63 65 45 38 39 41 43 46 50 53
96 98 80 88 89 92 85 82 76 84 96 99 92 95 92 81 76 71 77 59 66 78 66 70 68 70 70 85 77 68 61 68 72 70 75 61 65 40 39 40 38 40 46 49 56
76 89 81 89 98 92 82 80 89 93 93 99 99 90 85 84 80 81 87 83 94 99 99 81 67 55 55 64 54 58 71 86 68 83 70 72 75 51 40 39 41 45 46 46 55
64 78 77 81 83 86 80 89 89 91 99 96 87 84 96 85 87 85 94 86 67 74 89 91 92 64 55 61 68 67 66 83 55 65 62 69 74 43 43 36 41 44 46 49 50
62 64 70 72 73 75 90 96 100 99 99 93 87 94 97 89 86 90 86 78 69 64 79 84 91 58 60 58 57 68 80 61 85 81 84 63 55 34 44 44 46 44 50 53 51
67 71 65 74 78 76 94 98 100 96 72 70 89 82 96 93 98 87 85 65 68 62 56 65 94 67 62 56 61 60 63 78 85 76 55 42 48 31 44 46 38 45 49 54 63
69 85 59 76 72 92 99 100 95 77 72 72 88 87 87 85 78 79 74 65 56 60 58 64 74 82 63 69 76 74 82 77 71 69 61 47 31 42 39 42 45 48 48 60 76
83 89 55 69 95 92 96 96 85 82 76 59 65 71 75 74 71 71 69 63 54 54 65 63 78 90 74 64 62 62 73 67 75 76 88 84 49 38 42 44 47 48 53 79 75
93 93 59 72 97 98 88 86 88 86 79 58 58 60 63 67 72 67 66 63 56 53 61 59 78 94 86 69 66 78 73 66 69 79 97 80 41 44 50 49 47 52 77 68 61
92 95 90 92 87 94 91 87 82 73 65 56 60 55 61 74 72 74 72 72 60 53 60 55 73 68 80 68 80 92 83 71 76 89 82 84 58 45 41 50 51 64 73 64 62
92 94 92 98 90 88 85 82 80 84 71 64 61 58 64 77 74 80 73 69 67 66 63 61 84 89 76 69 76 77 80 79 81 77 82 60 72 52 50 53 50 77 70 66 62
88 94 86 96 80 78 82 80 84 82 88 75 81 80 66 71 64 80 74 70 68 64 64 68 94 93 87 74 84 93 82 83 78 75 75 69 71 47 45 45 67 78 72 64 59
91 88 95 84 86 82 83 81 74 72 75 82 74 80 84 84 78 64 63 64 62 70 73 74 94 90 87 82 81 92 83 80 82 79 69 86 62 49 56 60 83 80 71 60 56

GFSSW_925_rhum_060.txt.gz
RH
85 86 90 89 86 85 80 80 85 84 82 87 78 71 70 75 83 90 95 74 68 83 91 62 76 75 57 47 43 44 40 38 38 34 26 23 24 21 20 17 18 19 24 43 54
78 75 77 87 86 87 77 77 77 85 90 90 86 76 72 71 75 82 84 82 77 74 84 57 73 71 60 49 42 36 38 29 27 29 27 26 21 24 24 23 21 24 30 65 79
74 78 85 88 87 77 77 78 81 82 84 87 88 80 76 71 71 60 61 79 83 78 67 63 68 69 66 54 45 36 35 32 41 35 30 28 28 28 24 26 20 22 31 56 77
79 80 84 85 80 75 78 79 80 79 80 83 85 85 84 71 75 58 68 83 84 76 63 64 67 80 71 65 44 50 35 35 44 41 41 36 28 30 27 21 24 29 30 34 60
80 81 85 82 81 79 82 83 79 77 82 85 86 87 83 70 59 75 74 84 84 76 68 61 66 67 70 59 53 50 45 41 39 44 42 39 37 30 32 28 29 28 32 29 28
85 85 85 82 85 84 79 75 78 84 89 82 84 86 78 84 46 51 81 70 70 78 67 65 57 53 58 57 54 46 44 42 38 41 41 43 40 39 31 28 27 28 26 24 26
86 87 88 86 77 83 87 84 76 80 87 84 88 80 73 62 66 81 77 76 69 75 61 66 52 54 52 62 48 48 53 43 44 40 36 38 42 45 29 25 26 24 22 24 26
90 87 82 84 84 79 76 78 83 84 88 89 75 76 69 55 55 68 86 70 65 71 63 68 64 50 43 45 51 51 46 54 36 40 42 39 28 33 31 28 29 26 23 24 24
78 82 80 79 76 81 82 86 89 87 86 84 85 71 69 58 76 74 84 64 61 67 68 71 70 53 54 53 64 52 45 43 50 42 34 40 30 27 31 32 29 27 26 27 26
92 94 95 94 91 87 86 86 81 81 83 78 77 89 63 58 76 77 73 74 69 70 75 78 84 82 60 51 54 55 52 47 41 46 48 47 36 34 34 34 31 27 25 25 26
94 96 96 91 89 95 83 70 56 70 71 61 60 70 56 63 75 82 69 74 79 68 75 74 94 87 63 46 39 40 47 44 44 43 44 44 45 40 34 32 31 28 24 23 24
96 95 95 78 92 94 80 64 63 68 64 60 59 70 58 77 71 86 75 95 80 79 59 82 93 68 50 50 49 46 43 45 55 46 44 44 46 37 33 33 32 31 28 26 25
95 98 97 74 96 88 84 74 72 76 64 75 80 74 73 83 70 85 80 81 64 68 71 71 69 52 56 58 56 50 46 55 50 48 43 45 42 39 31 29 30 29 30 32 33
93 93 78 87 77 89 74 93 81 80 96 88 95 83 80 74 80 66 92 90 86 72 83 86 78 65 62 59 49 64 54 53 53 54 52 46 33 39 33 39 37 38 40 40 39
73 71 74 66 88 76 96 86 81 76 93 96 93 83 74 79 80 90 89 69 78 94 91 98 92 81 78 60 54 72 56 53 52 52 50 47 46 36 32 38 39 37 38 42 44
79 64 64 73 86 97 82 80 79 93 92 98 91 89 88 90 79 85 79 77 68 78 83 96 91 87 86 92 72 49 50 50 50 54 66 44 48 31 32 30 36 34 35 40 44
90 67 65 68 77 82 82 78 92 86 97 100 97 87 81 84 74 78 76 83 91 98 100 100 97 86 80 89 88 70 58 81 77 80 59 54 50 29 30 29 30 40 41 40 43
82 68 68 71 76 78 78 83 86 95 100 95 83 88 96 74 88 92 73 70 58 62 94 92 96 90 76 60 67 59 58 69 54 43 41 57 50 31 31 29 32 34 39 43 47
70 63 70 77 81 82 78 97 99 100 99 80 65 71 75 72 83 93 68 67 61 51 68 78 89 55 55 52 49 62 72 49 65 62 56 36 39 34 34 33 35 34 38 46 53
79 76 70 73 77 78 88 94 98 92 69 60 76 68 65 71 68 66 68 58 58 52 45 60 90 62 56 50 51 53 48 67 79 66 47 33 30 27 38 37 34 37 42 47 55
81 69 60 67 72 76 99 99 81 64 64 61 68 66 65 65 63 63 63 58 50 52 44 50 59 80 56 63 61 60 64 59 48 48 44 24 21 25 35 33 36 38 42 56 57
80 78 58 65 87 90 98 92 78 69 60 54 55 60 60 59 58 57 54 54 47 45 51 54 62 77 67 56 52 52 54 47 55 63 64 62 28 25 27 32 36 38 50 58 53
81 78 57 80 91 87 74 72 75 65 59 52 54 53 54 56 62 57 56 57 48 47 48 49 70 84 76 66 60 66 58 54 53 63 84 52 29 32 32 34 32 41 55 55 54
79 82 77 74 76 76 71 73 67 64 56 51 53 49 52 57 54 60 61 60 54 51 58 45 57 57 54 65 66 85 69 57 80 85 56 52 35 33 35 32 37 44 58 56 52
82 85 81 84 72 71 73 70 69 69 61 53 51 50 51 57 58 61 62 60 59 61 52 48 70 70 62 61 65 68 71 67 82 68 85 47 48 31 31 37 38 51 63 61 54
86 86 74 76 68 68 74 71 72 74 74 61 57 63 54 51 51 59 58 54 53 56 53 58 93 86 82 66 68 81 65 66 67 61 62 54 55 35 33 35 47 65 68 62 56
93 87 89 76 70 68 70 72 68 68 74 65 61 59 62 66 64 56 49 46 48 54 58 58 81 81 71 68 69 81 72 65 63 59 56 72 48 38 40 44 61 73 69 59 53

GFSSW_925_rhum_063.txt.gz
RH
86 74 75 76 82 90 86 82 80 78 84 79 81 86 78 72 72 75 76 87 68 71 85 50 70 73 53 44 33 34 44 41 34 29 22 17 21 18 14 14 14 13 19 36 53
84 77 78 81 86 85 76 78 82 78 82 85 88 91 84 78 65 52 65 77 81 68 74 44 64 66 56 47 40 42 45 36 26 23 24 19 20 18 20 18 14 16 25 44 57
83 80 79 88 84 82 75 75 79 82 84 80 83 89 88 78 56 41 46 75 89 74 71 58 48 61 58 46 41 37 32 26 21 28 29 22 21 15 20 17 14 16 18 38 50
85 85 85 87 84 80 82 81 80 82 76 79 85 86 87 66 62 32 54 70 87 80 55 62 38 64 65 58 40 42 29 22 29 33 32 26 19 24 20 17 15 20 24 31 44
86 89 86 86 87 74 82 83 74 78 82 83 86 86 77 60 56 52 76 77 71 84 51 51 43 53 60 52 43 44 31 28 31 39 35 24 23 24 22 21 22 23 26 24 26
90 89 90 86 87 86 76 85 82 76 82 89 89 76 65 68 37 38 51 78 79 78 47 50 41 41 49 48 45 40 36 35 32 40 39 38 27 28 25 20 23 22 22 21 22
83 82 87 80 80 83 82 77 84 84 80 89 89 80 61 51 40 74 73 71 77 78 48 45 39 45 42 53 44 41 43 40 35 34 37 37 39 36 25 23 23 20 20 18 19
92 94 96 92 80 77 78 81 80 86 87 88 81 76 71 45 44 47 60 87 76 86 50 43 46 53 50 39 49 54 44 54 38 36 32 37 36 27 25 24 23 20 18 16 16
88 91 95 96 96 90 80 88 86 86 86 87 82 67 61 49 47 53 72 73 62 84 59 48 62 61 53 60 59 50 50 43 35 33 36 41 30 23 24 25 22 19 18 18 18
89 94 94 94 93 94 94 77 69 76 70 66 67 72 48 48 46 66 87 81 64 88 56 67 79 74 65 53 68 49 46 31 31 40 35 36 34 24 24 28 24 20 19 19 20
92 94 94 83 93 80 87 62 59 66 55 56 59 59 55 50 70 78 83 83 80 62 64 72 91 87 55 42 29 26 36 30 26 38 39 34 33 27 25 28 26 23 20 18 17
93 95 95 100 92 85 76 50 59 66 60 47 50 57 54 80 86 84 88 90 89 72 52 83 91 69 42 38 35 35 36 38 38 35 38 31 35 30 28 28 25 23 23 21 20
93 96 94 80 78 68 64 71 73 65 82 68 66 65 70 82 80 84 70 75 84 54 64 79 75 76 72 51 47 36 37 35 40 45 38 36 40 34 28 28 26 25 23 24 25
96 92 73 71 69 70 65 80 78 76 100 92 76 72 74 71 76 84 85 83 76 60 57 68 71 82 77 63 44 45 32 31 49 50 40 35 23 34 31 33 30 30 30 31 30
98 95 66 76 68 64 87 87 84 72 82 97 90 74 70 82 80 90 93 95 75 88 73 95 78 77 82 67 41 56 43 46 48 51 48 46 43 34 31 38 35 34 36 37 36
99 75 78 74 71 84 86 82 74 97 92 96 87 81 89 86 87 87 84 67 62 80 84 95 82 86 87 75 53 51 50 50 48 52 71 40 39 36 32 31 33 32 32 35 38
100 68 84 77 62 81 84 76 98 88 96 100 95 86 79 91 90 82 80 88 96 99 100 100 99 89 85 84 67 56 60 90 92 87 63 38 43 27 23 24 29 32 33 35 37
84 59 78 77 85 88 72 85 89 90 99 95 84 64 78 57 80 71 65 85 65 75 100 100 98 100 90 90 95 72 68 76 68 54 48 45 46 28 24 22 30 32 36 38 41
66 66 77 69 88 86 67 99 100 100 97 75 61 59 60 58 72 60 56 59 56 56 83 87 98 89 79 58 75 95 94 47 56 44 42 33 31 32 30 28 30 31 36 41 46
74 63 59 77 87 72 81 93 84 73 60 50 60 57 56 56 56 52 53 51 51 44 39 52 88 68 56 47 45 51 44 64 80 69 41 34 26 26 35 36 31 34 38 42 48
70 64 64 78 82 62 100 92 64 52 55 56 52 50 46 54 50 51 53 52 43 43 37 44 54 71 55 62 57 54 58 51 46 41 45 22 21 22 29 28 34 35 39 47 50
68 72 60 71 80 75 90 83 70 55 46 47 46 46 44 46 48 47 47 47 41 38 43 46 58 73 63 52 48 45 46 42 53 50 50 56 33 22 28 30 31 35 42 50 49
62 59 62 76 82 76 64 58 59 51 48 46 48 47 46 47 55 48 48 51 43 42 41 42 65 78 67 59 51 60 50 45 44 58 88 51 35 24 26 29 30 36 44 49 49
62 76 66 50 59 59 54 55 55 54 48 44 45 43 46 48 43 52 51 53 48 46 55 40 48 55 52 64 56 71 56 51 81 86 48 45 32 31 31 32 29 36 46 50 48
59 69 75 72 57 59 57 53 53 53 48 44 46 43 42 49 46 47 49 53 49 57 44 42 58 53 51 51 55 64 62 59 88 68 87 43 37 28 28 30 33 39 52 57 51
81 83 71 68 54 56 64 55 58 54 58 47 47 44 41 41 38 46 46 44 44 48 44 46 88 84 82 56 58 73 58 58 62 62 54 48 49 30 27 31 38 43 60 62 53
68 72 80 64 56 57 53 55 55 59 57 54 45 44 46 49 49 44 38 37 38 44 49 51 74 82 61 59 60 74 62 59 58 53 54 68 43 34 35 38 42 56 62 59 50

GFSSW_925_rhum_066.txt.gz
RH
91 86 86 81 85 86 84 77 78 81 77 81 88 83 75 84 79 69 69 76 77 76 49 55 64 76 74 64 44 39 66 83 70 49 32 20 21 18 15 17 14 14 43 54 72
85 88 84 84 86 84 77 80 82 82 77 80 85 84 91 91 76 62 49 64 83 77 68 49 61 68 78 67 50 46 62 56 40 31 30 24 22 22 20 20 18 20 39 54 71
83 85 85 88 86 84 85 82 80 84 79 78 79 86 83 80 66 46 46 56 78 85 61 53 45 58 77 57 49 46 56 41 32 32 32 27 22 19 22 26 19 19 34 48 63
86 88 88 88 88 87 82 79 83 81 83 81 82 79 86 73 72 60 40 48 79 87 61 65 44 65 75 66 47 50 40 35 29 35 33 27 22 22 21 22 22 31 31 46 51
82 87 89 89 86 85 84 84 85 78 79 74 70 85 78 65 56 43 57 56 76 88 63 57 48 58 71 59 46 52 40 31 28 38 36 29 29 27 24 25 25 27 27 24 31
88 90 91 93 92 80 84 78 86 85 87 79 85 83 73 73 40 35 43 52 77 84 70 48 48 39 49 53 54 42 41 34 32 41 34 33 31 28 25 21 24 24 24 24 24
87 84 89 92 97 82 77 78 76 79 84 84 89 80 67 58 38 61 64 59 74 77 71 49 43 38 46 53 48 42 47 43 35 44 43 38 41 38 26 23 25 26 25 23 22
82 88 90 89 97 94 83 80 85 86 90 88 82 74 76 50 48 44 54 56 58 89 74 47 41 54 48 48 57 62 49 61 41 40 41 42 52 36 29 30 30 26 22 23 21
87 87 90 94 93 91 90 85 88 86 84 85 79 72 60 42 48 44 41 64 64 72 81 61 46 67 55 76 75 67 73 62 49 38 38 42 45 33 27 30 31 27 25 22 20
93 93 96 96 92 86 78 63 75 69 70 64 62 74 54 46 40 41 57 77 74 73 81 72 70 80 74 83 87 73 68 47 46 40 40 48 49 31 28 26 28 26 22 21 21
94 93 91 96 91 71 79 73 64 67 53 56 55 58 49 57 49 54 79 78 86 93 97 80 86 88 76 65 51 42 47 47 36 36 44 46 45 36 28 32 34 30 25 23 22
95 93 93 72 71 69 64 54 63 63 69 44 46 49 58 80 77 76 85 88 91 96 78 86 87 60 52 56 53 45 44 44 33 40 42 42 41 31 29 33 32 31 29 25 23
98 96 94 71 70 62 65 72 71 69 94 71 68 73 90 84 85 86 83 85 84 96 70 74 68 56 53 52 56 43 44 39 43 44 39 39 42 39 31 28 28 28 28 26 27
98 98 92 80 80 63 67 83 79 74 99 94 76 81 92 87 85 86 88 95 86 64 64 66 68 69 79 76 52 61 33 33 47 56 58 42 42 38 35 35 31 30 31 32 32
99 98 89 75 74 59 71 76 73 74 92 77 85 77 75 84 85 82 90 84 78 69 74 98 82 80 88 82 57 47 39 45 52 57 50 50 58 37 37 40 38 37 41 41 36
100 97 71 72 75 74 82 77 76 97 96 97 88 89 88 80 83 82 82 78 57 69 84 94 80 83 89 86 87 51 54 54 51 60 90 54 53 49 43 38 39 41 44 43 43
99 61 66 81 69 78 79 81 98 93 92 94 97 88 88 92 92 86 88 88 85 96 98 100 99 91 86 97 81 67 68 94 96 96 88 44 53 44 33 32 36 38 41 42 44
57 52 71 76 80 84 81 97 88 82 99 84 80 55 71 64 79 80 90 95 77 83 100 96 95 99 85 91 92 72 71 94 76 87 73 44 62 39 30 31 33 38 43 43 47
65 65 74 66 80 82 87 95 97 98 94 78 62 63 58 60 65 60 60 81 85 79 98 100 100 94 90 79 78 96 94 51 70 45 78 57 39 34 28 42 38 38 43 49 52
76 65 60 63 77 85 90 87 86 69 56 51 60 51 56 54 55 53 55 50 55 56 51 68 98 95 92 84 76 88 63 74 93 74 62 47 45 43 42 42 38 41 44 52 52
78 75 67 63 77 76 98 83 62 48 52 54 51 47 46 52 49 48 53 51 41 42 41 48 65 88 72 89 87 94 92 68 56 54 80 48 40 30 37 37 38 40 43 52 55
76 89 63 68 90 83 92 79 67 50 43 44 47 46 43 45 47 47 54 53 41 40 46 51 66 81 68 52 47 52 52 53 87 61 71 82 50 29 32 36 39 41 46 56 53
73 63 54 68 93 93 67 57 56 49 46 45 46 46 45 45 52 47 52 51 43 49 51 47 78 90 71 64 52 62 54 50 61 78 90 88 55 34 40 39 34 41 53 57 54
70 87 83 60 58 66 57 53 54 56 50 43 43 42 45 48 42 54 57 52 48 48 52 50 52 62 81 76 71 77 62 56 83 96 72 76 39 38 40 39 35 47 52 57 55
64 72 72 92 62 63 55 54 53 51 50 43 46 44 45 49 46 48 52 58 50 53 45 52 64 55 51 50 57 70 65 65 89 76 78 56 38 34 35 36 35 48 56 60 55
77 85 72 74 59 58 63 55 57 50 54 47 51 41 39 46 44 46 47 49 52 52 46 54 92 88 88 53 57 73 63 64 70 70 70 61 59 39 33 35 44 55 64 66 59
74 67 74 68 59 62 62 61 58 57 54 50 53 46 49 52 49 45 43 40 41 50 55 58 85 93 78 58 62 82 71 67 65 62 66 76 53 37 42 41 46 58 67 67 57

GFSSW_925_rhum_069.txt.gz
RH
82 80 86 84 87 87 85 86 85 83 86 80 87 86 90 80 83 81 76 65 74 74 55 56 54 70 85 77 53 60 93 91 77 66 51 36 37 20 18 19 23 43 62 79 70
80 82 87 88 89 87 84 83 74 82 84 83 77 86 86 82 87 76 60 60 68 86 63 60 69 76 86 86 57 61 81 67 50 52 54 42 30 32 20 21 30 66 82 76 72
83 83 91 91 89 88 86 85 79 80 83 76 80 87 85 72 74 62 50 64 58 80 70 56 58 78 90 82 66 56 64 54 47 44 57 44 30 26 25 24 22 54 86 84 80
85 90 85 86 92 91 83 87 83 84 80 69 70 84 76 76 77 51 56 62 56 77 70 65 57 79 89 83 63 55 46 44 40 42 55 50 27 23 23 29 35 32 62 76 85
86 81 82 82 84 95 83 86 78 86 82 80 71 77 73 80 72 45 46 56 58 79 70 72 62 71 86 75 60 63 48 39 37 40 40 33 30 29 26 33 31 30 35 64 77
91 84 87 86 89 95 81 83 80 78 85 86 82 81 75 87 42 45 45 46 58 82 68 66 63 61 72 67 70 53 51 47 39 43 38 34 33 28 27 27 31 29 27 27 40
89 84 88 93 90 89 83 77 84 81 84 86 90 82 74 68 46 53 59 54 73 81 78 61 52 52 53 59 55 60 58 53 45 45 44 36 38 36 31 30 28 28 28 24 23
90 89 89 94 91 85 89 79 86 86 88 90 87 80 79 50 47 50 50 55 53 78 87 61 53 55 52 51 61 67 55 70 47 48 44 36 49 39 33 34 34 32 29 30 24
93 90 89 93 91 79 74 76 82 87 85 85 74 74 81 47 54 42 44 45 64 68 82 70 60 62 60 73 83 76 89 73 53 47 49 43 51 37 33 36 36 36 33 30 26
95 92 90 94 78 74 65 59 63 66 67 70 61 74 61 58 55 47 66 56 69 84 86 85 71 83 78 86 87 92 82 67 65 49 47 52 51 39 30 36 37 35 31 30 27
96 95 60 79 74 70 70 70 72 75 58 58 58 67 54 66 56 53 76 77 74 83 91 88 88 92 75 76 63 68 71 59 52 44 49 50 50 44 39 32 36 35 34 28 26
97 97 93 64 67 65 58 70 70 68 80 58 55 63 77 76 75 82 71 75 90 93 91 91 90 74 65 70 71 59 66 63 44 38 47 50 51 46 40 37 36 35 34 31 27
98 99 91 72 62 68 68 81 74 72 93 83 78 80 86 74 84 81 71 84 85 91 88 94 73 61 68 73 78 65 71 61 47 47 43 45 55 48 40 34 36 33 31 27 32
97 100 84 71 69 65 74 77 71 76 97 96 88 89 89 77 95 86 84 93 84 90 84 89 67 67 74 69 62 74 51 47 54 60 72 44 66 43 40 40 35 33 32 33 38
99 100 73 78 76 67 70 77 75 77 92 91 90 76 80 83 78 90 90 91 89 89 80 98 80 86 91 77 80 69 49 44 55 60 56 54 60 47 39 47 41 38 37 43 40
100 100 64 76 78 75 76 76 78 87 91 98 92 85 81 74 85 83 86 91 59 78 83 93 77 87 89 89 87 83 61 57 61 69 91 66 65 55 52 40 42 44 53 50 51
90 76 61 72 79 76 78 86 90 95 82 85 96 85 92 95 86 81 87 84 88 94 96 97 98 86 81 88 83 89 88 98 94 95 92 58 66 50 37 38 42 53 54 53 56
62 62 63 73 76 78 82 90 90 83 97 79 86 76 78 77 89 84 83 92 83 86 92 97 100 97 84 85 95 97 79 88 87 97 85 50 77 52 37 35 42 45 49 53 64
62 68 69 73 78 78 90 96 89 93 91 79 64 72 67 65 78 85 86 90 84 79 88 98 95 90 86 78 87 98 96 63 71 59 81 65 46 35 45 47 46 50 52 62 65
80 71 66 68 76 86 89 93 91 78 67 61 66 52 63 57 64 65 65 71 77 74 69 87 96 90 91 85 82 95 72 79 92 76 72 66 54 54 52 51 46 49 56 62 63
82 88 66 69 78 88 95 89 72 54 54 62 63 52 48 54 50 56 63 52 49 64 66 73 77 99 96 98 98 97 98 80 63 69 81 59 52 37 41 45 44 46 52 64 67
91 92 60 74 94 94 95 86 65 59 52 55 51 51 53 48 51 60 66 56 48 46 56 54 76 96 78 79 65 71 83 74 85 65 73 87 64 33 39 43 40 48 54 64 60
99 86 63 74 95 94 72 71 64 57 51 51 50 48 47 49 57 53 65 53 47 53 54 53 80 93 77 68 58 67 61 69 62 76 87 86 62 40 45 45 46 52 62 62 60
94 94 88 86 77 70 76 68 60 55 59 46 47 45 49 50 45 58 65 53 50 49 51 50 67 72 84 70 75 80 68 62 72 87 71 81 53 49 48 44 41 49 58 66 60
91 90 81 98 86 85 69 64 67 61 54 46 52 50 52 55 50 57 61 62 53 50 48 58 69 56 54 54 66 72 68 74 79 69 76 58 52 45 46 46 42 49 63 68 60
91 92 88 91 81 77 70 68 59 62 57 62 57 59 46 51 53 54 58 63 64 57 52 64 90 83 83 59 58 72 70 72 76 68 67 68 68 45 35 37 56 63 71 70 65
77 73 85 80 79 75 72 66 69 72 60 54 59 69 54 57 54 49 46 47 51 63 63 71 84 90 88 66 66 78 72 69 71 69 62 75 55 43 44 47 59 67 71 71 66

GFSSW_925_rhum_072.txt.gz
RH
82 83 87 90 92 89 87 88 86 79 86 85 88 76 84 86 84 86 79 51 72 72 70 64 52 66 84 75 79 88 90 81 68 75 57 60 66 36 24 31 48 66 73 69 74
87 87 87 85 86 92 87 87 85 79 80 84 84 85 82 76 84 81 50 59 52 79 80 61 67 75 96 88 66 90 96 78 55 56 75 66 63 47 28 40 74 94 85 78 78
85 82 77 82 79 90 92 84 80 71 73 64 81 85 75 75 79 62 48 63 65 66 79 61 60 72 87 90 72 66 78 58 50 47 76 72 67 54 38 29 59 90 90 87 87
86 84 88 84 85 88 90 85 81 80 84 71 69 77 72 78 81 52 51 64 56 65 75 69 75 85 91 94 72 67 53 52 54 78 73 81 74 55 32 31 31 76 86 86 90
87 83 84 87 87 96 88 84 79 82 76 76 67 73 71 80 71 59 52 59 55 65 76 76 76 77 87 81 71 65 52 46 41 61 68 72 78 59 31 35 44 75 78 86 85
85 87 88 94 92 86 82 81 81 82 84 89 76 68 74 84 54 62 57 57 61 65 74 80 65 66 76 74 74 64 56 50 42 43 42 68 65 53 30 32 35 37 61 81 85
89 87 89 91 94 79 84 78 87 83 87 87 86 78 78 74 46 48 52 59 65 69 77 77 56 64 67 62 65 66 65 63 55 49 45 37 54 55 29 31 32 31 30 33 54
92 90 88 95 96 77 76 81 86 87 90 90 73 81 80 43 55 47 46 48 56 75 81 69 62 55 53 54 70 76 72 78 52 51 45 37 51 36 34 33 33 31 31 30 27
93 93 93 92 94 83 70 67 76 83 86 82 79 73 77 48 52 51 46 47 58 73 86 78 70 61 59 73 88 81 88 74 58 50 50 42 46 38 32 37 35 36 34 31 29
94 99 96 95 88 78 67 64 67 70 78 78 69 67 60 59 56 61 60 56 70 84 95 86 79 80 84 86 91 95 84 70 66 55 53 55 53 42 38 37 38 38 37 33 30
90 100 95 74 68 60 59 67 67 67 61 61 63 65 58 64 64 76 66 67 72 82 88 90 92 90 82 72 67 77 71 70 60 48 52 58 55 47 39 38 41 41 37 32 27
91 95 100 76 66 60 56 74 76 73 83 71 67 70 72 74 78 81 69 73 83 93 94 96 90 74 71 69 70 78 79 71 51 43 52 54 55 47 43 42 37 38 37 34 28
91 89 99 76 65 69 67 75 71 71 89 88 78 76 76 78 84 83 79 79 83 94 93 85 72 67 71 79 79 75 74 65 58 50 47 54 62 58 48 42 36 38 35 34 34
98 93 100 89 76 76 73 74 70 75 95 98 92 84 86 81 87 80 84 84 87 98 91 84 67 72 77 81 76 83 58 57 52 61 80 46 79 51 53 46 43 40 38 36 38
99 99 77 91 78 71 70 77 76 77 92 95 89 79 76 83 85 87 91 83 85 93 93 96 81 77 86 78 65 69 74 56 57 65 59 56 68 58 38 54 45 45 40 40 48
98 64 62 78 82 72 73 78 78 81 93 96 87 82 87 78 88 86 87 87 76 83 85 92 76 88 90 89 89 86 58 66 68 79 93 65 68 65 48 43 42 40 41 48 51
60 54 61 74 79 76 76 83 84 92 74 83 95 85 81 86 87 86 94 96 97 98 99 97 97 86 78 82 76 81 77 98 98 98 93 64 71 46 42 39 38 46 57 61 60
56 56 64 71 74 80 82 79 89 82 88 80 83 78 95 82 88 82 81 91 81 78 95 97 100 94 83 83 83 94 88 92 89 96 83 58 82 54 39 37 39 45 54 63 69
61 66 67 70 76 82 85 91 83 91 84 90 72 69 74 86 88 87 83 87 84 80 86 90 93 84 84 81 75 96 99 75 73 71 88 69 58 40 48 50 56 55 57 68 72
71 72 71 69 80 85 88 91 90 77 78 74 76 55 67 67 86 92 89 76 80 78 71 85 98 83 81 84 86 91 84 98 92 83 79 68 64 56 58 60 54 55 63 69 70
77 86 72 78 80 85 94 94 79 64 65 66 65 63 50 55 55 65 68 62 62 68 71 81 78 93 92 96 81 96 100 89 70 72 83 68 59 44 52 53 53 55 60 68 70
84 79 75 82 93 95 92 86 65 66 55 60 56 57 57 52 56 63 66 61 48 53 70 64 81 92 89 77 76 76 89 76 91 83 77 86 56 39 43 50 48 50 57 66 64
96 90 71 82 93 95 78 75 69 60 56 52 54 49 49 54 57 56 64 53 48 52 62 60 81 98 96 74 77 100 90 80 73 79 87 80 54 43 48 46 45 52 63 66 63
90 83 85 85 84 75 82 73 58 60 58 51 52 46 52 53 47 58 65 54 50 49 49 52 73 73 83 69 78 84 78 89 94 97 80 87 52 45 49 48 51 56 65 64 61
93 96 86 91 72 89 82 71 71 66 57 51 56 52 60 60 53 58 64 63 54 50 50 56 70 61 60 64 70 72 73 77 86 78 82 64 61 45 45 47 48 47 57 72 67
85 83 90 88 85 84 77 77 79 71 64 60 63 67 67 60 53 56 66 66 64 58 55 68 87 81 80 63 59 74 72 76 74 69 69 64 68 49 38 40 44 47 68 74 69
80 83 91 71 80 78 72 57 66 71 67 57 63 72 71 55 56 50 49 52 51 66 67 73 85 86 79 68 67 76 69 69 74 72 62 75 51 45 48 40 48 60 69 70 69

GFSSW_925_rhum_075.txt.gz
RH
87 84 83 79 84 82 89 90 89 86 87 84 87 76 76 76 83 86 79 43 65 74 72 71 65 68 83 79 84 82 84 70 67 69 64 66 70 56 45 35 64 85 77 78 83
87 83 83 80 84 84 93 91 87 74 72 87 83 87 79 75 81 83 60 71 70 69 79 65 71 76 91 91 87 92 81 73 55 57 59 69 67 65 60 50 65 94 92 88 95
89 90 76 85 85 91 90 85 85 72 79 77 82 79 70 72 68 66 46 62 65 68 74 78 62 77 88 90 77 83 79 60 54 78 81 74 69 69 63 40 39 89 96 93 93
86 85 86 88 90 95 88 85 78 85 87 82 79 72 74 74 90 66 68 64 64 63 68 69 78 83 87 88 74 75 62 58 69 85 80 75 72 71 66 49 50 47 90 94 92
92 88 86 90 91 90 83 84 84 84 76 75 68 65 69 72 71 56 62 55 62 62 70 76 83 80 83 83 76 64 59 53 81 78 72 68 68 70 72 57 47 63 86 94 94
93 86 88 93 94 83 82 82 83 87 84 84 77 67 72 75 60 60 56 69 60 66 69 78 73 71 74 81 74 70 55 69 71 77 61 75 70 81 63 54 40 88 84 86 89
87 88 88 95 96 94 82 82 87 86 88 88 85 77 77 56 52 63 56 58 71 67 72 74 65 67 69 73 72 69 70 68 57 59 67 71 94 88 63 53 42 55 86 79 82
93 93 91 94 96 83 86 85 91 88 76 86 80 79 71 47 58 53 52 52 58 74 71 82 73 66 64 60 80 78 70 84 58 52 55 65 76 78 69 62 40 35 33 38 44
94 96 96 96 95 91 65 72 84 85 86 86 81 73 65 50 55 50 48 58 57 76 79 74 70 64 60 84 88 86 90 82 64 52 51 48 52 66 60 59 39 36 37 31 30
91 96 96 93 78 87 66 66 69 70 74 77 76 62 54 64 60 65 63 56 69 83 84 87 82 83 86 87 86 98 87 73 67 59 55 55 50 44 39 42 44 40 40 39 31
93 94 98 78 71 65 62 61 66 63 64 90 86 65 65 67 72 76 68 63 71 78 91 94 91 85 89 68 70 77 70 71 59 51 57 58 53 47 40 43 42 47 44 42 34
94 93 97 84 69 66 60 76 74 71 81 75 70 72 73 77 76 76 66 75 78 96 89 94 94 75 73 67 71 75 77 72 55 46 53 57 58 50 45 47 44 41 46 42 32
98 99 99 73 66 68 66 76 76 76 87 84 79 79 75 76 74 81 78 78 82 94 96 97 77 69 75 77 80 76 78 70 59 51 49 53 59 54 46 49 43 41 40 39 37
100 98 98 77 73 76 70 70 73 75 98 98 89 80 83 74 89 77 81 83 85 94 94 83 70 76 82 83 77 87 63 60 54 61 74 52 86 58 49 49 49 46 44 43 39
100 100 80 79 77 70 72 77 77 75 90 93 87 82 77 88 85 84 82 80 85 89 93 98 82 86 86 79 69 75 71 63 60 66 65 59 74 64 43 60 51 45 45 43 43
94 74 63 77 82 73 73 78 77 81 84 98 87 82 92 84 87 85 81 81 78 88 88 92 79 85 88 87 74 76 62 70 83 80 93 70 72 73 53 45 40 46 48 40 51
62 57 64 71 79 76 78 79 83 90 68 82 96 87 83 84 86 81 87 92 94 99 99 99 96 86 78 82 73 72 87 98 98 98 93 68 71 54 45 40 40 40 47 49 57
61 58 64 74 76 80 82 79 86 75 89 74 82 82 92 76 84 90 89 95 88 79 97 98 99 96 86 79 80 86 75 92 89 96 84 72 85 61 45 42 40 41 45 62 69
64 65 68 77 79 83 78 92 79 84 76 91 73 79 94 81 84 84 82 88 82 78 80 92 97 84 81 85 77 93 99 71 77 75 91 74 62 43 42 46 47 58 66 73 76
67 70 74 79 81 84 88 93 89 72 73 80 83 61 72 94 94 94 88 78 80 80 67 78 97 81 83 81 86 84 81 94 96 95 87 72 71 53 45 52 63 70 68 72 74
73 86 75 83 85 83 92 90 81 67 71 69 68 70 57 68 84 90 81 64 68 81 71 76 76 91 83 96 87 98 98 98 95 81 80 74 60 50 45 48 64 66 70 71 70
74 79 77 85 90 94 86 82 65 68 62 64 63 62 59 54 59 70 75 62 55 71 80 74 81 90 86 76 72 73 78 88 96 87 84 86 66 38 45 50 59 66 67 70 69
89 87 77 91 90 94 80 77 71 65 58 54 57 52 52 58 59 58 66 56 53 59 64 65 89 98 98 91 86 95 81 85 95 80 88 81 62 42 49 52 57 64 70 72 68
86 66 76 82 86 78 85 75 69 64 62 57 54 50 54 58 53 57 66 57 53 55 54 58 75 74 79 67 83 99 93 86 96 98 83 82 55 40 44 51 54 58 66 73 67
88 89 83 78 59 86 87 77 77 71 62 54 58 56 67 69 58 62 63 64 58 54 57 57 74 77 68 64 76 78 79 89 94 85 88 66 71 51 40 48 47 53 71 74 71
68 66 87 84 82 82 77 77 80 74 73 64 67 64 70 70 57 57 68 68 64 61 63 70 82 81 84 64 74 79 74 81 90 86 89 79 67 48 39 45 48 54 70 77 75
76 87 85 65 77 73 76 56 59 71 69 68 70 78 80 69 56 52 55 57 54 68 71 75 86 85 82 72 67 79 67 69 74 70 70 83 58 44 50 46 48 53 62 64 71

GFSSW_925_rhum_078.txt.gz
RH
89 83 77 81 78 85 88 94 88 88 88 88 86 86 81 76 78 92 80 50 61 80 75 69 73 71 80 84 86 82 80 82 74 63 55 68 63 62 55 47 46 91 91 84 92
89 80 82 86 84 89 93 87 85 85 86 83 79 86 73 77 84 84 79 80 72 71 79 71 72 64 82 86 88 89 83 70 57 64 69 70 67 76 64 64 58 63 79 98 99
84 84 83 87 88 94 86 84 88 87 87 82 85 78 69 74 68 68 68 76 68 68 72 83 65 65 81 83 82 85 78 63 84 85 74 71 72 70 70 55 58 69 57 78 95
88 88 87 90 92 94 81 85 86 88 87 84 78 72 73 75 83 72 72 80 75 65 72 80 76 74 83 90 76 82 68 66 88 84 72 75 65 70 73 62 59 58 52 70 91
88 86 86 91 94 88 80 84 83 86 89 88 78 74 68 67 70 58 59 65 60 68 72 76 82 75 75 76 72 62 64 72 84 73 69 66 73 75 70 56 55 50 70 95 97
90 84 87 94 94 87 81 84 86 87 89 90 89 65 70 63 62 53 56 65 73 73 70 78 77 71 70 73 72 65 59 80 83 72 70 74 80 73 50 57 57 54 49 92 97
92 91 88 91 93 94 85 86 87 88 81 90 88 76 73 52 54 52 55 58 77 70 72 78 68 69 70 81 72 66 87 80 84 80 78 79 81 86 61 57 63 58 47 78 92
92 94 98 96 96 94 87 86 84 72 83 90 82 76 61 50 62 57 53 51 71 69 63 70 69 67 68 69 76 74 75 91 78 81 81 75 87 75 65 74 70 57 47 41 74
92 95 96 97 95 86 93 68 75 76 70 72 77 75 60 50 56 60 55 58 63 73 74 69 69 68 64 88 90 86 94 83 82 74 86 79 72 65 81 78 74 61 47 37 38
91 96 97 96 76 66 60 68 68 72 73 74 76 60 53 69 67 67 66 57 63 82 81 84 84 84 83 91 84 91 85 80 76 67 77 87 56 74 81 82 75 66 47 39 37
92 93 98 96 74 63 58 64 64 61 70 88 87 69 68 69 72 71 67 62 67 72 86 89 91 92 88 69 72 78 76 78 62 56 62 74 59 72 70 85 84 64 50 42 41
95 96 98 98 71 60 56 74 74 73 83 75 75 72 73 80 75 72 69 72 74 90 88 95 90 76 73 66 74 76 78 75 59 52 62 63 61 51 50 62 62 54 40 46 42
95 100 98 99 75 65 65 75 75 75 88 81 80 86 81 75 83 80 82 77 87 96 95 99 79 74 73 71 78 78 82 74 64 53 58 59 63 60 49 44 45 43 43 42 45
98 100 98 87 78 73 70 71 74 74 94 97 82 80 77 73 84 77 84 82 83 97 95 93 72 79 81 82 75 82 66 65 60 64 80 53 84 62 48 51 50 44 44 46 43
100 99 100 86 71 70 71 76 77 71 91 88 83 85 74 84 73 80 81 74 87 92 94 98 83 86 87 79 66 72 68 66 62 72 68 64 78 61 48 54 45 38 44 49 46
91 96 79 83 82 74 71 75 74 81 93 95 85 85 94 83 89 78 76 75 72 85 89 92 80 82 85 86 67 72 70 77 84 78 90 75 77 74 57 46 40 42 45 43 46
52 61 74 74 78 74 76 77 83 92 67 87 97 84 79 87 91 81 84 92 91 91 100 98 95 85 78 85 75 71 78 98 97 98 90 70 82 57 48 41 39 36 38 48 47
56 61 70 76 78 78 81 81 88 75 87 70 80 80 88 74 76 80 87 96 89 85 98 95 99 96 83 78 84 81 80 92 88 96 89 72 89 60 45 42 40 39 41 44 59
62 71 75 81 81 84 81 90 78 80 74 88 78 91 81 81 82 85 73 88 86 84 91 94 98 84 81 84 81 97 96 63 85 80 91 76 67 47 44 44 43 46 51 58 67
65 74 82 84 85 83 89 91 87 67 70 83 78 65 83 90 90 95 87 74 81 75 66 72 96 82 87 78 85 83 80 92 96 97 91 74 70 60 40 38 44 56 65 69 74
70 83 89 90 88 85 88 91 82 70 73 74 70 71 62 90 88 89 84 70 72 86 72 74 74 91 86 96 93 97 98 92 83 82 87 78 62 51 45 40 43 55 70 80 84
69 72 84 91 89 95 90 77 64 69 71 73 66 64 64 57 75 91 79 66 68 80 84 71 81 97 82 82 71 73 76 85 94 86 87 89 60 37 42 48 50 65 76 81 77
86 86 68 84 87 93 81 76 74 69 61 57 61 61 55 61 64 69 68 57 64 73 74 73 89 100 99 86 87 97 85 76 87 84 93 89 72 39 48 50 59 73 80 81 79
75 60 71 84 85 83 92 77 77 64 71 59 57 54 58 64 62 59 69 60 59 62 60 65 81 78 81 68 83 96 88 82 91 94 77 81 67 45 40 45 53 65 77 83 77
82 83 78 76 58 81 86 84 82 81 68 60 62 62 65 74 62 68 64 65 62 56 64 65 85 78 70 62 83 88 86 86 96 86 96 73 70 52 45 42 45 55 72 82 79
64 66 88 78 79 77 77 79 72 72 73 77 74 77 71 77 63 60 66 72 68 66 71 69 86 81 88 64 79 87 81 86 87 87 85 77 77 58 48 43 48 54 65 75 76
85 94 74 64 74 64 71 60 56 63 54 69 53 53 80 84 68 57 54 59 58 73 76 79 84 88 87 74 70 84 73 72 76 83 78 90 70 52 54 51 47 57 69 68 69

GFSSW_925_rhum_081.txt.gz
RH
89 86 81 84 90 91 91 86 84 86 86 87 85 83 86 78 80 88 89 61 67 79 83 68 71 77 75 90 86 75 85 74 62 55 54 62 55 58 54 49 54 66 79 89 98
94 86 84 85 90 90 84 85 86 87 86 81 84 85 74 78 69 77 74 91 86 77 76 76 78 67 80 88 88 83 84 69 56 57 67 65 63 67 53 43 50 48 45 50 98
93 87 87 87 87 87 82 87 88 87 87 83 83 79 69 81 75 70 64 79 88 75 72 80 68 62 79 84 82 84 77 69 84 74 64 66 68 64 58 49 60 61 54 52 85
91 87 87 85 89 84 79 86 86 86 89 86 85 79 69 69 86 72 84 81 80 77 73 83 73 73 80 89 77 84 71 70 84 77 69 73 63 62 63 55 55 54 52 61 61
94 84 88 89 89 85 82 85 85 87 89 90 85 65 64 64 63 63 68 69 65 75 75 83 75 73 79 80 71 64 72 77 78 67 68 66 73 66 63 56 52 52 52 52 80
84 88 84 87 90 91 86 87 87 91 91 89 84 56 62 66 58 61 58 71 73 74 79 83 74 64 64 79 72 59 72 83 71 71 71 69 77 68 60 55 52 53 52 52 62
89 86 90 92 96 93 91 89 88 83 86 91 83 61 59 54 54 54 54 57 74 74 72 76 72 68 69 81 68 66 86 80 82 74 79 57 64 70 61 61 59 62 55 51 41
91 88 94 96 96 95 95 90 67 62 75 90 69 62 56 51 60 53 52 54 68 73 64 69 65 68 70 71 78 72 79 89 83 77 84 56 70 56 68 64 65 62 56 54 43
86 89 96 96 96 92 68 68 69 61 74 74 68 66 60 51 61 64 68 62 75 73 65 79 65 72 68 85 87 80 90 82 92 74 87 71 72 54 71 71 62 59 58 55 48
92 91 88 97 96 78 56 62 67 62 68 71 74 54 56 76 72 70 64 63 78 75 70 89 82 84 82 88 89 92 86 77 86 84 87 84 83 66 72 73 63 59 58 58 53
89 94 93 99 96 77 58 61 59 62 74 86 84 72 68 71 72 69 69 66 77 72 88 91 91 86 86 69 70 70 70 65 66 63 81 85 76 68 76 74 77 65 60 57 53
93 96 97 99 96 71 57 68 68 66 81 75 76 72 74 79 74 68 67 76 84 93 83 91 89 75 73 67 73 72 77 76 62 60 70 74 82 62 74 73 70 67 57 54 46
96 100 96 99 91 68 63 72 75 74 86 77 81 87 83 72 88 77 82 73 84 83 96 100 88 72 72 75 78 79 79 74 70 57 57 66 72 65 57 65 66 64 57 49 42
98 99 99 93 80 73 69 71 74 72 94 97 83 77 78 71 78 74 81 78 83 91 91 91 76 75 79 77 71 82 68 65 62 69 85 56 84 65 57 68 57 56 45 40 41
100 100 100 84 73 70 72 74 76 68 88 77 85 85 77 70 69 70 76 71 89 91 95 97 85 85 86 78 60 71 68 66 63 70 69 67 74 62 52 59 51 46 43 38 41
100 93 71 81 80 76 73 74 72 82 94 92 84 84 89 83 86 73 75 72 70 81 86 92 80 77 80 83 68 70 72 75 79 74 90 74 70 68 56 44 40 40 38 36 36
74 65 69 76 80 75 72 73 82 93 68 84 82 79 80 91 84 77 84 90 83 95 100 97 94 84 76 84 75 66 76 92 94 95 90 73 80 57 45 45 39 37 36 38 37
63 67 73 76 78 80 77 80 88 75 87 69 78 74 88 81 75 84 83 93 88 88 98 99 99 89 81 78 84 81 77 87 93 92 83 72 79 57 46 43 41 38 38 40 46
72 72 79 85 80 85 79 90 77 79 73 84 77 92 80 84 80 74 82 80 88 84 89 90 94 82 81 83 79 87 89 65 83 80 84 67 62 44 41 38 39 40 42 45 45
69 76 88 85 84 79 87 88 86 65 67 84 79 73 83 81 84 84 87 76 83 77 61 76 96 82 84 78 81 80 74 86 95 97 92 71 64 49 38 33 35 36 43 50 56
71 83 92 90 88 85 89 90 80 71 73 79 73 74 65 94 86 84 84 70 74 86 69 71 73 93 90 97 95 95 93 89 78 78 82 75 53 46 44 37 37 38 41 58 68
69 68 90 95 87 95 93 77 66 71 76 78 69 69 69 61 90 93 90 76 74 82 87 69 77 89 87 80 74 73 81 78 86 84 86 76 61 37 39 42 47 47 57 71 75
82 83 72 91 79 92 80 74 77 71 64 61 63 66 61 65 69 78 71 57 77 78 80 75 93 96 97 87 81 89 79 76 81 81 96 89 65 39 44 46 48 61 69 78 79
62 56 67 86 85 80 86 74 78 66 75 64 62 56 60 66 64 65 66 62 69 72 66 66 89 77 77 68 82 98 92 82 86 96 74 76 64 50 45 46 44 52 69 79 76
77 61 70 70 59 78 86 85 85 84 70 68 67 74 72 80 68 73 64 65 66 61 77 86 100 90 78 63 82 84 85 88 96 81 86 67 64 51 47 42 45 43 61 80 78
58 65 89 76 77 73 76 82 74 70 66 73 76 63 78 93 75 100 95 77 72 71 76 70 98 81 86 68 73 85 83 89 84 78 79 72 75 51 47 51 58 55 55 74 78
93 93 65 67 76 57 60 65 61 56 48 60 58 62 75 70 87 80 79 81 74 73 78 82 94 97 94 74 71 90 80 76 73 81 77 90 67 55 60 61 57 58 58 58 68

GFSSW_925_rhum_084.txt.gz
RH
91 86 88 89 88 86 83 83 85 86 85 82 83 88 89 80 79 82 90 69 72 71 80 72 70 67 76 69 68 60 73 55 42 40 32 41 37 44 40 39 43 41 49 56 75
92 89 89 86 85 83 81 86 88 85 84 83 84 85 76 77 73 78 75 73 92 91 75 63 62 59 61 67 68 73 72 50 33 33 34 41 35 41 36 40 41 37 38 57 96
94 88 87 85 82 82 81 86 85 86 86 84 84 87 75 78 62 68 76 68 93 88 76 76 56 51 53 63 65 56 77 48 42 35 36 42 45 46 33 43 44 44 41 54 85
92 82 86 83 85 84 82 85 85 86 88 88 86 80 68 65 72 76 87 84 83 81 78 74 56 57 56 61 59 69 52 51 56 56 47 45 43 43 44 42 42 42 38 50 61
88 87 92 84 86 89 86 87 86 89 91 88 86 61 61 47 55 72 78 73 71 74 72 66 53 50 53 51 61 57 55 57 64 55 51 50 49 37 44 43 42 39 37 39 51
89 90 90 85 92 92 91 88 88 89 88 90 83 51 51 56 54 62 59 71 68 78 73 81 50 42 46 56 54 51 52 56 55 55 51 50 54 52 40 42 40 40 38 38 38
94 91 88 90 97 96 94 89 87 83 86 90 64 63 47 56 58 57 54 62 65 72 69 87 71 54 42 61 48 45 59 63 61 54 55 46 51 58 36 42 40 38 37 36 39
87 92 86 94 97 95 94 86 65 70 64 76 62 60 54 51 59 57 65 58 68 69 67 82 72 57 50 53 56 51 46 60 56 59 56 50 52 34 38 39 35 34 34 36 37
87 86 89 92 96 93 68 64 63 64 69 62 65 56 53 54 58 63 72 63 66 68 69 78 62 61 59 60 66 60 54 50 68 57 56 55 47 35 41 43 37 32 30 33 36
90 90 90 93 98 82 56 62 61 57 67 58 66 50 51 65 68 72 65 66 64 63 71 84 69 64 58 63 64 70 51 49 50 60 59 54 50 41 46 48 38 30 28 33 36
86 94 94 95 98 78 54 65 48 54 60 68 70 65 60 67 69 64 70 62 64 62 83 87 89 64 50 52 47 47 51 51 47 51 56 51 49 42 39 46 43 38 31 30 34
90 92 92 96 94 70 53 51 63 62 70 70 66 64 68 77 54 65 63 70 73 77 80 94 87 49 56 53 50 49 46 48 51 49 59 49 53 42 39 43 41 38 37 30 32
98 96 97 99 85 65 68 71 70 69 69 72 69 67 67 64 71 77 64 72 67 70 74 99 83 55 54 59 55 50 44 49 48 48 53 54 50 47 42 42 41 40 42 34 32
99 98 99 85 74 72 65 69 72 68 95 77 68 68 66 62 72 68 74 62 66 74 74 77 68 64 56 56 50 61 52 50 54 54 59 50 50 43 37 41 43 39 39 39 38
98 98 96 80 73 69 73 71 74 67 83 66 70 73 64 57 64 62 70 67 67 78 75 92 80 67 63 56 48 51 54 53 54 53 55 56 63 36 37 40 39 37 36 37 38
100 91 80 79 75 75 72 73 71 92 89 86 71 70 70 69 62 63 66 61 56 69 80 89 70 57 48 64 56 57 57 55 53 51 66 41 53 37 35 31 31 32 32 36 36
61 70 81 75 72 74 73 70 96 86 68 83 72 68 67 69 71 63 68 72 71 91 100 94 89 73 68 65 61 56 57 78 77 82 59 51 53 34 26 30 28 28 26 28 33
62 75 78 76 76 77 78 71 93 70 83 63 70 65 70 64 62 60 60 66 65 60 97 100 97 85 67 61 68 55 50 56 67 56 44 58 53 30 27 28 28 28 27 29 29
72 79 85 83 84 86 65 99 72 81 72 70 70 79 66 70 68 66 57 51 57 62 70 76 90 78 74 68 62 70 86 52 70 61 63 42 42 33 25 28 28 29 31 31 29
72 82 89 85 82 77 74 86 75 57 60 71 67 61 61 67 75 75 58 47 60 58 54 59 90 80 86 71 72 65 49 76 86 81 66 48 45 29 26 25 23 22 24 25 32
77 68 93 87 82 63 99 78 70 60 62 68 62 62 58 71 70 74 67 56 56 66 56 55 60 91 92 96 97 83 74 70 55 55 60 47 34 26 30 26 27 25 30 36 38
76 68 94 92 75 77 77 70 64 63 66 66 64 61 59 54 74 76 69 55 53 62 71 54 59 85 77 66 61 60 57 57 67 67 59 59 41 28 26 27 30 31 40 48 52
62 71 77 98 72 66 61 62 69 67 61 60 58 57 53 58 63 57 58 52 58 62 64 62 88 92 90 79 76 86 66 62 55 64 87 64 43 29 31 32 34 36 36 47 54
48 58 52 58 66 52 53 58 62 62 65 62 58 53 56 59 51 64 58 55 60 64 64 56 78 64 57 56 56 80 64 61 77 96 63 65 46 31 31 34 33 30 30 39 51
50 46 59 54 41 55 62 67 65 62 64 60 63 62 65 60 56 58 55 54 67 69 71 83 100 79 63 59 66 68 65 65 88 77 79 55 48 40 32 28 27 30 33 39 51
44 45 61 54 57 53 58 54 70 63 59 55 68 55 56 80 72 100 98 88 74 81 77 92 100 100 100 84 69 76 63 61 61 64 60 56 55 36 31 31 35 36 36 40 40
89 77 36 57 53 40 35 53 53 51 40 44 50 58 56 48 55 55 90 96 100 100 95 79 92 93 87 86 94 92 66 61 60 56 58 73 52 38 40 42 41 38 37 40 40

GFSSW_925_rhum_087.txt.gz
RH
94 89 89 85 81 82 81 86 88 84 83 82 83 84 87 84 75 75 62 79 83 81 90 79 60 48 64 70 62 54 69 50 29 28 29 27 32 33 32 36 36 35 40 51 66
95 86 86 82 82 82 81 86 84 84 84 84 84 85 85 74 70 60 72 67 90 97 78 64 51 42 60 83 68 72 68 43 23 22 29 31 25 30 30 35 39 35 39 72 85
93 91 93 83 85 84 82 85 85 85 86 86 85 85 73 76 60 81 82 73 91 91 79 68 47 38 47 57 78 56 63 34 38 48 32 38 30 30 25 35 36 41 40 71 89
92 95 86 94 83 87 86 86 86 87 91 87 84 75 59 60 98 75 92 94 85 80 73 62 49 44 42 55 73 67 47 54 39 56 38 37 30 32 25 34 33 35 37 58 82
92 96 79 94 95 92 91 88 87 88 88 90 81 49 56 43 54 58 75 75 74 66 67 59 49 43 40 36 53 59 65 47 50 45 37 32 36 30 34 36 34 33 34 41 64
90 86 85 79 95 95 94 91 87 86 85 91 70 53 46 54 50 57 59 68 64 67 60 66 46 36 35 32 44 44 73 52 57 48 42 43 37 44 30 34 35 35 33 36 40
91 86 88 83 93 96 95 93 88 81 63 85 72 53 38 50 49 51 58 66 59 68 58 78 69 42 34 40 32 35 57 56 47 56 47 40 43 51 27 33 32 35 33 32 36
82 85 84 82 93 96 95 86 70 71 64 73 53 51 44 47 50 52 55 52 56 67 65 76 72 52 47 37 41 40 45 71 57 46 42 44 43 33 29 31 33 28 28 30 33
92 91 85 86 95 96 85 58 60 61 65 60 54 46 46 47 50 56 59 53 56 63 80 82 73 55 51 54 59 47 50 50 50 41 41 49 42 28 27 34 35 28 24 26 29
88 86 89 88 96 82 62 53 61 58 58 54 46 52 44 53 54 60 59 58 50 74 72 88 71 56 48 48 62 54 39 32 38 48 45 50 44 28 32 39 36 29 24 23 26
87 90 91 91 96 80 62 60 47 50 50 56 56 52 51 52 52 55 61 50 48 67 81 89 85 63 44 38 36 30 34 29 27 35 48 47 40 35 29 35 38 31 26 22 23
93 97 95 92 88 67 63 43 56 62 58 52 52 48 55 62 57 57 55 52 50 71 71 86 70 46 36 35 43 42 35 37 38 38 42 36 37 31 29 29 30 31 28 24 21
95 99 98 96 82 68 55 60 71 67 60 57 55 52 56 56 74 63 57 54 49 58 68 98 59 49 47 49 45 41 38 47 42 41 41 40 44 36 29 28 28 30 28 28 29
97 99 98 84 83 63 56 72 72 67 95 62 51 57 52 51 66 62 60 61 52 56 65 79 60 58 50 46 39 47 34 33 40 48 50 39 38 23 24 29 30 30 30 28 32
98 99 95 85 69 62 67 76 74 62 87 57 58 60 53 52 53 58 60 55 52 58 65 74 67 60 52 41 39 42 42 43 45 47 47 47 53 31 24 30 28 27 28 26 29
96 96 79 77 73 71 75 73 65 92 86 77 57 56 50 51 50 51 55 53 44 56 65 75 62 47 42 42 46 47 47 44 47 52 87 44 46 35 26 28 24 22 23 24 26
76 75 91 81 64 72 77 62 94 89 64 76 62 58 56 55 55 52 57 65 70 88 97 92 76 56 61 60 50 47 47 73 77 85 64 33 34 33 21 20 21 22 21 22 23
66 79 79 80 82 81 72 65 97 60 80 58 60 57 64 51 50 49 53 61 50 59 90 95 100 69 49 51 52 48 46 54 59 47 39 42 44 30 19 19 16 21 23 24 24
72 88 83 87 88 87 62 99 70 74 70 59 61 70 53 54 55 55 49 46 38 48 72 97 97 65 62 52 59 56 67 39 58 47 49 35 32 23 20 23 25 24 25 26 24
74 72 79 93 79 76 70 79 63 51 52 58 59 49 47 57 65 59 50 35 37 41 46 78 98 75 73 62 60 75 46 71 75 69 53 28 34 27 21 21 20 20 21 21 22
69 62 90 95 85 60 96 62 55 48 52 58 49 49 46 46 52 62 50 40 35 41 38 43 69 86 92 91 59 68 70 61 52 40 49 35 31 22 22 21 25 24 29 32 31
65 64 93 92 70 58 62 52 62 51 51 58 57 51 47 42 46 57 54 47 40 41 59 47 65 99 84 68 58 54 53 50 65 59 51 49 44 21 23 23 25 30 35 38 41
51 60 76 87 66 58 44 45 55 56 53 52 52 47 40 46 49 40 45 35 48 56 52 52 85 86 94 86 73 88 76 64 50 49 97 64 43 26 26 27 28 30 27 28 41
45 58 53 55 44 35 34 35 39 53 57 49 49 46 46 44 39 45 44 50 52 60 77 71 72 66 67 67 52 76 61 56 68 100 64 62 43 30 27 31 29 29 24 25 28
36 35 49 54 36 36 41 40 36 41 50 52 46 48 50 52 35 32 36 40 47 61 83 96 100 82 59 53 52 63 59 55 80 73 80 54 46 35 30 28 24 22 23 27 31
35 34 41 36 39 36 46 35 42 37 49 28 46 38 42 40 32 42 58 79 88 77 88 94 100 99 100 94 59 66 55 54 54 55 62 58 54 34 30 28 28 26 27 30 32
62 49 28 42 33 28 19 29 36 44 30 35 41 43 38 37 48 44 42 50 94 99 100 100 100 100 95 96 100 98 72 59 54 48 49 64 48 35 35 33 32 32 31 32 30

GFSSW_925_rhum_093.txt.gz
RH
92 90 92 88 80 81 83 81 82 82 86 85 82 81 82 85 76 71 81 90 86 90 90 82 70 69 69 92 80 82 89 84 65 50 48 36 41 35 37 47 56 59 71 82 87
89 91 94 85 96 86 84 83 82 84 86 87 86 83 81 80 78 67 71 88 86 92 82 93 82 73 76 88 82 89 89 73 58 57 41 40 37 38 45 46 76 94 80 87 88
87 92 91 90 88 94 90 89 84 84 86 86 86 85 80 69 69 61 66 80 93 89 86 96 93 88 80 82 91 84 81 66 72 60 50 43 37 35 48 50 48 96 98 98 94
85 90 92 91 89 91 95 91 89 85 85 80 85 88 69 61 91 58 70 79 91 76 72 88 78 83 84 85 92 83 72 75 73 73 51 58 47 36 40 47 47 83 89 91 94
87 86 91 83 85 91 95 94 90 87 83 74 82 66 65 54 57 52 63 69 67 66 84 88 87 81 80 74 78 86 69 70 80 79 64 59 66 54 51 45 49 78 82 89 86
91 89 88 92 88 90 90 90 92 92 79 70 76 59 66 69 48 50 53 57 64 67 79 89 84 80 72 75 73 78 76 73 72 73 73 62 65 72 48 43 42 71 83 89 88
95 93 90 95 90 90 93 94 95 64 59 47 57 76 52 53 48 53 55 57 56 68 74 81 84 82 64 80 63 64 84 76 65 80 79 66 76 78 47 45 44 47 64 80 81
96 94 90 88 94 93 83 58 66 53 46 47 58 78 52 45 48 54 56 57 69 72 69 66 62 67 62 52 67 82 76 85 76 78 69 83 78 72 49 49 51 47 52 52 57
95 93 91 93 95 91 52 45 45 53 51 46 57 60 56 44 50 54 56 69 62 58 56 55 61 69 64 63 79 69 94 88 80 79 81 72 76 54 44 48 49 52 50 52 52
97 97 94 94 94 77 45 50 41 48 52 52 53 53 50 56 51 54 55 61 63 62 67 76 84 82 74 78 87 74 78 85 83 78 76 84 76 55 41 44 50 50 47 46 53
97 97 95 97 93 63 48 59 65 65 48 58 56 53 52 52 53 54 55 58 59 71 89 88 84 83 73 63 53 50 51 54 61 68 71 78 70 55 43 44 50 50 45 43 43
97 95 95 94 78 54 66 69 67 65 66 46 47 51 50 54 63 62 55 61 67 94 80 84 82 67 60 54 52 48 48 53 68 64 70 73 71 53 46 48 50 49 48 45 40
92 92 93 83 62 64 62 66 65 65 80 58 50 50 57 58 66 70 64 64 67 82 78 80 80 68 61 60 52 51 56 53 71 63 68 73 76 52 41 39 48 47 44 42 41
88 87 92 70 80 60 64 58 60 64 87 65 63 59 56 49 68 54 56 67 54 78 79 75 63 67 69 61 52 63 49 55 61 70 84 52 81 55 42 43 38 45 49 43 40
81 84 89 84 77 70 66 55 57 64 72 53 63 52 52 60 58 65 54 67 63 64 67 74 77 73 70 58 45 54 52 59 68 59 64 58 76 66 41 45 39 41 44 44 40
74 80 78 77 75 70 69 65 67 84 67 77 63 65 65 55 57 61 64 59 63 57 61 72 66 71 64 58 51 48 54 56 56 67 91 72 76 73 48 37 40 39 36 39 42
64 75 84 80 76 71 71 75 90 73 63 72 66 58 56 61 64 65 72 73 82 78 78 82 75 72 60 66 61 55 69 95 94 95 88 60 75 60 43 35 30 36 38 35 41
60 79 82 79 72 70 77 87 67 65 86 60 59 59 68 56 59 66 64 73 68 75 93 93 74 81 66 72 72 73 75 88 81 94 72 51 68 48 35 30 28 30 34 33 34
72 85 82 81 76 79 91 94 68 80 78 71 62 72 70 61 56 59 66 67 52 62 83 95 83 68 62 59 60 68 81 57 86 78 84 64 49 36 31 28 31 30 32 32 33
87 88 83 80 78 82 94 85 65 63 55 56 70 65 64 64 70 72 62 51 56 49 56 72 93 77 68 61 69 72 65 76 97 94 78 54 48 46 28 31 34 40 42 39 33
82 95 93 82 79 95 91 94 58 49 50 61 64 62 51 51 72 67 59 51 44 58 53 75 92 94 80 90 86 91 93 84 76 74 74 60 49 33 35 40 47 50 51 50 49
85 98 95 82 96 97 98 63 52 54 53 59 57 64 67 62 57 52 69 56 56 67 89 79 98 99 98 79 64 65 83 80 92 84 78 80 62 33 37 42 50 52 50 48 46
93 98 92 88 98 95 58 44 54 56 61 64 66 60 50 53 60 50 44 57 59 70 83 85 99 99 99 98 87 98 84 86 88 91 91 80 66 34 36 35 43 51 51 54 52
77 97 92 95 92 62 55 45 53 53 54 54 52 49 56 59 53 55 45 49 54 79 70 81 100 99 93 95 84 99 79 76 94 99 85 86 57 39 37 35 35 40 38 51 57
72 76 74 95 87 53 34 35 41 57 57 47 56 58 49 59 59 55 47 48 59 81 90 92 99 100 96 81 94 95 83 86 99 86 81 61 62 47 44 40 35 36 37 37 42
67 60 53 53 52 51 50 37 41 40 46 40 56 45 44 49 46 59 62 59 64 82 91 98 96 99 98 87 97 85 80 81 81 85 84 79 73 43 40 47 44 43 42 41 38
57 48 44 54 45 46 50 35 45 38 38 40 43 46 49 57 58 59 56 57 71 83 79 90 98 94 93 99 99 98 94 82 66 67 75 90 65 47 51 48 47 42 39 40 40

GFSSW_925_rhum_096.txt.gz
RH
88 89 91 93 87 95 86 84 83 84 84 86 85 84 84 83 76 62 76 79 92 83 94 84 74 78 97 93 88 88 90 84 66 50 42 39 39 37 45 62 78 68 79 81 89
86 85 90 92 88 90 96 88 90 84 84 86 85 88 87 86 73 55 58 74 90 86 88 92 79 85 87 83 92 95 87 75 65 58 42 40 39 45 50 70 94 94 95 96 93
88 84 92 91 90 89 92 93 90 87 84 84 81 85 76 70 78 54 61 72 87 82 78 96 79 88 81 89 91 88 84 78 83 77 62 41 44 41 52 53 83 89 98 98 96
87 88 85 91 93 91 92 94 89 87 88 82 82 74 54 61 86 50 63 79 84 77 78 80 78 80 80 88 85 92 80 78 85 80 67 63 46 50 45 47 71 88 88 95 96
93 90 89 90 94 89 93 91 88 90 90 88 80 58 56 58 58 50 58 57 67 78 79 75 84 86 82 87 90 90 92 78 80 75 75 60 75 64 54 55 85 92 91 94 95
94 94 91 91 94 91 93 95 95 94 92 87 81 53 58 68 46 51 55 56 61 72 81 80 81 78 95 81 76 84 92 78 78 82 74 64 73 54 48 54 88 91 97 94 91
95 93 92 90 93 91 94 87 68 74 60 70 78 66 69 53 48 53 56 58 57 76 83 80 83 93 71 78 71 80 88 85 78 88 85 77 64 65 58 47 74 86 93 91 91
96 96 93 93 96 94 73 43 47 54 52 53 70 63 60 44 49 54 65 72 72 74 78 71 83 87 71 64 68 84 81 95 87 88 82 76 76 65 68 60 54 66 82 89 85
97 92 93 95 96 97 55 37 42 48 51 54 55 60 61 44 52 53 57 66 61 58 62 72 75 72 61 79 84 75 98 90 86 85 88 78 85 58 64 62 59 56 63 69 76
97 88 85 81 94 95 51 39 38 51 51 55 53 51 46 61 54 53 55 61 62 60 58 71 75 72 78 76 88 84 94 85 79 88 86 90 82 74 66 61 56 59 58 59 59
90 90 78 74 94 85 58 55 63 61 51 53 54 56 53 53 52 52 58 58 58 73 79 81 74 76 69 64 58 57 76 75 67 70 77 76 81 75 74 65 51 59 58 54 55
84 92 77 63 78 70 71 66 67 64 64 50 51 53 51 55 68 57 56 64 72 90 80 76 70 78 72 64 58 56 59 63 68 64 71 66 66 60 70 60 49 55 54 53 47
78 86 73 55 64 71 66 64 65 66 73 58 50 51 52 57 67 68 65 71 75 80 76 79 75 69 65 64 58 56 57 67 71 76 72 72 74 67 55 48 48 52 49 48 47
72 85 74 58 78 66 63 58 60 65 84 64 65 59 58 52 62 53 59 68 56 80 75 76 64 69 71 63 55 64 52 51 69 80 94 72 90 58 56 47 46 48 56 51 49
64 81 75 72 82 72 65 60 58 59 55 46 67 52 56 62 56 62 55 67 70 68 66 71 77 82 72 62 54 57 52 62 70 68 63 71 72 68 52 52 43 45 51 52 49
72 76 72 80 82 71 70 60 64 79 45 78 71 76 74 58 60 61 63 60 64 61 66 72 64 73 71 63 57 48 61 64 80 89 94 68 71 70 61 45 37 38 39 40 44
81 78 71 82 80 72 69 72 85 62 62 69 75 67 62 68 66 68 73 72 80 82 84 78 73 71 64 66 60 59 89 99 98 98 92 67 81 62 47 43 34 34 40 42 43
84 81 82 80 74 71 74 80 44 58 83 56 63 61 69 64 65 72 69 83 72 70 95 97 72 82 70 67 71 73 91 92 83 92 78 65 84 56 40 37 38 32 37 41 43
88 89 82 78 74 74 85 98 51 75 74 76 69 74 71 65 56 68 76 71 61 65 92 97 84 68 69 65 62 74 87 60 83 81 88 63 52 39 35 30 33 36 38 35 34
88 88 86 82 76 79 92 82 68 63 62 60 72 70 75 70 71 74 72 59 59 57 54 69 98 74 68 66 74 68 64 89 98 97 85 63 62 48 32 38 36 41 43 37 35
84 96 93 79 76 91 97 79 68 53 52 63 71 68 60 58 72 76 64 52 50 66 60 66 90 88 86 89 89 86 92 81 71 68 82 61 54 36 36 35 44 48 49 49 46
88 98 96 80 96 94 98 87 50 58 55 59 60 64 68 61 62 68 71 61 64 63 64 74 96 98 84 85 84 80 77 70 83 83 78 77 56 37 41 47 53 57 54 50 51
98 98 97 87 98 98 80 47 54 62 64 69 70 66 62 58 61 55 48 56 63 73 82 81 100 97 97 93 91 99 83 80 88 88 88 79 58 38 38 52 53 54 54 53 50
92 99 95 97 91 89 65 53 58 55 60 60 57 53 57 62 57 60 45 50 64 78 69 81 96 98 96 98 98 100 98 84 87 98 87 86 54 41 42 42 46 48 48 53 54
77 80 81 98 96 77 52 49 54 64 55 55 57 54 52 58 57 58 52 54 75 81 84 86 93 94 90 87 99 100 97 98 99 88 85 68 70 51 42 42 36 36 37 40 46
78 74 66 68 61 73 47 44 41 49 61 53 57 46 44 53 49 51 60 60 64 76 82 92 94 97 84 80 86 88 96 97 98 92 80 86 81 46 39 42 45 43 44 45 44
64 50 46 54 55 51 54 40 44 46 46 41 48 48 46 48 58 58 58 58 72 81 80 91 98 90 83 76 91 92 84 90 88 86 89 97 70 50 60 53 52 51 48 46 45

GFSSW_925_rhum_099.txt.gz
RH
90 86 87 91 95 88 96 94 87 90 83 83 84 83 87 90 69 52 63 67 85 84 82 94 83 82 96 90 90 83 97 71 69 47 42 40 45 43 56 68 83 78 82 78 100
91 88 82 89 90 93 89 93 91 85 86 84 83 83 89 88 65 67 57 75 87 79 79 91 85 85 95 87 92 98 95 68 86 72 47 45 45 52 62 83 94 93 92 97 98
93 89 87 82 94 92 90 90 93 87 86 86 84 86 79 56 64 52 60 70 89 85 90 98 96 94 89 82 93 95 89 84 91 79 68 44 50 45 63 61 84 96 94 89 90
95 91 90 88 90 91 89 91 92 90 88 89 89 80 50 51 86 48 60 64 75 85 73 80 87 84 89 82 88 98 92 87 88 76 70 68 49 54 48 47 57 86 90 91 88
96 95 96 91 91 90 90 93 94 92 92 92 91 59 47 57 58 48 57 56 63 84 88 75 84 88 88 83 90 94 89 82 80 76 75 64 74 58 62 88 90 93 94 94 91
96 95 97 95 92 92 92 95 96 93 95 95 93 59 52 72 47 52 58 57 58 74 80 67 73 79 92 89 84 86 93 82 80 80 80 82 67 54 57 84 98 94 95 98 95
94 96 97 95 94 93 95 96 90 57 58 90 94 74 57 55 45 52 65 63 58 71 74 74 76 81 78 90 73 88 92 78 82 81 81 85 66 76 74 61 95 96 95 96 97
94 97 97 97 94 91 66 80 52 48 52 61 90 69 54 42 48 53 59 65 69 78 80 83 80 84 82 75 81 90 91 98 82 81 73 77 83 69 72 61 63 77 95 96 92
95 96 96 98 95 76 42 41 42 45 50 57 64 58 59 48 52 52 56 62 64 58 60 70 76 72 63 82 89 82 98 100 88 84 81 83 85 68 65 70 62 57 71 90 94
94 92 96 92 94 72 41 37 38 48 52 56 58 47 47 58 52 52 56 60 64 62 56 68 71 72 77 73 88 97 93 91 93 87 87 83 83 78 70 67 70 62 58 64 74
74 91 93 85 91 67 47 51 63 56 53 55 55 55 52 53 53 49 58 60 59 69 78 74 80 82 83 77 67 70 78 79 78 79 86 86 86 80 71 76 72 66 58 59 60
82 87 93 82 89 65 65 66 65 60 63 52 53 54 52 57 64 56 56 64 72 73 74 68 73 80 76 64 61 60 74 70 68 75 75 86 85 79 81 75 69 64 58 59 54
89 92 87 81 76 64 66 64 66 66 72 60 52 52 53 56 66 61 64 68 73 80 75 66 70 71 66 62 60 60 63 67 71 79 74 78 81 76 69 65 66 59 56 54 53
89 94 86 82 77 69 64 62 61 64 82 56 71 59 60 56 57 53 60 65 58 78 75 74 68 70 67 65 57 64 54 54 84 86 94 69 77 62 64 68 62 58 58 58 57
96 83 85 90 74 70 66 55 52 55 62 44 71 54 58 63 55 63 56 66 70 72 64 63 76 77 71 64 59 59 57 62 82 72 73 90 81 66 54 68 57 53 54 54 55
96 76 94 98 83 72 65 53 60 82 47 77 73 80 75 65 60 62 64 61 63 63 68 69 65 76 70 63 61 51 69 83 90 84 95 77 80 72 67 51 46 45 43 44 42
95 86 98 82 79 71 62 66 88 84 63 73 82 78 71 69 65 69 72 74 76 84 87 78 72 69 69 71 59 69 83 98 98 98 92 70 82 71 49 46 41 38 37 38 36
91 89 96 86 74 69 65 81 94 47 81 56 67 67 72 69 66 71 72 86 74 66 94 96 74 79 71 69 70 82 92 93 89 95 94 72 86 66 40 38 42 37 38 40 45
97 94 97 81 74 69 80 97 75 63 71 77 73 77 74 68 62 73 80 75 67 75 81 97 83 63 71 68 64 80 93 81 98 81 90 81 57 41 36 36 34 39 38 36 38
98 98 89 77 74 74 91 93 69 62 65 65 64 72 77 74 73 78 72 63 61 66 58 70 96 72 69 74 79 73 72 91 98 96 92 72 63 51 33 35 36 42 41 36 37
96 99 91 79 78 85 98 89 67 57 55 64 72 77 68 68 75 80 70 56 57 62 60 66 89 79 94 94 87 90 89 78 78 86 91 72 56 46 41 31 39 42 43 41 42
96 98 94 82 96 95 99 90 56 60 56 62 63 64 67 64 66 81 73 72 68 62 71 67 85 89 87 88 91 86 78 75 87 90 80 80 65 40 49 47 41 49 51 49 46
98 99 98 91 98 98 90 66 58 64 63 66 68 64 63 64 62 61 63 59 67 71 76 70 96 97 88 95 90 99 87 76 77 82 89 84 64 39 42 54 54 55 54 54 52
98 98 100 98 95 94 75 55 56 56 66 65 62 59 60 63 58 60 53 60 70 85 80 75 91 92 92 91 98 100 100 82 83 98 84 74 52 38 36 45 51 50 50 51 53
92 91 87 97 95 94 64 58 63 66 54 59 60 56 62 67 60 64 51 50 68 80 89 82 78 83 87 87 90 96 98 100 99 82 83 68 64 47 40 39 39 44 40 39 43
89 81 81 88 81 93 66 52 57 61 64 59 54 48 50 60 54 58 56 57 58 71 83 89 90 96 96 70 86 92 80 91 99 98 92 88 88 57 40 40 43 47 46 45 45
71 53 53 65 82 77 59 38 47 53 47 46 56 50 46 44 54 58 55 62 75 78 78 93 97 93 84 73 92 89 82 74 77 87 94 99 70 54 64 65 60 54 53 52 48

GFSSW_925_rhum_102.txt.gz
RH
91 90 89 84 89 92 91 88 92 86 86 85 83 82 86 90 86 55 59 66 83 82 84 90 93 80 94 94 87 87 95 92 86 68 41 41 51 53 57 65 79 73 79 83 100
93 90 90 88 85 93 92 89 88 86 84 84 84 85 90 92 76 68 58 73 82 82 95 92 91 81 93 93 92 86 96 85 60 70 50 43 48 67 71 93 90 89 92 100 100
94 92 89 91 86 90 90 89 87 88 87 87 87 91 92 81 64 52 55 67 79 85 87 96 76 82 87 86 90 91 95 77 68 88 76 47 54 49 74 82 82 71 97 97 94
94 94 91 94 93 89 95 91 90 89 89 90 91 93 88 61 78 47 56 62 68 86 84 78 87 93 90 89 84 83 78 88 86 83 70 54 49 57 53 60 73 89 88 91 92
91 95 90 96 96 92 94 94 94 89 92 94 95 94 65 56 58 50 59 58 57 82 88 83 88 90 92 86 87 89 87 83 91 84 75 64 66 64 72 82 87 87 88 89 88
80 95 95 95 94 94 95 96 96 96 94 63 95 95 61 66 45 49 60 61 59 65 84 88 84 90 77 83 76 89 87 86 88 84 79 71 68 57 67 72 97 89 85 83 86
89 89 96 93 96 94 96 96 94 57 59 53 92 94 72 56 47 53 59 71 67 67 78 77 80 80 80 84 82 83 85 86 88 81 80 81 81 89 80 80 98 98 92 90 80
100 89 96 86 97 96 97 96 61 47 48 51 81 74 65 39 50 53 56 62 65 77 80 79 79 79 77 75 82 86 92 100 84 83 76 71 96 76 74 70 71 81 96 98 96
100 94 86 73 96 92 97 53 44 43 50 54 62 64 62 44 52 52 57 60 63 61 60 73 72 72 68 86 93 87 99 100 94 82 78 77 90 76 71 71 69 69 72 86 99
100 99 83 58 85 80 94 44 39 45 52 56 60 52 44 58 52 51 57 60 64 61 54 67 69 77 77 77 92 96 96 94 97 86 74 81 84 72 70 77 73 73 63 64 72
100 99 83 66 87 84 83 53 57 56 52 60 60 58 56 53 54 50 59 62 59 65 74 71 83 86 84 79 69 76 84 88 86 85 81 84 77 71 74 76 80 69 62 55 56
100 100 90 91 82 89 88 68 58 54 63 54 58 58 53 57 66 54 57 64 68 74 65 68 85 76 79 74 62 72 82 83 85 85 80 86 74 67 69 76 71 72 66 59 54
96 99 90 87 81 90 79 63 64 64 73 63 54 55 54 57 65 62 66 66 75 78 78 67 68 70 65 61 61 61 70 70 83 88 78 88 87 83 75 77 68 66 66 58 56
87 99 90 77 86 80 70 61 62 60 83 54 73 60 60 57 57 53 61 68 64 78 78 75 70 70 66 66 60 65 56 58 88 86 91 73 72 83 74 74 69 64 69 64 58
99 100 90 92 89 73 64 57 56 51 84 45 73 54 60 63 58 61 59 62 72 75 67 65 81 78 73 63 59 63 63 68 85 81 85 88 85 65 69 75 64 57 58 66 59
98 100 90 99 95 77 65 55 59 82 78 76 78 80 75 68 60 63 67 60 65 66 69 70 68 78 70 65 63 60 76 84 90 83 98 82 84 74 70 59 52 48 52 58 53
87 99 95 94 85 72 61 66 85 94 65 80 90 86 75 72 67 70 71 77 74 78 87 78 69 67 72 75 61 70 74 96 98 99 93 75 92 69 53 49 45 44 47 50 47
87 98 94 86 84 72 66 79 95 56 77 56 74 77 78 71 68 74 75 84 74 68 97 96 73 70 68 72 71 82 77 89 88 97 94 80 95 74 48 40 42 43 38 37 39
98 100 96 84 83 74 80 96 78 65 67 80 72 78 80 70 64 74 79 76 69 77 78 96 82 60 68 70 68 84 97 74 90 80 92 86 71 44 37 38 35 39 39 39 39
99 96 90 85 78 79 93 85 72 56 68 68 58 69 78 79 76 80 74 66 65 73 59 69 94 69 76 75 81 77 75 96 99 96 95 76 68 56 34 34 34 41 41 38 42
93 96 83 84 82 88 97 88 68 62 58 64 65 84 68 78 77 82 70 64 69 63 66 70 86 74 84 93 89 95 100 90 87 84 92 77 58 47 42 39 35 40 42 42 44
93 99 99 83 98 93 99 85 63 64 58 63 64 64 73 69 79 81 77 69 64 68 73 67 85 88 72 76 91 80 97 96 92 97 83 83 68 40 46 58 50 40 49 47 47
96 97 100 88 98 97 90 90 69 65 64 65 67 62 62 65 61 73 68 64 73 72 86 79 96 96 75 82 87 100 98 93 100 86 92 86 72 39 48 63 60 55 56 57 52
99 100 100 98 95 91 93 74 65 59 67 64 65 64 63 64 60 65 64 67 71 87 77 74 89 82 89 78 90 98 87 93 100 98 94 77 57 40 40 50 54 55 53 53 52
99 95 84 98 96 93 85 60 64 68 59 60 63 64 68 74 62 70 51 49 70 76 86 86 86 84 73 80 89 92 87 85 99 97 96 71 65 48 40 38 39 48 44 43 42
98 92 92 93 86 92 90 70 63 69 63 64 57 58 56 63 54 62 58 53 55 66 83 85 91 91 88 80 84 85 82 83 88 94 98 99 92 63 46 39 43 44 46 46 46
90 59 70 85 93 90 88 60 56 56 46 51 58 52 49 47 55 58 61 68 77 74 79 95 92 96 92 71 84 92 84 80 76 86 84 94 77 70 76 68 62 54 55 56 51

GFSSW_925_rhum_105.txt.gz
RH
97 93 89 90 87 87 91 95 88 88 89 84 81 84 87 90 90 72 64 60 78 83 78 85 99 88 90 88 88 85 92 98 75 85 62 38 36 54 56 60 68 57 73 82 99
99 95 92 89 91 88 88 94 87 87 88 88 85 88 90 92 83 74 50 62 76 83 84 92 91 85 85 86 92 86 82 88 75 61 71 68 42 59 63 80 75 67 74 83 86
99 97 95 92 94 94 88 95 89 89 88 89 89 92 92 90 68 54 55 61 67 83 90 100 81 72 87 79 83 83 77 88 78 65 71 74 58 56 66 76 70 66 77 92 91
100 100 96 92 95 95 90 92 91 90 88 92 94 94 90 67 76 48 58 68 68 77 80 80 81 87 83 92 86 83 73 84 85 86 77 78 56 62 63 64 61 67 75 81 76
99 100 98 96 95 96 92 92 93 91 93 95 87 94 81 59 59 48 55 66 60 70 84 89 84 87 88 80 83 83 83 73 74 83 92 68 65 69 76 68 69 72 80 87 81
98 100 95 84 95 98 95 95 94 95 96 88 84 85 74 71 46 48 56 70 61 66 80 82 80 85 79 80 80 79 79 78 74 82 84 77 68 70 76 69 78 64 82 85 81
92 100 98 86 88 98 95 95 95 96 72 76 87 86 79 62 45 52 56 66 72 73 77 83 83 88 73 87 75 75 76 80 84 88 86 70 72 79 72 77 79 65 82 82 74
98 100 99 93 86 81 97 76 78 89 67 74 94 72 75 39 47 52 54 59 64 77 78 80 82 81 78 73 81 84 83 98 79 87 78 79 77 74 69 71 83 84 64 68 88
96 99 100 93 78 84 96 65 40 49 71 76 68 58 66 44 50 51 54 62 62 61 60 67 73 75 86 91 93 79 91 99 84 84 90 81 86 68 65 70 74 78 82 71 73
90 96 100 92 75 75 89 68 34 42 61 61 65 58 45 57 51 51 52 62 65 60 53 64 68 81 71 76 82 93 95 89 91 87 86 83 73 63 64 68 76 68 71 81 95
91 95 93 96 71 84 85 53 52 59 56 52 53 60 55 53 56 52 56 63 61 58 67 62 79 87 82 81 73 76 81 88 86 81 91 91 76 60 60 60 61 65 63 66 78
85 75 97 92 80 86 84 75 60 61 70 57 58 59 54 56 67 53 59 65 64 65 63 70 86 74 77 79 66 77 84 88 84 83 80 84 76 56 65 61 60 61 62 62 57
85 81 100 96 76 82 79 68 60 68 78 61 57 56 52 58 64 61 65 65 70 74 74 67 65 71 64 62 64 69 77 84 77 84 83 83 79 68 63 67 59 58 62 60 55
87 95 98 88 89 80 76 61 59 66 86 59 73 59 61 58 57 52 62 66 67 78 78 73 70 72 68 67 61 66 58 60 86 90 93 80 75 67 63 59 55 45 55 56 57
81 87 100 91 96 86 65 63 59 57 80 55 73 56 61 61 58 63 61 60 77 78 65 67 79 77 76 63 60 62 65 77 83 80 85 87 88 74 66 69 56 52 52 54 56
78 81 99 98 94 83 66 57 58 83 76 76 78 78 77 69 61 63 65 59 66 67 68 70 68 78 71 70 64 69 77 82 86 81 94 77 82 67 72 67 55 48 49 53 53
62 78 100 92 90 75 66 66 89 96 61 76 90 87 75 73 68 68 73 73 71 70 80 72 68 68 74 78 64 69 77 95 97 97 89 75 91 66 54 48 44 44 43 48 49
80 84 99 84 90 75 63 83 97 77 69 58 79 80 76 70 72 76 74 80 74 71 93 94 67 64 75 73 74 86 82 86 91 94 87 83 92 65 53 45 45 41 42 39 46
95 100 99 90 93 73 83 98 87 84 62 79 71 77 80 72 67 74 78 76 68 73 72 92 80 60 68 73 74 84 99 74 86 82 82 77 68 44 37 44 40 36 39 41 39
98 95 94 86 87 70 95 86 86 60 68 70 60 70 80 81 74 79 75 65 68 72 60 70 96 75 79 75 88 85 83 99 98 96 94 74 69 52 39 35 34 36 40 42 44
99 96 90 98 79 90 99 89 78 60 63 67 61 79 66 82 75 83 71 71 70 69 71 71 87 74 69 86 91 95 98 94 95 82 83 72 53 44 43 42 45 37 44 43 47
92 100 93 95 97 94 100 86 68 66 62 63 61 66 70 77 81 80 78 69 69 76 73 71 80 89 75 87 90 83 100 100 95 97 77 73 57 40 46 57 61 46 49 50 49
96 96 100 100 98 98 92 86 80 67 65 64 66 62 62 67 62 73 71 67 75 84 92 80 92 92 71 75 69 86 88 93 99 96 92 82 64 39 53 61 62 53 57 57 54
96 100 100 99 94 88 89 84 79 61 63 61 66 62 63 66 67 69 70 71 71 87 74 71 89 80 82 67 90 91 82 81 96 99 96 79 59 43 44 54 58 57 56 55 55
96 99 90 99 99 92 84 79 65 70 62 63 65 65 66 73 65 71 53 53 67 71 82 80 91 93 83 78 80 76 87 90 95 89 99 85 69 56 51 42 42 48 47 48 48
99 98 92 93 89 90 90 89 68 65 69 72 60 67 56 57 46 67 59 51 50 63 84 89 84 97 90 69 81 89 78 76 86 77 84 90 86 70 63 53 48 48 50 49 51
77 73 81 89 91 92 86 83 59 59 48 52 59 54 57 52 55 63 65 71 79 73 84 92 94 96 90 77 85 86 73 80 79 81 84 94 75 69 74 70 76 68 55 55 54

GFSSW_925_rhum_111.txt.gz
RH
99 99 99 97 98 92 93 94 88 94 86 87 88 87 86 91 83 59 47 38 49 74 78 65 62 68 76 65 50 46 75 72 46 44 44 49 78 48 44 60 34 30 33 35 60
97 99 99 99 99 91 94 93 89 92 87 89 88 88 90 93 70 45 40 54 66 76 66 66 60 57 62 56 52 71 73 55 34 56 80 61 75 75 69 59 36 41 32 59 80
98 99 98 100 99 94 93 96 90 90 89 90 90 90 93 87 47 34 48 62 68 75 70 77 63 51 52 40 44 53 78 39 55 76 82 72 71 71 84 74 39 50 74 55 79
89 96 100 98 100 94 92 96 93 90 91 92 92 87 85 64 65 37 50 62 72 71 66 56 54 56 57 61 47 62 45 50 62 70 73 83 84 82 72 55 47 76 85 56 78
80 81 99 99 100 94 90 96 93 92 93 94 94 93 74 44 37 41 49 51 63 64 61 57 64 57 67 50 49 58 54 61 65 73 75 74 75 79 61 44 42 64 80 59 70
81 82 97 95 100 97 80 95 96 94 95 96 92 87 69 53 37 42 47 52 62 59 53 56 60 62 71 56 54 47 57 58 60 67 73 75 63 67 64 46 48 54 62 54 54
82 82 92 99 100 99 99 96 96 96 96 97 96 81 64 46 37 40 48 48 59 68 68 73 72 81 60 67 54 53 63 66 60 58 64 58 55 68 58 49 47 44 50 56 55
82 83 81 96 99 100 99 82 90 92 84 96 95 74 55 38 39 42 44 45 56 60 72 69 76 83 67 51 57 60 65 77 53 59 66 59 78 59 48 53 45 40 49 57 59
83 84 84 89 97 100 99 85 85 97 97 95 84 65 43 36 38 41 45 45 48 52 66 70 83 72 58 70 71 50 56 81 50 58 65 60 61 56 62 51 43 40 45 59 65
84 86 85 97 68 80 100 83 90 77 82 71 59 59 39 33 41 46 45 53 51 46 53 59 72 79 76 83 96 56 51 44 54 59 59 58 64 66 63 47 42 46 38 54 71
88 88 87 94 92 83 99 70 62 64 53 47 39 37 36 37 46 44 45 46 44 48 60 59 78 74 52 50 50 49 43 38 30 52 59 53 63 65 54 49 46 49 63 58 63
91 92 87 88 100 100 86 70 50 61 54 42 40 38 42 45 48 41 46 47 45 51 45 52 66 49 54 49 51 47 41 39 47 50 60 51 56 57 50 44 45 51 63 63 82
84 94 84 90 95 94 90 71 61 63 61 54 45 42 40 45 43 44 44 45 46 46 45 57 56 48 50 50 48 44 46 43 48 53 54 65 59 63 49 41 42 46 56 64 78
95 92 89 83 95 96 81 68 70 71 90 62 57 50 48 47 49 40 46 54 46 54 46 44 39 50 50 49 43 50 42 46 50 54 52 46 75 62 54 49 46 45 56 61 67
91 84 91 84 94 97 76 73 72 63 88 55 59 50 48 51 44 48 49 48 51 44 53 54 53 55 51 43 49 51 48 47 45 48 46 43 51 50 49 52 47 43 47 53 66
83 86 90 71 92 94 84 75 66 91 83 69 57 55 56 49 45 46 47 46 47 49 42 45 43 52 54 52 49 48 51 45 45 53 66 39 45 46 48 49 42 37 39 46 54
84 92 82 80 76 92 83 63 94 95 60 71 64 55 47 49 49 47 46 44 48 61 70 49 42 41 54 56 43 50 57 76 75 78 56 48 49 34 30 32 39 38 35 36 44
88 73 85 90 80 92 74 72 98 75 68 54 59 55 48 44 47 50 46 41 45 41 53 56 59 46 42 53 64 59 57 73 82 60 41 50 51 45 30 30 29 30 30 30 34
76 74 95 92 89 95 68 100 75 73 56 57 57 50 51 48 48 48 40 39 44 41 50 48 45 39 45 50 54 75 77 55 70 44 46 37 36 26 25 28 29 29 28 31 27
82 82 99 100 98 86 82 80 68 52 52 54 41 44 36 47 45 42 37 47 50 47 41 45 62 47 43 45 52 57 65 81 76 78 54 37 36 40 36 35 28 28 28 29 33
82 93 92 98 83 76 94 72 60 50 52 51 42 40 36 41 41 38 40 52 48 51 45 44 51 50 38 52 53 54 74 73 97 88 90 58 50 35 42 40 38 29 32 34 41
80 97 97 89 98 83 72 63 65 57 52 52 43 43 39 43 44 42 44 48 50 55 48 50 51 65 40 44 48 50 60 76 76 95 69 71 71 33 37 35 32 35 36 37 40
86 95 98 95 100 87 63 60 61 54 54 50 46 46 44 43 42 44 48 49 51 57 57 48 66 68 49 60 54 56 51 49 81 95 84 75 76 34 33 37 39 38 36 35 34
85 100 92 94 94 84 62 56 60 54 54 49 46 42 41 42 40 44 47 50 51 54 59 51 89 74 57 62 59 64 50 42 68 86 71 63 73 45 46 43 37 37 34 33 33
78 97 88 97 94 75 58 61 58 52 54 49 48 44 39 39 41 41 44 48 43 48 45 45 71 57 49 47 50 52 54 46 72 67 81 57 62 55 46 42 42 35 37 38 38
82 99 87 95 73 63 64 65 58 49 51 54 49 49 43 36 33 32 38 39 35 40 48 55 82 82 76 52 56 53 41 42 49 53 56 56 57 41 46 44 46 42 41 43 42
82 83 86 90 86 68 59 57 53 50 45 43 48 44 46 46 39 38 36 40 52 56 54 59 77 81 63 55 81 82 57 59 60 59 71 74 56 59 58 54 54 53 48 47 44

GFSSW_925_rhum_114.txt.gz
RH
89 98 97 99 99 98 93 94 95 90 94 89 88 88 89 90 91 76 51 42 46 49 78 73 60 60 63 73 68 64 94 92 69 60 46 27 57 40 41 63 63 56 63 62 64
82 89 93 100 99 100 94 95 95 90 92 89 89 89 90 95 85 65 42 40 61 72 71 58 58 60 76 72 68 84 86 70 49 42 42 48 62 66 57 63 71 69 57 53 60
76 83 81 96 99 99 100 87 96 93 91 90 90 90 93 94 67 40 43 51 68 76 69 64 65 56 63 54 60 62 79 54 49 46 59 77 73 67 77 74 68 74 66 68 87
81 79 79 92 99 98 100 98 96 94 92 92 92 93 82 85 69 46 44 56 63 71 61 62 62 57 56 62 48 63 52 52 50 62 73 67 70 70 66 64 57 55 58 60 82
78 80 82 88 100 99 100 95 88 94 93 94 94 94 83 56 44 41 45 50 58 60 61 58 59 61 74 63 70 67 53 50 53 62 68 64 66 72 67 49 53 59 55 64 74
83 80 82 82 93 99 100 97 97 96 95 96 96 93 81 74 36 39 44 49 57 57 57 52 60 61 73 73 71 58 60 52 56 65 62 66 54 60 48 40 52 54 63 64 81
86 84 82 84 85 96 100 96 97 97 96 96 96 90 68 64 36 37 42 44 51 63 66 65 68 72 70 71 52 54 70 62 63 63 65 60 58 46 37 47 61 65 64 68 77
87 87 86 86 86 92 90 100 95 95 96 95 96 88 72 39 38 37 40 42 51 58 64 69 71 78 79 60 60 62 62 88 56 62 58 70 55 33 64 52 68 74 72 66 79
95 89 89 90 90 98 76 95 97 92 96 91 93 77 57 36 36 36 42 42 44 48 58 67 75 80 66 77 83 62 83 85 70 59 62 77 71 49 56 63 66 72 57 74 89
95 91 94 91 93 90 78 84 81 94 85 80 74 62 48 35 38 42 43 46 48 48 59 62 74 84 68 89 100 97 95 60 68 65 65 69 71 49 53 67 74 72 52 70 88
94 86 84 87 92 98 95 72 76 75 64 61 52 47 32 36 41 44 41 42 44 54 67 70 82 92 88 61 50 57 55 54 38 58 60 63 56 53 56 52 56 49 48 82 90
92 92 80 89 90 91 92 82 63 70 68 55 44 39 34 40 48 42 44 49 48 62 52 61 74 51 55 48 51 50 56 53 48 56 63 60 59 49 53 56 52 53 62 74 87
95 83 75 84 76 92 96 84 70 69 73 52 45 43 39 42 43 45 43 45 51 52 52 54 49 41 47 48 50 52 68 52 52 49 56 63 68 59 56 53 47 48 55 67 82
94 77 75 76 78 92 81 75 68 70 99 67 58 47 43 48 50 39 44 53 48 53 55 53 40 44 51 52 49 66 57 50 44 51 85 56 79 60 58 58 58 54 71 85 86
95 81 80 77 71 85 92 75 71 68 98 56 58 48 44 52 45 49 48 49 53 50 51 63 58 64 64 53 51 59 50 53 51 50 57 48 63 91 57 61 56 57 70 87 85
83 83 84 81 82 78 87 79 67 96 97 69 57 58 55 47 42 45 44 45 44 49 43 48 34 47 57 52 50 46 55 54 51 55 84 50 52 97 61 58 57 54 59 71 84
87 85 85 79 76 83 87 72 98 98 61 74 60 51 46 48 46 44 46 47 53 69 75 52 42 39 47 62 50 55 68 93 94 95 86 45 50 53 39 37 58 64 62 60 82
85 83 89 84 75 77 87 90 98 65 69 53 51 47 46 42 47 47 46 48 44 43 70 69 74 48 40 52 62 67 80 97 95 94 91 47 79 48 35 35 50 62 48 50 65
83 79 87 100 86 74 86 99 96 76 51 56 48 51 54 44 49 47 38 45 49 48 63 73 52 36 40 40 54 68 85 66 96 59 70 50 42 38 36 37 33 43 39 37 36
86 83 98 99 91 85 94 95 71 52 50 50 47 43 48 48 48 42 35 48 52 46 43 50 74 48 38 40 50 64 63 85 88 94 69 57 58 63 54 48 39 40 44 43 45
83 93 99 94 81 82 100 80 55 50 53 56 43 35 38 42 39 36 41 53 53 55 47 50 55 62 44 61 64 74 79 71 94 92 97 96 97 47 52 45 44 47 50 55 55
81 99 88 88 98 90 88 65 57 54 51 49 42 42 42 39 42 43 53 57 54 54 57 53 60 85 61 52 45 53 58 88 94 89 88 99 98 42 48 48 46 46 46 45 47
92 97 83 92 100 97 56 52 55 57 54 47 45 42 38 42 47 44 53 48 51 61 69 62 79 92 75 71 54 56 50 50 90 94 90 92 98 55 49 46 44 45 45 44 42
81 96 93 93 91 86 61 58 55 56 53 46 44 36 35 40 37 46 50 52 50 53 59 54 92 84 89 72 57 72 58 48 80 91 90 83 78 94 55 55 49 48 48 49 47
78 99 94 94 82 70 58 58 51 58 48 46 43 42 41 38 36 42 43 51 43 42 42 57 82 72 58 48 51 56 55 50 82 70 86 72 65 58 58 58 56 48 46 48 48
83 87 70 93 68 63 62 61 55 52 51 50 52 45 41 46 43 51 42 44 45 39 54 66 90 90 88 53 63 54 41 40 47 54 60 64 64 66 55 51 60 58 56 55 53
74 75 84 80 76 66 65 58 54 53 45 43 47 45 55 50 40 37 41 49 57 64 56 67 90 92 73 58 86 86 58 55 58 53 66 71 76 81 74 60 60 66 60 56 55

GFSSW_925_rhum_117.txt.gz
RH
84 81 87 84 96 98 99 100 97 92 93 93 91 89 86 91 90 88 80 69 60 57 67 69 69 66 64 72 67 69 98 91 81 76 68 47 48 41 47 52 45 46 56 57 60
72 84 86 79 88 98 99 100 99 90 94 93 91 91 91 94 95 90 57 50 56 62 72 79 68 61 80 86 83 90 95 75 63 59 58 49 54 60 70 60 60 51 46 51 56
81 72 82 81 86 97 100 99 96 98 96 94 92 93 94 93 91 57 51 54 62 72 76 66 67 68 80 74 78 85 85 66 57 53 54 64 63 67 78 84 66 59 49 53 64
82 82 76 81 84 92 99 98 99 92 95 93 89 94 92 93 74 47 59 59 67 72 72 63 70 83 65 74 63 72 67 63 56 54 54 65 60 80 74 66 50 53 53 54 74
88 84 85 84 84 87 98 100 95 89 94 93 89 94 78 87 72 48 47 56 58 64 67 71 78 72 80 68 69 80 73 58 53 58 56 68 73 73 59 49 46 50 50 67 75
93 89 91 88 87 83 94 97 98 98 91 92 92 88 96 94 42 40 45 50 57 60 61 62 67 70 77 84 82 69 74 75 67 58 69 76 76 71 58 50 50 49 53 74 71
92 96 92 92 90 87 94 96 100 95 87 94 87 88 91 76 41 40 41 46 53 58 67 65 70 73 81 85 70 66 80 64 62 59 69 65 80 76 51 42 47 42 54 71 67
91 93 95 95 94 87 98 96 94 97 90 93 86 93 88 49 42 40 38 41 50 57 64 67 72 83 83 72 72 72 69 87 57 65 70 72 76 53 53 68 61 66 66 70 73
88 93 93 89 94 87 91 89 71 93 91 92 87 92 86 41 38 34 34 44 55 56 58 69 74 89 80 89 86 79 95 86 78 54 69 74 85 62 52 64 70 72 73 72 78
90 93 85 76 85 77 87 82 87 91 89 92 82 76 58 41 39 42 43 44 52 58 72 72 84 90 85 92 96 98 92 84 86 61 70 84 90 67 57 61 80 80 77 76 90
91 96 84 75 77 73 82 82 88 94 81 78 72 64 44 38 40 44 42 48 56 59 79 76 94 92 82 74 84 84 68 78 67 66 74 78 78 65 51 62 62 72 71 84 86
86 88 78 73 75 81 92 89 78 76 80 68 55 55 43 39 55 52 43 60 64 83 68 77 94 70 60 67 76 56 64 85 81 63 68 69 69 58 56 61 60 58 60 81 98
94 95 82 73 85 83 95 74 77 75 84 59 58 53 45 44 54 58 46 55 58 63 62 74 58 44 51 60 61 57 69 74 66 49 63 71 70 69 55 54 51 49 69 77 86
82 84 77 77 77 83 88 78 71 73 98 73 62 53 47 50 59 44 46 56 58 59 56 64 54 58 64 66 63 77 57 57 62 69 79 63 84 64 71 60 52 60 88 86 84
94 81 81 85 77 82 85 76 72 72 95 66 64 48 48 59 50 54 48 56 62 63 57 65 57 61 66 66 58 72 59 60 65 71 64 59 83 94 75 76 71 73 92 92 86
90 87 85 80 78 84 75 76 71 96 95 70 63 65 63 53 45 49 49 49 48 58 49 57 42 49 57 54 60 57 64 65 64 69 87 64 74 70 55 74 80 70 71 91 93
76 84 82 75 88 77 84 81 99 95 58 76 66 62 64 53 51 49 56 55 57 70 73 62 48 41 44 62 58 59 80 95 91 94 89 59 66 62 46 72 82 78 72 83 95
78 86 100 84 77 72 79 96 92 71 73 55 54 54 55 48 52 49 52 62 57 58 86 82 74 50 45 52 68 75 80 98 96 91 93 69 68 64 44 45 83 83 74 62 79
74 89 97 93 82 78 89 97 96 73 59 60 55 57 58 45 51 51 57 63 59 60 74 82 66 46 43 45 62 73 90 67 97 93 90 77 67 51 46 45 53 78 83 67 56
79 80 99 95 86 80 97 79 75 60 63 57 56 44 59 52 52 44 61 61 69 61 57 60 77 53 48 50 53 67 66 79 91 94 95 88 97 83 66 61 56 58 66 61 64
79 93 82 76 74 90 100 81 66 54 58 58 60 50 49 47 45 49 71 63 66 68 58 59 66 66 58 69 76 75 83 84 87 96 97 96 98 59 64 62 62 59 55 58 64
87 98 76 80 94 93 93 65 63 63 56 52 48 52 50 50 55 58 70 63 57 63 69 61 72 89 74 57 50 58 67 84 94 91 97 98 99 70 77 58 56 57 50 50 56
94 96 74 87 95 98 65 57 60 68 63 58 53 48 42 46 60 54 66 53 57 65 69 64 87 89 74 60 54 64 58 66 89 92 90 96 98 68 71 60 54 60 59 54 48
93 96 91 93 94 94 71 71 62 57 56 54 48 43 40 44 44 51 61 55 50 53 54 63 90 78 89 77 65 74 62 58 79 95 91 81 70 77 71 68 67 66 63 62 58
96 94 90 94 85 77 64 63 64 64 53 52 53 52 48 47 41 48 51 54 45 40 50 66 84 80 62 57 53 64 57 55 75 71 88 73 89 85 76 71 67 70 60 58 58
95 97 86 95 83 72 69 66 68 61 55 57 63 54 53 55 52 54 53 58 56 49 60 70 96 92 94 63 74 57 48 48 47 55 63 66 84 82 71 69 84 79 67 68 65
73 78 94 82 84 79 71 61 62 51 48 48 51 51 59 50 40 41 53 63 61 63 62 77 93 95 83 66 84 76 58 57 63 56 67 82 85 83 69 76 89 89 79 75 69

GFSSW_925_rhum_120.txt.gz
RH
75 71 81 86 80 87 99 98 98 99 91 94 89 88 85 86 90 92 91 62 60 68 73 64 65 71 73 73 68 67 94 92 78 72 65 51 58 44 39 49 49 51 46 41 48
84 85 77 72 78 84 95 99 97 100 91 94 92 92 91 93 90 96 49 71 68 68 73 74 76 72 84 80 81 87 94 71 57 57 66 60 58 56 70 62 57 51 47 44 42
86 86 86 83 82 83 92 96 78 100 97 96 93 93 94 92 82 73 45 72 59 64 70 70 65 72 82 86 89 87 87 65 65 60 61 62 62 61 74 72 61 53 40 45 53
93 93 89 88 86 85 87 98 93 99 92 91 86 89 90 93 57 49 61 65 65 72 75 74 76 85 82 80 70 88 77 70 57 56 60 61 53 63 76 63 46 52 55 56 60
89 92 93 94 89 88 86 97 100 91 91 90 84 85 79 96 88 48 62 66 66 70 73 74 82 79 82 72 67 80 70 65 64 63 63 59 65 64 62 54 52 53 53 54 61
89 90 95 89 94 90 85 94 97 100 92 83 87 80 89 80 44 52 51 60 59 63 66 72 77 70 76 81 83 70 76 74 69 72 67 66 63 74 60 53 59 54 52 52 56
88 92 90 90 92 88 79 95 95 100 92 80 89 84 92 75 46 52 54 49 55 59 66 63 70 71 75 87 71 73 89 78 69 68 76 66 83 78 56 54 56 53 50 49 52
91 92 96 77 80 77 57 96 94 97 90 84 91 91 89 51 51 42 41 40 44 58 57 68 71 82 86 78 81 85 75 91 58 62 67 77 83 54 48 58 60 56 51 49 52
79 88 94 75 72 79 62 92 86 89 82 83 95 88 87 50 43 37 37 40 52 61 64 71 73 88 87 92 86 82 92 92 78 58 62 79 83 59 52 63 68 62 60 58 59
93 86 84 75 74 76 62 84 84 81 92 88 85 80 64 45 40 44 37 46 53 64 72 80 90 94 93 92 95 92 84 75 79 64 66 76 84 66 56 61 62 58 66 87 82
91 90 82 78 73 84 52 83 91 86 86 82 74 68 50 40 41 42 42 47 55 61 88 85 96 86 86 75 88 92 95 91 67 67 78 77 73 66 58 58 55 62 84 93 89
87 84 93 76 76 78 82 82 77 74 80 71 65 66 54 42 53 50 47 59 70 87 78 82 98 75 69 69 72 72 86 75 72 70 71 75 74 64 65 56 52 74 81 84 97
98 78 76 79 75 80 87 87 78 78 79 63 64 64 48 43 54 59 51 57 66 72 68 80 65 52 54 60 73 68 70 72 69 58 60 74 70 75 63 67 64 62 70 85 96
91 84 80 79 74 81 89 75 71 77 94 77 62 55 48 50 59 45 48 57 62 66 61 66 54 53 54 60 66 88 60 61 64 78 91 59 91 72 62 72 79 79 90 96 97
77 83 78 75 65 85 78 81 73 70 92 69 65 49 50 58 53 54 49 56 70 64 58 43 56 58 64 61 60 71 61 70 70 81 73 63 94 68 65 84 84 84 86 97 96
93 72 74 78 82 82 80 74 72 86 97 71 58 67 59 53 48 51 54 53 51 60 55 58 47 48 54 54 59 56 69 68 71 80 95 70 95 85 73 91 81 80 81 95 95
86 74 61 74 87 74 75 77 90 94 58 72 69 64 65 53 52 50 53 59 68 74 76 64 53 49 46 64 59 66 79 91 91 94 97 70 81 100 62 85 91 89 82 72 96
90 88 96 98 82 74 68 92 89 79 76 57 56 56 56 49 50 53 53 68 62 65 86 86 78 54 48 54 68 76 80 97 97 97 96 69 96 93 52 65 74 78 82 66 87
79 87 92 92 81 72 89 93 96 73 68 63 56 59 61 47 50 51 65 79 68 69 82 87 72 51 50 51 64 77 87 84 99 99 91 97 74 56 55 55 64 74 80 66 68
72 81 80 76 74 81 87 86 77 60 64 59 59 51 60 53 52 48 74 68 80 68 66 61 81 55 56 56 54 66 67 77 90 92 96 93 97 98 81 66 58 56 64 66 65
75 91 71 70 72 88 97 82 70 57 59 54 58 57 51 51 51 64 75 63 64 73 58 64 68 59 68 71 72 68 78 85 83 94 96 99 98 85 74 62 71 63 54 55 65
86 95 68 69 88 93 90 66 59 65 58 51 49 49 51 52 61 67 68 64 60 66 60 64 73 94 74 59 51 56 63 87 87 89 91 93 98 69 68 63 69 70 62 53 54
95 97 60 74 89 95 67 62 65 66 64 56 53 50 43 46 56 63 65 53 56 62 67 65 85 90 60 49 50 66 60 68 87 87 96 96 97 62 66 64 63 74 69 62 56
93 96 92 92 94 90 71 67 65 57 55 53 51 45 43 49 52 56 62 53 51 50 58 63 88 70 74 67 68 75 63 61 79 93 92 84 79 84 86 70 69 76 73 71 66
93 96 92 99 91 90 68 61 64 61 53 55 56 56 48 46 44 54 52 54 44 53 61 59 75 78 63 65 58 65 59 55 74 77 84 69 80 83 88 81 84 77 73 72 72
86 92 93 94 88 85 76 66 65 60 54 52 61 56 55 58 54 54 54 55 54 59 60 75 87 92 83 68 79 65 56 48 50 56 63 70 75 82 79 81 89 87 80 80 77
82 83 91 80 85 81 79 69 61 53 50 50 50 56 56 49 41 45 58 66 63 63 65 79 91 93 80 78 77 58 62 50 65 62 66 85 68 81 72 80 91 91 88 88 85

GFSSW_925_rhum_123.txt.gz
RH
93 86 85 80 77 79 86 98 98 97 98 94 93 88 84 82 84 90 96 61 59 77 74 70 70 75 74 73 69 65 92 97 88 72 65 53 58 49 42 48 43 43 42 38 32
91 93 89 88 85 82 82 92 98 96 99 93 90 86 81 84 83 96 42 65 76 80 76 70 78 78 85 83 82 86 94 78 67 60 65 56 62 61 62 58 58 54 45 42 37
90 92 82 93 88 86 83 89 96 70 98 97 88 88 86 80 83 69 47 78 76 68 72 67 66 74 89 89 92 82 93 65 62 63 66 64 64 59 63 70 60 61 50 46 46
83 77 86 81 95 90 84 89 97 92 100 94 91 88 85 82 43 51 58 81 64 65 70 75 75 86 91 94 83 96 84 79 64 59 63 67 59 63 62 60 46 48 50 55 58
90 87 82 81 85 85 88 85 99 100 89 83 88 82 85 92 78 57 71 68 69 74 77 81 85 86 88 78 70 85 72 64 65 67 68 65 72 68 63 49 46 50 55 58 60
80 79 86 76 84 90 90 64 95 91 99 94 84 79 78 52 45 58 63 68 67 72 76 75 78 76 79 78 78 70 74 74 69 72 71 78 74 68 59 50 54 56 61 59 61
87 85 81 68 79 79 80 84 83 98 92 94 89 76 81 53 55 61 62 63 59 62 70 68 68 76 72 88 77 78 85 79 74 74 79 73 88 82 58 52 56 56 56 58 58
91 92 84 77 71 80 79 81 86 94 92 94 94 78 72 49 53 56 52 50 54 60 62 65 72 75 80 77 84 88 90 93 62 63 66 67 82 56 50 61 64 60 58 58 56
95 97 87 76 79 78 59 82 85 86 81 85 83 77 65 50 47 40 44 41 50 63 64 76 76 84 86 94 91 80 92 85 82 60 64 73 84 61 56 61 63 56 54 56 60
97 89 83 77 76 80 60 78 84 83 90 80 83 76 52 52 42 45 36 40 60 68 72 84 92 94 92 96 98 86 95 68 82 68 65 79 84 68 61 68 66 67 61 61 58
88 79 74 75 72 72 78 80 79 87 80 67 69 65 58 46 43 43 45 49 56 67 93 86 98 93 83 85 88 84 97 87 81 65 72 82 81 78 81 74 73 63 66 68 79
92 89 80 76 71 69 77 79 79 71 78 74 67 66 58 48 52 48 48 59 71 88 76 87 95 71 65 70 75 86 83 88 74 63 63 66 78 75 79 85 87 88 90 91 88
96 86 80 73 67 82 88 100 88 74 78 66 67 64 58 44 52 57 52 58 73 81 81 91 68 56 50 54 67 73 80 76 74 65 62 68 72 80 63 67 67 75 80 89 88
88 88 73 71 65 84 86 86 74 74 88 81 64 56 50 51 58 45 50 57 65 74 65 70 58 54 54 58 65 84 62 66 68 82 86 61 96 83 74 75 74 77 82 92 96
69 70 72 53 71 87 80 75 70 65 92 62 63 48 51 60 56 53 50 57 79 70 58 52 56 59 62 57 58 73 61 72 72 82 83 72 97 74 82 93 84 89 85 95 97
79 64 70 70 74 81 76 69 66 76 95 77 58 65 59 52 50 51 52 54 55 61 55 62 52 51 50 53 57 60 69 71 77 85 96 86 88 90 96 88 84 81 82 92 98
83 78 77 81 89 74 68 75 84 91 60 73 66 64 64 54 53 51 52 67 78 78 76 67 53 50 48 65 60 68 78 94 92 97 96 80 85 100 69 60 68 90 86 92 93
75 81 88 87 84 70 66 80 90 74 78 60 58 57 56 51 51 59 58 82 66 70 88 89 76 55 53 57 69 79 95 96 94 96 96 75 97 97 66 53 58 72 77 87 92
70 78 77 72 71 70 83 95 88 74 69 65 57 61 59 49 52 57 72 82 74 75 91 88 74 52 51 57 65 75 95 92 98 82 91 95 84 62 72 62 60 59 73 90 93
56 77 74 67 69 76 88 89 77 62 64 58 56 54 60 56 51 60 78 66 78 70 69 59 87 52 62 55 50 64 64 83 92 90 99 90 97 96 88 76 69 66 65 68 85
66 87 57 60 64 85 94 83 68 58 61 53 55 55 52 55 57 70 68 60 64 72 61 68 66 56 62 67 76 66 78 86 86 90 94 99 99 94 81 73 84 71 65 60 63
77 82 50 56 85 93 91 68 61 64 59 51 49 49 51 53 63 67 62 65 61 66 61 66 73 94 80 65 52 54 65 88 92 88 82 92 99 84 69 67 73 72 71 65 62
90 91 49 56 97 96 74 66 63 65 63 57 52 50 43 49 50 66 64 52 57 64 69 63 81 86 50 46 49 65 62 65 86 87 95 92 93 66 71 68 76 77 76 75 68
87 81 85 92 92 89 88 70 66 55 56 52 50 44 43 48 52 58 60 52 50 52 62 60 88 70 67 62 67 78 64 59 77 91 92 87 78 80 86 77 84 86 82 80 78
94 97 92 97 82 88 76 69 70 66 56 56 53 58 55 43 45 54 52 54 43 58 60 53 71 79 66 67 68 66 67 55 77 82 82 68 83 82 86 84 88 89 82 81 82
81 86 93 92 88 73 78 77 68 64 60 55 57 57 58 54 54 52 54 57 52 60 61 72 85 91 80 67 76 77 60 57 53 60 65 71 77 78 79 83 86 90 90 91 90
86 89 84 81 81 76 78 70 63 57 51 56 56 57 53 53 47 50 61 68 66 68 66 80 92 91 66 78 69 46 50 53 62 63 64 87 64 80 79 89 89 89 91 93 90

GFSSW_925_rhum_126.txt.gz
RH
88 95 97 99 89 85 82 84 99 98 94 100 91 87 83 82 82 84 91 58 51 80 73 68 71 75 68 76 70 68 90 94 87 78 60 54 58 51 43 50 48 45 43 36 32
91 88 93 95 98 92 87 84 94 96 95 99 90 86 84 83 81 91 39 53 78 83 68 65 78 78 87 83 82 83 92 84 70 62 65 62 63 62 62 61 61 54 47 43 43
92 92 92 96 94 97 88 80 95 83 80 94 94 89 84 74 72 50 73 73 74 85 71 66 71 76 87 84 88 82 95 71 68 64 66 70 67 61 69 72 60 58 49 51 51
97 91 89 88 89 87 90 78 84 92 87 98 95 83 77 68 56 56 67 77 78 79 74 74 75 81 87 84 85 98 85 77 76 61 66 68 61 69 66 62 50 52 50 50 60
89 96 85 78 84 90 92 87 76 98 96 98 93 83 70 71 51 71 82 80 70 69 73 81 85 83 96 87 79 99 80 70 71 69 71 69 77 74 71 57 52 52 51 54 57
90 93 95 82 90 86 87 90 84 90 96 95 86 70 70 44 51 64 73 68 72 75 81 78 80 75 85 82 81 76 80 77 72 72 74 79 74 74 66 55 57 56 59 58 57
85 91 93 89 81 78 76 94 78 100 90 87 80 64 64 48 59 63 64 68 67 71 78 73 68 82 76 86 77 83 91 78 70 72 81 75 85 92 67 60 63 58 57 57 60
88 89 92 80 78 73 80 89 69 98 93 96 78 69 55 53 53 65 62 62 59 64 64 67 69 82 84 76 78 89 88 87 62 63 68 68 82 60 58 64 66 63 59 57 59
88 90 84 73 74 83 70 87 84 86 90 75 71 66 60 49 47 57 54 44 51 63 66 73 77 88 80 88 85 86 96 90 77 62 66 75 88 66 66 74 72 72 72 65 59
90 91 83 68 71 69 82 82 93 86 80 72 70 56 49 53 44 44 44 48 65 71 72 80 86 95 92 93 98 99 100 89 88 64 68 77 85 75 73 72 74 75 79 78 71
93 80 76 77 68 76 83 78 71 77 74 79 72 63 60 49 44 47 46 52 59 71 82 77 93 92 93 79 81 95 95 100 90 66 78 81 78 74 74 64 74 82 80 80 83
94 90 79 74 77 69 73 85 91 72 81 73 69 62 59 50 55 53 47 58 68 84 75 84 95 74 63 67 70 68 90 90 76 67 61 66 74 61 63 68 67 73 77 79 83
95 83 72 75 81 76 92 96 84 76 73 66 65 59 54 46 56 58 51 60 72 82 84 93 71 58 65 60 61 68 80 79 79 68 60 71 74 70 58 57 58 66 69 78 87
70 65 63 61 68 82 83 84 76 72 88 73 65 60 55 54 58 46 52 56 67 80 69 79 64 56 59 58 57 83 61 70 72 78 87 66 95 72 76 72 70 78 80 88 89
71 74 71 66 74 86 86 76 72 58 80 55 66 45 54 61 57 48 52 61 81 71 65 64 56 62 63 56 60 73 60 73 73 83 87 74 96 76 83 92 91 87 84 89 90
82 67 66 66 73 83 74 69 61 72 85 74 62 65 56 50 51 50 51 53 56 59 54 72 54 55 55 54 58 61 73 75 82 87 94 82 90 83 97 96 94 77 85 91 91
75 81 78 82 90 71 68 67 79 89 62 62 65 63 63 55 52 56 56 72 84 82 76 69 56 50 49 66 60 72 76 95 95 97 93 82 88 100 95 72 67 81 89 93 92
60 62 59 63 67 74 66 74 88 75 81 62 61 57 59 53 53 63 65 81 70 73 91 92 73 53 51 60 72 83 93 91 95 96 96 77 96 88 68 61 57 64 77 88 91
52 56 62 63 58 64 80 94 83 74 69 70 56 60 58 53 55 64 76 78 78 78 93 85 70 53 52 58 64 74 92 84 84 89 90 93 65 62 68 72 65 66 71 88 92
60 61 60 60 61 65 89 89 82 66 67 60 56 56 60 58 51 64 70 66 72 69 73 61 91 50 59 52 50 64 67 84 91 88 100 90 91 89 92 86 74 76 76 74 82
65 73 50 57 52 83 96 81 69 60 64 58 57 57 54 58 62 71 64 57 64 71 63 71 68 52 56 63 71 68 78 86 84 88 92 99 88 82 85 74 85 80 76 73 74
71 74 44 49 87 92 92 75 69 64 61 56 50 51 54 57 62 66 63 62 62 64 66 66 74 89 61 62 59 55 63 89 92 92 82 92 92 86 87 75 83 84 78 73 71
85 86 42 51 87 99 78 60 64 63 61 60 53 57 47 55 56 66 62 51 53 63 76 66 76 73 43 46 49 65 61 68 87 88 95 90 86 77 77 79 84 89 85 80 75
83 76 84 93 91 80 77 71 62 54 56 55 51 44 48 47 51 54 60 52 49 62 63 60 86 64 60 58 67 81 65 60 77 91 90 88 80 73 82 86 87 90 90 87 86
90 91 90 93 86 80 71 65 66 64 53 54 53 58 59 47 49 52 50 57 43 60 62 54 68 81 70 68 72 73 70 62 80 80 80 62 79 74 82 87 86 89 90 90 91
82 89 92 88 84 70 76 76 61 57 56 52 54 57 55 52 54 58 57 58 56 65 61 71 76 91 84 67 76 79 69 64 57 61 74 72 80 72 78 83 86 89 92 93 93
90 89 80 81 80 76 79 70 61 58 52 53 54 60 47 50 49 49 58 68 67 71 67 79 92 91 60 71 70 42 46 60 56 60 63 86 62 77 82 87 87 89 92 94 93